<?xml version="1.0" encoding="UTF-8" standalone="no" ?>
<gpx xmlns="http://www.topografix.com/GPX/1/1" xmlns:xsi="http://www.w3.org/2001/XMLSchema-instance" xsi:schemaLocation="http://www.topografix.com/GPX/1/1 http://www.topografix.com/GPX/1/1/gpx.xsd" version="1.1" creator="VisuGPX - https://www.visugpx.com">
  <metadata>
    <name>VTT du samedi 23 novembre 2013 (Jacques)</name>
    <desc><![CDATA[Accompagnés de Jacques*, de la grisaille et des frimas, nous avons choisi un parcours théoriquement peu boueux, mais peu original ...Bref, le pied !
]]></desc>
  </metadata>
  <trk>
    <name><![CDATA[Coulevon39 (Jacques)]]></name>
    <trkseg>
      <trkpt lat="47.64448" lon="6.18292">
        <ele>229.80000305176</ele>
        <time>2013-11-23T13:25:33.000Z</time>
      </trkpt>
      <trkpt lat="47.64453" lon="6.18286">
        <ele>229.80000305176</ele>
        <time>2013-11-23T13:25:37.000Z</time>
      </trkpt>
      <trkpt lat="47.64454" lon="6.18284">
        <ele>229.80000305176</ele>
        <time>2013-11-23T13:25:38.000Z</time>
      </trkpt>
      <trkpt lat="47.64458" lon="6.18278">
        <ele>229.80000305176</ele>
        <time>2013-11-23T13:25:41.000Z</time>
      </trkpt>
      <trkpt lat="47.64468" lon="6.18265">
        <ele>229.39999389648</ele>
        <time>2013-11-23T13:25:47.000Z</time>
      </trkpt>
      <trkpt lat="47.6447" lon="6.18262">
        <ele>229.19999694824</ele>
        <time>2013-11-23T13:25:48.000Z</time>
      </trkpt>
      <trkpt lat="47.64472" lon="6.18258">
        <ele>229</ele>
        <time>2013-11-23T13:25:49.000Z</time>
      </trkpt>
      <trkpt lat="47.64475" lon="6.18253">
        <ele>228.80000305176</ele>
        <time>2013-11-23T13:25:50.000Z</time>
      </trkpt>
      <trkpt lat="47.64478" lon="6.18249">
        <ele>228.60000610352</ele>
        <time>2013-11-23T13:25:51.000Z</time>
      </trkpt>
      <trkpt lat="47.6448" lon="6.18245">
        <ele>228.60000610352</ele>
        <time>2013-11-23T13:25:52.000Z</time>
      </trkpt>
      <trkpt lat="47.64483" lon="6.18241">
        <ele>228.60000610352</ele>
        <time>2013-11-23T13:25:53.000Z</time>
      </trkpt>
      <trkpt lat="47.64485" lon="6.18237">
        <ele>228.60000610352</ele>
        <time>2013-11-23T13:25:54.000Z</time>
      </trkpt>
      <trkpt lat="47.64487" lon="6.18234">
        <ele>228.60000610352</ele>
        <time>2013-11-23T13:25:55.000Z</time>
      </trkpt>
      <trkpt lat="47.64489" lon="6.1823">
        <ele>228.60000610352</ele>
        <time>2013-11-23T13:25:56.000Z</time>
      </trkpt>
      <trkpt lat="47.64493" lon="6.18219">
        <ele>228.19999694824</ele>
        <time>2013-11-23T13:25:59.000Z</time>
      </trkpt>
      <trkpt lat="47.64497" lon="6.18207">
        <ele>227.80000305176</ele>
        <time>2013-11-23T13:26:02.000Z</time>
      </trkpt>
      <trkpt lat="47.64498" lon="6.18203">
        <ele>227.39999389648</ele>
        <time>2013-11-23T13:26:03.000Z</time>
      </trkpt>
      <trkpt lat="47.64499" lon="6.18198">
        <ele>227.19999694824</ele>
        <time>2013-11-23T13:26:04.000Z</time>
      </trkpt>
      <trkpt lat="47.645" lon="6.18193">
        <ele>226.80000305176</ele>
        <time>2013-11-23T13:26:05.000Z</time>
      </trkpt>
      <trkpt lat="47.64501" lon="6.18187">
        <ele>226.60000610352</ele>
        <time>2013-11-23T13:26:06.000Z</time>
      </trkpt>
      <trkpt lat="47.64501" lon="6.1818">
        <ele>226.19999694824</ele>
        <time>2013-11-23T13:26:07.000Z</time>
      </trkpt>
      <trkpt lat="47.64501" lon="6.18174">
        <ele>225.60000610352</ele>
        <time>2013-11-23T13:26:08.000Z</time>
      </trkpt>
      <trkpt lat="47.64499" lon="6.18168">
        <ele>225.19999694824</ele>
        <time>2013-11-23T13:26:09.000Z</time>
      </trkpt>
      <trkpt lat="47.64497" lon="6.18163">
        <ele>224.80000305176</ele>
        <time>2013-11-23T13:26:10.000Z</time>
      </trkpt>
      <trkpt lat="47.64496" lon="6.18158">
        <ele>224.80000305176</ele>
        <time>2013-11-23T13:26:11.000Z</time>
      </trkpt>
      <trkpt lat="47.64495" lon="6.18153">
        <ele>224.60000610352</ele>
        <time>2013-11-23T13:26:12.000Z</time>
      </trkpt>
      <trkpt lat="47.64494" lon="6.18136">
        <ele>224.19999694824</ele>
        <time>2013-11-23T13:26:15.000Z</time>
      </trkpt>
      <trkpt lat="47.64494" lon="6.18131">
        <ele>224</ele>
        <time>2013-11-23T13:26:16.000Z</time>
      </trkpt>
      <trkpt lat="47.64495" lon="6.18125">
        <ele>224</ele>
        <time>2013-11-23T13:26:17.000Z</time>
      </trkpt>
      <trkpt lat="47.64495" lon="6.1812">
        <ele>223.80000305176</ele>
        <time>2013-11-23T13:26:18.000Z</time>
      </trkpt>
      <trkpt lat="47.64496" lon="6.18115">
        <ele>223.80000305176</ele>
        <time>2013-11-23T13:26:19.000Z</time>
      </trkpt>
      <trkpt lat="47.64499" lon="6.18106">
        <ele>223.60000610352</ele>
        <time>2013-11-23T13:26:21.000Z</time>
      </trkpt>
      <trkpt lat="47.64505" lon="6.18083">
        <ele>224</ele>
        <time>2013-11-23T13:26:26.000Z</time>
      </trkpt>
      <trkpt lat="47.64506" lon="6.18079">
        <ele>224.19999694824</ele>
        <time>2013-11-23T13:26:27.000Z</time>
      </trkpt>
      <trkpt lat="47.64507" lon="6.18074">
        <ele>224.39999389648</ele>
        <time>2013-11-23T13:26:28.000Z</time>
      </trkpt>
      <trkpt lat="47.64508" lon="6.18069">
        <ele>224.60000610352</ele>
        <time>2013-11-23T13:26:29.000Z</time>
      </trkpt>
      <trkpt lat="47.64509" lon="6.18064">
        <ele>224.60000610352</ele>
        <time>2013-11-23T13:26:30.000Z</time>
      </trkpt>
      <trkpt lat="47.64513" lon="6.18052">
        <ele>225.39999389648</ele>
        <time>2013-11-23T13:26:33.000Z</time>
      </trkpt>
      <trkpt lat="47.64518" lon="6.18046">
        <ele>226</ele>
        <time>2013-11-23T13:26:34.000Z</time>
      </trkpt>
      <trkpt lat="47.64523" lon="6.18041">
        <ele>226.80000305176</ele>
        <time>2013-11-23T13:26:37.000Z</time>
      </trkpt>
      <trkpt lat="47.6453" lon="6.18036">
        <ele>227.80000305176</ele>
        <time>2013-11-23T13:26:40.000Z</time>
      </trkpt>
      <trkpt lat="47.64532" lon="6.18036">
        <ele>228</ele>
        <time>2013-11-23T13:26:41.000Z</time>
      </trkpt>
      <trkpt lat="47.64534" lon="6.18037">
        <ele>228.39999389648</ele>
        <time>2013-11-23T13:26:42.000Z</time>
      </trkpt>
      <trkpt lat="47.64536" lon="6.18039">
        <ele>228.60000610352</ele>
        <time>2013-11-23T13:26:43.000Z</time>
      </trkpt>
      <trkpt lat="47.64537" lon="6.18041">
        <ele>229</ele>
        <time>2013-11-23T13:26:44.000Z</time>
      </trkpt>
      <trkpt lat="47.64539" lon="6.18047">
        <ele>229.60000610352</ele>
        <time>2013-11-23T13:26:47.000Z</time>
      </trkpt>
      <trkpt lat="47.64543" lon="6.18062">
        <ele>230.80000305176</ele>
        <time>2013-11-23T13:26:53.000Z</time>
      </trkpt>
      <trkpt lat="47.64543" lon="6.18073">
        <ele>231.39999389648</ele>
        <time>2013-11-23T13:26:57.000Z</time>
      </trkpt>
      <trkpt lat="47.64543" lon="6.18079">
        <ele>231.60000610352</ele>
        <time>2013-11-23T13:26:59.000Z</time>
      </trkpt>
      <trkpt lat="47.64544" lon="6.18093">
        <ele>232.19999694824</ele>
        <time>2013-11-23T13:27:04.000Z</time>
      </trkpt>
      <trkpt lat="47.64547" lon="6.18105">
        <ele>233.19999694824</ele>
        <time>2013-11-23T13:27:09.000Z</time>
      </trkpt>
      <trkpt lat="47.64549" lon="6.18106">
        <ele>233.39999389648</ele>
        <time>2013-11-23T13:27:10.000Z</time>
      </trkpt>
      <trkpt lat="47.64554" lon="6.18102">
        <ele>234.39999389648</ele>
        <time>2013-11-23T13:27:14.000Z</time>
      </trkpt>
      <trkpt lat="47.64555" lon="6.181">
        <ele>234.60000610352</ele>
        <time>2013-11-23T13:27:15.000Z</time>
      </trkpt>
      <trkpt lat="47.64559" lon="6.18093">
        <ele>235.39999389648</ele>
        <time>2013-11-23T13:27:19.000Z</time>
      </trkpt>
      <trkpt lat="47.64559" lon="6.18091">
        <ele>235.19999694824</ele>
        <time>2013-11-23T13:27:20.000Z</time>
      </trkpt>
      <trkpt lat="47.64564" lon="6.18082">
        <ele>235.80000305176</ele>
        <time>2013-11-23T13:27:26.000Z</time>
      </trkpt>
      <trkpt lat="47.64565" lon="6.18078">
        <ele>236</ele>
        <time>2013-11-23T13:27:28.000Z</time>
      </trkpt>
      <trkpt lat="47.64568" lon="6.18071">
        <ele>236</ele>
        <time>2013-11-23T13:27:32.000Z</time>
      </trkpt>
      <trkpt lat="47.64568" lon="6.18069">
        <ele>236</ele>
        <time>2013-11-23T13:27:33.000Z</time>
      </trkpt>
      <trkpt lat="47.64571" lon="6.18063">
        <ele>236</ele>
        <time>2013-11-23T13:27:37.000Z</time>
      </trkpt>
      <trkpt lat="47.64571" lon="6.18062">
        <ele>236</ele>
        <time>2013-11-23T13:27:38.000Z</time>
      </trkpt>
      <trkpt lat="47.64572" lon="6.1806">
        <ele>236</ele>
        <time>2013-11-23T13:27:39.000Z</time>
      </trkpt>
      <trkpt lat="47.64573" lon="6.18059">
        <ele>236.19999694824</ele>
        <time>2013-11-23T13:27:40.000Z</time>
      </trkpt>
      <trkpt lat="47.64574" lon="6.18058">
        <ele>236.19999694824</ele>
        <time>2013-11-23T13:27:41.000Z</time>
      </trkpt>
      <trkpt lat="47.64579" lon="6.18049">
        <ele>236.39999389648</ele>
        <time>2013-11-23T13:27:48.000Z</time>
      </trkpt>
      <trkpt lat="47.64583" lon="6.18044">
        <ele>236.80000305176</ele>
        <time>2013-11-23T13:27:53.000Z</time>
      </trkpt>
      <trkpt lat="47.64584" lon="6.18043">
        <ele>236.60000610352</ele>
        <time>2013-11-23T13:27:54.000Z</time>
      </trkpt>
      <trkpt lat="47.64585" lon="6.18037">
        <ele>236.19999694824</ele>
        <time>2013-11-23T13:27:57.000Z</time>
      </trkpt>
      <trkpt lat="47.64587" lon="6.18033">
        <ele>236</ele>
        <time>2013-11-23T13:28:00.000Z</time>
      </trkpt>
      <trkpt lat="47.64589" lon="6.18031">
        <ele>235.80000305176</ele>
        <time>2013-11-23T13:28:02.000Z</time>
      </trkpt>
      <trkpt lat="47.64592" lon="6.18027">
        <ele>235.60000610352</ele>
        <time>2013-11-23T13:28:06.000Z</time>
      </trkpt>
      <trkpt lat="47.64595" lon="6.18024">
        <ele>235.39999389648</ele>
        <time>2013-11-23T13:28:09.000Z</time>
      </trkpt>
      <trkpt lat="47.64596" lon="6.18023">
        <ele>235.39999389648</ele>
        <time>2013-11-23T13:28:10.000Z</time>
      </trkpt>
      <trkpt lat="47.64597" lon="6.18023">
        <ele>235.39999389648</ele>
        <time>2013-11-23T13:28:11.000Z</time>
      </trkpt>
      <trkpt lat="47.64598" lon="6.18023">
        <ele>235.60000610352</ele>
        <time>2013-11-23T13:28:12.000Z</time>
      </trkpt>
      <trkpt lat="47.64599" lon="6.18023">
        <ele>235.60000610352</ele>
        <time>2013-11-23T13:28:13.000Z</time>
      </trkpt>
      <trkpt lat="47.64603" lon="6.18024">
        <ele>235.80000305176</ele>
        <time>2013-11-23T13:28:17.000Z</time>
      </trkpt>
      <trkpt lat="47.64607" lon="6.18023">
        <ele>235.80000305176</ele>
        <time>2013-11-23T13:28:20.000Z</time>
      </trkpt>
      <trkpt lat="47.64612" lon="6.18019">
        <ele>235.60000610352</ele>
        <time>2013-11-23T13:28:26.000Z</time>
      </trkpt>
      <trkpt lat="47.64616" lon="6.18019">
        <ele>235.80000305176</ele>
        <time>2013-11-23T13:28:30.000Z</time>
      </trkpt>
      <trkpt lat="47.64618" lon="6.18021">
        <ele>236</ele>
        <time>2013-11-23T13:28:32.000Z</time>
      </trkpt>
      <trkpt lat="47.64624" lon="6.18024">
        <ele>236.60000610352</ele>
        <time>2013-11-23T13:28:38.000Z</time>
      </trkpt>
      <trkpt lat="47.64626" lon="6.18024">
        <ele>236.80000305176</ele>
        <time>2013-11-23T13:28:40.000Z</time>
      </trkpt>
      <trkpt lat="47.64631" lon="6.18026">
        <ele>237.19999694824</ele>
        <time>2013-11-23T13:28:45.000Z</time>
      </trkpt>
      <trkpt lat="47.64632" lon="6.18027">
        <ele>237.39999389648</ele>
        <time>2013-11-23T13:28:46.000Z</time>
      </trkpt>
      <trkpt lat="47.64634" lon="6.18029">
        <ele>237.80000305176</ele>
        <time>2013-11-23T13:28:47.000Z</time>
      </trkpt>
      <trkpt lat="47.64635" lon="6.1803">
        <ele>237.80000305176</ele>
        <time>2013-11-23T13:28:48.000Z</time>
      </trkpt>
      <trkpt lat="47.64635" lon="6.18031">
        <ele>238</ele>
        <time>2013-11-23T13:28:49.000Z</time>
      </trkpt>
      <trkpt lat="47.64637" lon="6.18034">
        <ele>238.39999389648</ele>
        <time>2013-11-23T13:28:51.000Z</time>
      </trkpt>
      <trkpt lat="47.64643" lon="6.1804">
        <ele>239.60000610352</ele>
        <time>2013-11-23T13:28:57.000Z</time>
      </trkpt>
      <trkpt lat="47.64653" lon="6.1805">
        <ele>241.39999389648</ele>
        <time>2013-11-23T13:29:05.000Z</time>
      </trkpt>
      <trkpt lat="47.64656" lon="6.18054">
        <ele>242.19999694824</ele>
        <time>2013-11-23T13:29:08.000Z</time>
      </trkpt>
      <trkpt lat="47.64658" lon="6.18055">
        <ele>242.39999389648</ele>
        <time>2013-11-23T13:29:09.000Z</time>
      </trkpt>
      <trkpt lat="47.64659" lon="6.18057">
        <ele>242.60000610352</ele>
        <time>2013-11-23T13:29:10.000Z</time>
      </trkpt>
      <trkpt lat="47.6466" lon="6.18058">
        <ele>243</ele>
        <time>2013-11-23T13:29:11.000Z</time>
      </trkpt>
      <trkpt lat="47.64661" lon="6.1806">
        <ele>243.19999694824</ele>
        <time>2013-11-23T13:29:12.000Z</time>
      </trkpt>
      <trkpt lat="47.64663" lon="6.18062">
        <ele>243.60000610352</ele>
        <time>2013-11-23T13:29:13.000Z</time>
      </trkpt>
      <trkpt lat="47.64676" lon="6.18073">
        <ele>244.19999694824</ele>
        <time>2013-11-23T13:29:20.000Z</time>
      </trkpt>
      <trkpt lat="47.64678" lon="6.18075">
        <ele>244.39999389648</ele>
        <time>2013-11-23T13:29:21.000Z</time>
      </trkpt>
      <trkpt lat="47.64679" lon="6.18077">
        <ele>244.39999389648</ele>
        <time>2013-11-23T13:29:22.000Z</time>
      </trkpt>
      <trkpt lat="47.64681" lon="6.18079">
        <ele>244.60000610352</ele>
        <time>2013-11-23T13:29:23.000Z</time>
      </trkpt>
      <trkpt lat="47.64682" lon="6.18081">
        <ele>244.60000610352</ele>
        <time>2013-11-23T13:29:24.000Z</time>
      </trkpt>
      <trkpt lat="47.64687" lon="6.18089">
        <ele>244.80000305176</ele>
        <time>2013-11-23T13:29:28.000Z</time>
      </trkpt>
      <trkpt lat="47.64696" lon="6.18104">
        <ele>245</ele>
        <time>2013-11-23T13:29:34.000Z</time>
      </trkpt>
      <trkpt lat="47.647" lon="6.18111">
        <ele>245.39999389648</ele>
        <time>2013-11-23T13:29:37.000Z</time>
      </trkpt>
      <trkpt lat="47.64702" lon="6.18114">
        <ele>245.39999389648</ele>
        <time>2013-11-23T13:29:38.000Z</time>
      </trkpt>
      <trkpt lat="47.64704" lon="6.18116">
        <ele>245.39999389648</ele>
        <time>2013-11-23T13:29:39.000Z</time>
      </trkpt>
      <trkpt lat="47.64706" lon="6.18119">
        <ele>245.60000610352</ele>
        <time>2013-11-23T13:29:40.000Z</time>
      </trkpt>
      <trkpt lat="47.64708" lon="6.18122">
        <ele>245.60000610352</ele>
        <time>2013-11-23T13:29:41.000Z</time>
      </trkpt>
      <trkpt lat="47.64725" lon="6.18146">
        <ele>247.19999694824</ele>
        <time>2013-11-23T13:29:49.000Z</time>
      </trkpt>
      <trkpt lat="47.64727" lon="6.18149">
        <ele>247.60000610352</ele>
        <time>2013-11-23T13:29:50.000Z</time>
      </trkpt>
      <trkpt lat="47.64729" lon="6.18151">
        <ele>247.80000305176</ele>
        <time>2013-11-23T13:29:51.000Z</time>
      </trkpt>
      <trkpt lat="47.64732" lon="6.18155">
        <ele>248</ele>
        <time>2013-11-23T13:29:52.000Z</time>
      </trkpt>
      <trkpt lat="47.64734" lon="6.18158">
        <ele>248.39999389648</ele>
        <time>2013-11-23T13:29:53.000Z</time>
      </trkpt>
      <trkpt lat="47.64743" lon="6.18171">
        <ele>249.60000610352</ele>
        <time>2013-11-23T13:29:57.000Z</time>
      </trkpt>
      <trkpt lat="47.64746" lon="6.18174">
        <ele>249.60000610352</ele>
        <time>2013-11-23T13:29:58.000Z</time>
      </trkpt>
      <trkpt lat="47.64748" lon="6.18178">
        <ele>249.80000305176</ele>
        <time>2013-11-23T13:29:59.000Z</time>
      </trkpt>
      <trkpt lat="47.6475" lon="6.18182">
        <ele>250</ele>
        <time>2013-11-23T13:30:00.000Z</time>
      </trkpt>
      <trkpt lat="47.64753" lon="6.18186">
        <ele>250</ele>
        <time>2013-11-23T13:30:01.000Z</time>
      </trkpt>
      <trkpt lat="47.64763" lon="6.18196">
        <ele>249.80000305176</ele>
        <time>2013-11-23T13:30:04.000Z</time>
      </trkpt>
      <trkpt lat="47.64766" lon="6.182">
        <ele>249.80000305176</ele>
        <time>2013-11-23T13:30:05.000Z</time>
      </trkpt>
      <trkpt lat="47.6477" lon="6.18204">
        <ele>249.60000610352</ele>
        <time>2013-11-23T13:30:06.000Z</time>
      </trkpt>
      <trkpt lat="47.64774" lon="6.18207">
        <ele>249.60000610352</ele>
        <time>2013-11-23T13:30:07.000Z</time>
      </trkpt>
      <trkpt lat="47.64777" lon="6.18211">
        <ele>249.60000610352</ele>
        <time>2013-11-23T13:30:08.000Z</time>
      </trkpt>
      <trkpt lat="47.64781" lon="6.18215">
        <ele>249.80000305176</ele>
        <time>2013-11-23T13:30:09.000Z</time>
      </trkpt>
      <trkpt lat="47.64785" lon="6.18219">
        <ele>249.80000305176</ele>
        <time>2013-11-23T13:30:10.000Z</time>
      </trkpt>
      <trkpt lat="47.64788" lon="6.18222">
        <ele>249.80000305176</ele>
        <time>2013-11-23T13:30:11.000Z</time>
      </trkpt>
      <trkpt lat="47.64792" lon="6.18226">
        <ele>249.80000305176</ele>
        <time>2013-11-23T13:30:12.000Z</time>
      </trkpt>
      <trkpt lat="47.64797" lon="6.1823">
        <ele>250</ele>
        <time>2013-11-23T13:30:13.000Z</time>
      </trkpt>
      <trkpt lat="47.64802" lon="6.18233">
        <ele>249.80000305176</ele>
        <time>2013-11-23T13:30:14.000Z</time>
      </trkpt>
      <trkpt lat="47.6481" lon="6.18239">
        <ele>250</ele>
        <time>2013-11-23T13:30:16.000Z</time>
      </trkpt>
      <trkpt lat="47.64814" lon="6.18241">
        <ele>250</ele>
        <time>2013-11-23T13:30:17.000Z</time>
      </trkpt>
      <trkpt lat="47.64818" lon="6.18244">
        <ele>250.19999694824</ele>
        <time>2013-11-23T13:30:18.000Z</time>
      </trkpt>
      <trkpt lat="47.64821" lon="6.18246">
        <ele>250.19999694824</ele>
        <time>2013-11-23T13:30:19.000Z</time>
      </trkpt>
      <trkpt lat="47.64824" lon="6.18248">
        <ele>250.19999694824</ele>
        <time>2013-11-23T13:30:20.000Z</time>
      </trkpt>
      <trkpt lat="47.64829" lon="6.18252">
        <ele>250.39999389648</ele>
        <time>2013-11-23T13:30:22.000Z</time>
      </trkpt>
      <trkpt lat="47.64849" lon="6.18261">
        <ele>250.19999694824</ele>
        <time>2013-11-23T13:30:29.000Z</time>
      </trkpt>
      <trkpt lat="47.64864" lon="6.18271">
        <ele>250.39999389648</ele>
        <time>2013-11-23T13:30:35.000Z</time>
      </trkpt>
      <trkpt lat="47.64867" lon="6.18272">
        <ele>250.39999389648</ele>
        <time>2013-11-23T13:30:36.000Z</time>
      </trkpt>
      <trkpt lat="47.6487" lon="6.18274">
        <ele>250.39999389648</ele>
        <time>2013-11-23T13:30:37.000Z</time>
      </trkpt>
      <trkpt lat="47.64872" lon="6.18276">
        <ele>250.39999389648</ele>
        <time>2013-11-23T13:30:38.000Z</time>
      </trkpt>
      <trkpt lat="47.64874" lon="6.18277">
        <ele>250.39999389648</ele>
        <time>2013-11-23T13:30:39.000Z</time>
      </trkpt>
      <trkpt lat="47.64887" lon="6.18285">
        <ele>250.60000610352</ele>
        <time>2013-11-23T13:30:45.000Z</time>
      </trkpt>
      <trkpt lat="47.64898" lon="6.18292">
        <ele>251</ele>
        <time>2013-11-23T13:30:51.000Z</time>
      </trkpt>
      <trkpt lat="47.64909" lon="6.18299">
        <ele>251.19999694824</ele>
        <time>2013-11-23T13:30:56.000Z</time>
      </trkpt>
      <trkpt lat="47.64912" lon="6.183">
        <ele>251.39999389648</ele>
        <time>2013-11-23T13:30:58.000Z</time>
      </trkpt>
      <trkpt lat="47.64914" lon="6.18301">
        <ele>251.39999389648</ele>
        <time>2013-11-23T13:30:59.000Z</time>
      </trkpt>
      <trkpt lat="47.64917" lon="6.18302">
        <ele>251.39999389648</ele>
        <time>2013-11-23T13:31:00.000Z</time>
      </trkpt>
      <trkpt lat="47.64918" lon="6.18303">
        <ele>251.39999389648</ele>
        <time>2013-11-23T13:31:01.000Z</time>
      </trkpt>
      <trkpt lat="47.6492" lon="6.18305">
        <ele>251.60000610352</ele>
        <time>2013-11-23T13:31:02.000Z</time>
      </trkpt>
      <trkpt lat="47.64923" lon="6.18306">
        <ele>251.80000305176</ele>
        <time>2013-11-23T13:31:03.000Z</time>
      </trkpt>
      <trkpt lat="47.64939" lon="6.18311">
        <ele>252</ele>
        <time>2013-11-23T13:31:09.000Z</time>
      </trkpt>
      <trkpt lat="47.64941" lon="6.18311">
        <ele>252</ele>
        <time>2013-11-23T13:31:10.000Z</time>
      </trkpt>
      <trkpt lat="47.64944" lon="6.18311">
        <ele>252</ele>
        <time>2013-11-23T13:31:11.000Z</time>
      </trkpt>
      <trkpt lat="47.64947" lon="6.18312">
        <ele>252</ele>
        <time>2013-11-23T13:31:12.000Z</time>
      </trkpt>
      <trkpt lat="47.64958" lon="6.18312">
        <ele>252</ele>
        <time>2013-11-23T13:31:16.000Z</time>
      </trkpt>
      <trkpt lat="47.64974" lon="6.18314">
        <ele>252.19999694824</ele>
        <time>2013-11-23T13:31:22.000Z</time>
      </trkpt>
      <trkpt lat="47.64976" lon="6.18314">
        <ele>252.19999694824</ele>
        <time>2013-11-23T13:31:23.000Z</time>
      </trkpt>
      <trkpt lat="47.64978" lon="6.18314">
        <ele>252.19999694824</ele>
        <time>2013-11-23T13:31:24.000Z</time>
      </trkpt>
      <trkpt lat="47.6498" lon="6.18314">
        <ele>252.19999694824</ele>
        <time>2013-11-23T13:31:25.000Z</time>
      </trkpt>
      <trkpt lat="47.64982" lon="6.18314">
        <ele>252.19999694824</ele>
        <time>2013-11-23T13:31:26.000Z</time>
      </trkpt>
      <trkpt lat="47.64987" lon="6.18315">
        <ele>252.19999694824</ele>
        <time>2013-11-23T13:31:28.000Z</time>
      </trkpt>
      <trkpt lat="47.65004" lon="6.18317">
        <ele>252.39999389648</ele>
        <time>2013-11-23T13:31:34.000Z</time>
      </trkpt>
      <trkpt lat="47.65008" lon="6.18317">
        <ele>252.60000610352</ele>
        <time>2013-11-23T13:31:35.000Z</time>
      </trkpt>
      <trkpt lat="47.65011" lon="6.18318">
        <ele>252.80000305176</ele>
        <time>2013-11-23T13:31:36.000Z</time>
      </trkpt>
      <trkpt lat="47.65015" lon="6.18319">
        <ele>253</ele>
        <time>2013-11-23T13:31:37.000Z</time>
      </trkpt>
      <trkpt lat="47.65029" lon="6.18323">
        <ele>253.60000610352</ele>
        <time>2013-11-23T13:31:41.000Z</time>
      </trkpt>
      <trkpt lat="47.65048" lon="6.18328">
        <ele>254.60000610352</ele>
        <time>2013-11-23T13:31:48.000Z</time>
      </trkpt>
      <trkpt lat="47.6506" lon="6.18335">
        <ele>255.19999694824</ele>
        <time>2013-11-23T13:31:54.000Z</time>
      </trkpt>
      <trkpt lat="47.65062" lon="6.18335">
        <ele>255.19999694824</ele>
        <time>2013-11-23T13:31:55.000Z</time>
      </trkpt>
      <trkpt lat="47.65063" lon="6.18337">
        <ele>255.39999389648</ele>
        <time>2013-11-23T13:31:56.000Z</time>
      </trkpt>
      <trkpt lat="47.65065" lon="6.18339">
        <ele>255.39999389648</ele>
        <time>2013-11-23T13:31:57.000Z</time>
      </trkpt>
      <trkpt lat="47.65067" lon="6.18341">
        <ele>255.60000610352</ele>
        <time>2013-11-23T13:31:58.000Z</time>
      </trkpt>
      <trkpt lat="47.65073" lon="6.18348">
        <ele>255.80000305176</ele>
        <time>2013-11-23T13:32:01.000Z</time>
      </trkpt>
      <trkpt lat="47.65086" lon="6.18363">
        <ele>256.39999389648</ele>
        <time>2013-11-23T13:32:08.000Z</time>
      </trkpt>
      <trkpt lat="47.651" lon="6.18373">
        <ele>256.79998779297</ele>
        <time>2013-11-23T13:32:15.000Z</time>
      </trkpt>
      <trkpt lat="47.65109" lon="6.18384">
        <ele>257.20001220703</ele>
        <time>2013-11-23T13:32:21.000Z</time>
      </trkpt>
      <trkpt lat="47.65111" lon="6.18386">
        <ele>257.20001220703</ele>
        <time>2013-11-23T13:32:22.000Z</time>
      </trkpt>
      <trkpt lat="47.65113" lon="6.18387">
        <ele>257.39999389648</ele>
        <time>2013-11-23T13:32:23.000Z</time>
      </trkpt>
      <trkpt lat="47.65114" lon="6.18389">
        <ele>257.39999389648</ele>
        <time>2013-11-23T13:32:24.000Z</time>
      </trkpt>
      <trkpt lat="47.65116" lon="6.18391">
        <ele>257.39999389648</ele>
        <time>2013-11-23T13:32:25.000Z</time>
      </trkpt>
      <trkpt lat="47.65121" lon="6.18396">
        <ele>257.60000610352</ele>
        <time>2013-11-23T13:32:28.000Z</time>
      </trkpt>
      <trkpt lat="47.65133" lon="6.18409">
        <ele>258.20001220703</ele>
        <time>2013-11-23T13:32:36.000Z</time>
      </trkpt>
      <trkpt lat="47.65141" lon="6.18413">
        <ele>258.39999389648</ele>
        <time>2013-11-23T13:32:40.000Z</time>
      </trkpt>
      <trkpt lat="47.65143" lon="6.18413">
        <ele>258.39999389648</ele>
        <time>2013-11-23T13:32:41.000Z</time>
      </trkpt>
      <trkpt lat="47.65144" lon="6.18414">
        <ele>258.39999389648</ele>
        <time>2013-11-23T13:32:42.000Z</time>
      </trkpt>
      <trkpt lat="47.65146" lon="6.18414">
        <ele>258.39999389648</ele>
        <time>2013-11-23T13:32:43.000Z</time>
      </trkpt>
      <trkpt lat="47.65147" lon="6.18415">
        <ele>258.60000610352</ele>
        <time>2013-11-23T13:32:44.000Z</time>
      </trkpt>
      <trkpt lat="47.65158" lon="6.18423">
        <ele>258.79998779297</ele>
        <time>2013-11-23T13:32:51.000Z</time>
      </trkpt>
      <trkpt lat="47.65167" lon="6.1843">
        <ele>259.20001220703</ele>
        <time>2013-11-23T13:32:57.000Z</time>
      </trkpt>
      <trkpt lat="47.65169" lon="6.18431">
        <ele>259.20001220703</ele>
        <time>2013-11-23T13:32:58.000Z</time>
      </trkpt>
      <trkpt lat="47.6517" lon="6.18432">
        <ele>259.20001220703</ele>
        <time>2013-11-23T13:32:59.000Z</time>
      </trkpt>
      <trkpt lat="47.65172" lon="6.18434">
        <ele>259.39999389648</ele>
        <time>2013-11-23T13:33:00.000Z</time>
      </trkpt>
      <trkpt lat="47.65172" lon="6.18436">
        <ele>259.39999389648</ele>
        <time>2013-11-23T13:33:01.000Z</time>
      </trkpt>
      <trkpt lat="47.65175" lon="6.18441">
        <ele>259.60000610352</ele>
        <time>2013-11-23T13:33:04.000Z</time>
      </trkpt>
      <trkpt lat="47.65177" lon="6.18443">
        <ele>259.60000610352</ele>
        <time>2013-11-23T13:33:06.000Z</time>
      </trkpt>
      <trkpt lat="47.65185" lon="6.18454">
        <ele>260</ele>
        <time>2013-11-23T13:33:13.000Z</time>
      </trkpt>
      <trkpt lat="47.65186" lon="6.18456">
        <ele>260</ele>
        <time>2013-11-23T13:33:14.000Z</time>
      </trkpt>
      <trkpt lat="47.65187" lon="6.18456">
        <ele>260</ele>
        <time>2013-11-23T13:33:15.000Z</time>
      </trkpt>
      <trkpt lat="47.65188" lon="6.18458">
        <ele>260.20001220703</ele>
        <time>2013-11-23T13:33:16.000Z</time>
      </trkpt>
      <trkpt lat="47.6519" lon="6.18459">
        <ele>260.20001220703</ele>
        <time>2013-11-23T13:33:17.000Z</time>
      </trkpt>
      <trkpt lat="47.65195" lon="6.18467">
        <ele>260.39999389648</ele>
        <time>2013-11-23T13:33:22.000Z</time>
      </trkpt>
      <trkpt lat="47.65202" lon="6.18479">
        <ele>261</ele>
        <time>2013-11-23T13:33:30.000Z</time>
      </trkpt>
      <trkpt lat="47.65203" lon="6.18481">
        <ele>261</ele>
        <time>2013-11-23T13:33:31.000Z</time>
      </trkpt>
      <trkpt lat="47.65204" lon="6.18482">
        <ele>261</ele>
        <time>2013-11-23T13:33:32.000Z</time>
      </trkpt>
      <trkpt lat="47.65205" lon="6.18483">
        <ele>261.20001220703</ele>
        <time>2013-11-23T13:33:33.000Z</time>
      </trkpt>
      <trkpt lat="47.65206" lon="6.18485">
        <ele>261.20001220703</ele>
        <time>2013-11-23T13:33:34.000Z</time>
      </trkpt>
      <trkpt lat="47.65207" lon="6.18486">
        <ele>261.20001220703</ele>
        <time>2013-11-23T13:33:35.000Z</time>
      </trkpt>
      <trkpt lat="47.65208" lon="6.1849">
        <ele>261.39999389648</ele>
        <time>2013-11-23T13:33:37.000Z</time>
      </trkpt>
      <trkpt lat="47.65215" lon="6.18502">
        <ele>261.79998779297</ele>
        <time>2013-11-23T13:33:45.000Z</time>
      </trkpt>
      <trkpt lat="47.65215" lon="6.18504">
        <ele>261.79998779297</ele>
        <time>2013-11-23T13:33:46.000Z</time>
      </trkpt>
      <trkpt lat="47.65216" lon="6.18505">
        <ele>262</ele>
        <time>2013-11-23T13:33:47.000Z</time>
      </trkpt>
      <trkpt lat="47.65217" lon="6.18507">
        <ele>262</ele>
        <time>2013-11-23T13:33:48.000Z</time>
      </trkpt>
      <trkpt lat="47.65218" lon="6.18509">
        <ele>262</ele>
        <time>2013-11-23T13:33:49.000Z</time>
      </trkpt>
      <trkpt lat="47.65219" lon="6.1851">
        <ele>262.20001220703</ele>
        <time>2013-11-23T13:33:50.000Z</time>
      </trkpt>
      <trkpt lat="47.65221" lon="6.18513">
        <ele>262.20001220703</ele>
        <time>2013-11-23T13:33:52.000Z</time>
      </trkpt>
      <trkpt lat="47.65226" lon="6.18524">
        <ele>262.79998779297</ele>
        <time>2013-11-23T13:33:59.000Z</time>
      </trkpt>
      <trkpt lat="47.65227" lon="6.18526">
        <ele>262.79998779297</ele>
        <time>2013-11-23T13:34:00.000Z</time>
      </trkpt>
      <trkpt lat="47.65227" lon="6.18528">
        <ele>262.79998779297</ele>
        <time>2013-11-23T13:34:01.000Z</time>
      </trkpt>
      <trkpt lat="47.65228" lon="6.18529">
        <ele>263</ele>
        <time>2013-11-23T13:34:02.000Z</time>
      </trkpt>
      <trkpt lat="47.65229" lon="6.18531">
        <ele>263</ele>
        <time>2013-11-23T13:34:03.000Z</time>
      </trkpt>
      <trkpt lat="47.65232" lon="6.18538">
        <ele>263.20001220703</ele>
        <time>2013-11-23T13:34:07.000Z</time>
      </trkpt>
      <trkpt lat="47.65232" lon="6.18541">
        <ele>263.39999389648</ele>
        <time>2013-11-23T13:34:09.000Z</time>
      </trkpt>
      <trkpt lat="47.65235" lon="6.18549">
        <ele>263.60000610352</ele>
        <time>2013-11-23T13:34:13.000Z</time>
      </trkpt>
      <trkpt lat="47.65236" lon="6.18551">
        <ele>263.79998779297</ele>
        <time>2013-11-23T13:34:14.000Z</time>
      </trkpt>
      <trkpt lat="47.65237" lon="6.18553">
        <ele>263.79998779297</ele>
        <time>2013-11-23T13:34:15.000Z</time>
      </trkpt>
      <trkpt lat="47.65238" lon="6.18555">
        <ele>263.79998779297</ele>
        <time>2013-11-23T13:34:16.000Z</time>
      </trkpt>
      <trkpt lat="47.65239" lon="6.18556">
        <ele>264</ele>
        <time>2013-11-23T13:34:17.000Z</time>
      </trkpt>
      <trkpt lat="47.65243" lon="6.18561">
        <ele>264.20001220703</ele>
        <time>2013-11-23T13:34:20.000Z</time>
      </trkpt>
      <trkpt lat="47.65247" lon="6.1857">
        <ele>264.60000610352</ele>
        <time>2013-11-23T13:34:25.000Z</time>
      </trkpt>
      <trkpt lat="47.65248" lon="6.18573">
        <ele>264.60000610352</ele>
        <time>2013-11-23T13:34:26.000Z</time>
      </trkpt>
      <trkpt lat="47.65249" lon="6.18575">
        <ele>264.79998779297</ele>
        <time>2013-11-23T13:34:27.000Z</time>
      </trkpt>
      <trkpt lat="47.6525" lon="6.18576">
        <ele>264.79998779297</ele>
        <time>2013-11-23T13:34:28.000Z</time>
      </trkpt>
      <trkpt lat="47.65252" lon="6.18578">
        <ele>265</ele>
        <time>2013-11-23T13:34:29.000Z</time>
      </trkpt>
      <trkpt lat="47.65256" lon="6.18587">
        <ele>265.20001220703</ele>
        <time>2013-11-23T13:34:34.000Z</time>
      </trkpt>
      <trkpt lat="47.65263" lon="6.18598">
        <ele>265.60000610352</ele>
        <time>2013-11-23T13:34:40.000Z</time>
      </trkpt>
      <trkpt lat="47.65269" lon="6.18608">
        <ele>265.79998779297</ele>
        <time>2013-11-23T13:34:45.000Z</time>
      </trkpt>
      <trkpt lat="47.6527" lon="6.1861">
        <ele>265.79998779297</ele>
        <time>2013-11-23T13:34:46.000Z</time>
      </trkpt>
      <trkpt lat="47.65271" lon="6.18612">
        <ele>266</ele>
        <time>2013-11-23T13:34:47.000Z</time>
      </trkpt>
      <trkpt lat="47.65272" lon="6.18613">
        <ele>266</ele>
        <time>2013-11-23T13:34:48.000Z</time>
      </trkpt>
      <trkpt lat="47.65273" lon="6.18615">
        <ele>266</ele>
        <time>2013-11-23T13:34:49.000Z</time>
      </trkpt>
      <trkpt lat="47.65279" lon="6.18624">
        <ele>266.39999389648</ele>
        <time>2013-11-23T13:34:55.000Z</time>
      </trkpt>
      <trkpt lat="47.65285" lon="6.18633">
        <ele>266.79998779297</ele>
        <time>2013-11-23T13:35:01.000Z</time>
      </trkpt>
      <trkpt lat="47.65286" lon="6.18634">
        <ele>266.79998779297</ele>
        <time>2013-11-23T13:35:02.000Z</time>
      </trkpt>
      <trkpt lat="47.65287" lon="6.18635">
        <ele>266.79998779297</ele>
        <time>2013-11-23T13:35:03.000Z</time>
      </trkpt>
      <trkpt lat="47.65288" lon="6.18637">
        <ele>267</ele>
        <time>2013-11-23T13:35:04.000Z</time>
      </trkpt>
      <trkpt lat="47.65289" lon="6.18638">
        <ele>267</ele>
        <time>2013-11-23T13:35:05.000Z</time>
      </trkpt>
      <trkpt lat="47.65292" lon="6.18642">
        <ele>267.20001220703</ele>
        <time>2013-11-23T13:35:08.000Z</time>
      </trkpt>
      <trkpt lat="47.65294" lon="6.18645">
        <ele>267.39999389648</ele>
        <time>2013-11-23T13:35:10.000Z</time>
      </trkpt>
      <trkpt lat="47.65303" lon="6.18657">
        <ele>268</ele>
        <time>2013-11-23T13:35:18.000Z</time>
      </trkpt>
      <trkpt lat="47.65305" lon="6.1866">
        <ele>268.20001220703</ele>
        <time>2013-11-23T13:35:20.000Z</time>
      </trkpt>
      <trkpt lat="47.65307" lon="6.18661">
        <ele>268.39999389648</ele>
        <time>2013-11-23T13:35:21.000Z</time>
      </trkpt>
      <trkpt lat="47.65308" lon="6.18662">
        <ele>268.39999389648</ele>
        <time>2013-11-23T13:35:22.000Z</time>
      </trkpt>
      <trkpt lat="47.65309" lon="6.18663">
        <ele>268.39999389648</ele>
        <time>2013-11-23T13:35:23.000Z</time>
      </trkpt>
      <trkpt lat="47.6531" lon="6.18664">
        <ele>268.60000610352</ele>
        <time>2013-11-23T13:35:24.000Z</time>
      </trkpt>
      <trkpt lat="47.65313" lon="6.18671">
        <ele>268.79998779297</ele>
        <time>2013-11-23T13:35:28.000Z</time>
      </trkpt>
      <trkpt lat="47.65322" lon="6.18676">
        <ele>269.39999389648</ele>
        <time>2013-11-23T13:35:34.000Z</time>
      </trkpt>
      <trkpt lat="47.65328" lon="6.18673">
        <ele>269.79998779297</ele>
        <time>2013-11-23T13:35:39.000Z</time>
      </trkpt>
      <trkpt lat="47.65329" lon="6.18672">
        <ele>269.79998779297</ele>
        <time>2013-11-23T13:35:40.000Z</time>
      </trkpt>
      <trkpt lat="47.65329" lon="6.18671">
        <ele>269.79998779297</ele>
        <time>2013-11-23T13:35:41.000Z</time>
      </trkpt>
      <trkpt lat="47.65329" lon="6.1867">
        <ele>269.79998779297</ele>
        <time>2013-11-23T13:35:42.000Z</time>
      </trkpt>
      <trkpt lat="47.65329" lon="6.1867">
        <ele>269.79998779297</ele>
        <time>2013-11-23T13:35:43.000Z</time>
      </trkpt>
      <trkpt lat="47.65332" lon="6.18663">
        <ele>269.79998779297</ele>
        <time>2013-11-23T13:36:14.000Z</time>
      </trkpt>
      <trkpt lat="47.65332" lon="6.18662">
        <ele>269.79998779297</ele>
        <time>2013-11-23T13:36:15.000Z</time>
      </trkpt>
      <trkpt lat="47.65334" lon="6.1866">
        <ele>269.79998779297</ele>
        <time>2013-11-23T13:36:17.000Z</time>
      </trkpt>
      <trkpt lat="47.65335" lon="6.18659">
        <ele>269.79998779297</ele>
        <time>2013-11-23T13:36:18.000Z</time>
      </trkpt>
      <trkpt lat="47.65336" lon="6.18657">
        <ele>269.79998779297</ele>
        <time>2013-11-23T13:36:19.000Z</time>
      </trkpt>
      <trkpt lat="47.65337" lon="6.18655">
        <ele>270</ele>
        <time>2013-11-23T13:36:20.000Z</time>
      </trkpt>
      <trkpt lat="47.65339" lon="6.18653">
        <ele>270</ele>
        <time>2013-11-23T13:36:21.000Z</time>
      </trkpt>
      <trkpt lat="47.65346" lon="6.18643">
        <ele>270</ele>
        <time>2013-11-23T13:36:26.000Z</time>
      </trkpt>
      <trkpt lat="47.65348" lon="6.1864">
        <ele>270</ele>
        <time>2013-11-23T13:36:27.000Z</time>
      </trkpt>
      <trkpt lat="47.65351" lon="6.18638">
        <ele>270.20001220703</ele>
        <time>2013-11-23T13:36:28.000Z</time>
      </trkpt>
      <trkpt lat="47.65353" lon="6.18635">
        <ele>270.20001220703</ele>
        <time>2013-11-23T13:36:29.000Z</time>
      </trkpt>
      <trkpt lat="47.65356" lon="6.18632">
        <ele>270.20001220703</ele>
        <time>2013-11-23T13:36:30.000Z</time>
      </trkpt>
      <trkpt lat="47.65362" lon="6.18624">
        <ele>270.39999389648</ele>
        <time>2013-11-23T13:36:32.000Z</time>
      </trkpt>
      <trkpt lat="47.65364" lon="6.1862">
        <ele>270.39999389648</ele>
        <time>2013-11-23T13:36:33.000Z</time>
      </trkpt>
      <trkpt lat="47.65367" lon="6.18616">
        <ele>270.39999389648</ele>
        <time>2013-11-23T13:36:34.000Z</time>
      </trkpt>
      <trkpt lat="47.6537" lon="6.18612">
        <ele>270.39999389648</ele>
        <time>2013-11-23T13:36:35.000Z</time>
      </trkpt>
      <trkpt lat="47.65374" lon="6.18604">
        <ele>270.39999389648</ele>
        <time>2013-11-23T13:36:37.000Z</time>
      </trkpt>
      <trkpt lat="47.65377" lon="6.18601">
        <ele>270.39999389648</ele>
        <time>2013-11-23T13:36:38.000Z</time>
      </trkpt>
      <trkpt lat="47.65379" lon="6.18597">
        <ele>270.60000610352</ele>
        <time>2013-11-23T13:36:39.000Z</time>
      </trkpt>
      <trkpt lat="47.65381" lon="6.18594">
        <ele>270.60000610352</ele>
        <time>2013-11-23T13:36:40.000Z</time>
      </trkpt>
      <trkpt lat="47.65383" lon="6.18591">
        <ele>270.60000610352</ele>
        <time>2013-11-23T13:36:41.000Z</time>
      </trkpt>
      <trkpt lat="47.65392" lon="6.18577">
        <ele>270.39999389648</ele>
        <time>2013-11-23T13:36:46.000Z</time>
      </trkpt>
      <trkpt lat="47.65394" lon="6.18574">
        <ele>270.39999389648</ele>
        <time>2013-11-23T13:36:47.000Z</time>
      </trkpt>
      <trkpt lat="47.65396" lon="6.18571">
        <ele>270.20001220703</ele>
        <time>2013-11-23T13:36:48.000Z</time>
      </trkpt>
      <trkpt lat="47.65397" lon="6.18569">
        <ele>270.20001220703</ele>
        <time>2013-11-23T13:36:49.000Z</time>
      </trkpt>
      <trkpt lat="47.65399" lon="6.18567">
        <ele>270.20001220703</ele>
        <time>2013-11-23T13:36:50.000Z</time>
      </trkpt>
      <trkpt lat="47.65401" lon="6.18565">
        <ele>270.20001220703</ele>
        <time>2013-11-23T13:36:51.000Z</time>
      </trkpt>
      <trkpt lat="47.65405" lon="6.18561">
        <ele>270.20001220703</ele>
        <time>2013-11-23T13:36:53.000Z</time>
      </trkpt>
      <trkpt lat="47.65412" lon="6.18549">
        <ele>269.79998779297</ele>
        <time>2013-11-23T13:36:58.000Z</time>
      </trkpt>
      <trkpt lat="47.65413" lon="6.18547">
        <ele>269.60000610352</ele>
        <time>2013-11-23T13:36:59.000Z</time>
      </trkpt>
      <trkpt lat="47.65415" lon="6.18545">
        <ele>269.60000610352</ele>
        <time>2013-11-23T13:37:00.000Z</time>
      </trkpt>
      <trkpt lat="47.65416" lon="6.18542">
        <ele>269.60000610352</ele>
        <time>2013-11-23T13:37:01.000Z</time>
      </trkpt>
      <trkpt lat="47.65424" lon="6.18528">
        <ele>269.20001220703</ele>
        <time>2013-11-23T13:37:07.000Z</time>
      </trkpt>
      <trkpt lat="47.65427" lon="6.18523">
        <ele>269</ele>
        <time>2013-11-23T13:37:09.000Z</time>
      </trkpt>
      <trkpt lat="47.65429" lon="6.1852">
        <ele>269</ele>
        <time>2013-11-23T13:37:10.000Z</time>
      </trkpt>
      <trkpt lat="47.6543" lon="6.18518">
        <ele>269</ele>
        <time>2013-11-23T13:37:11.000Z</time>
      </trkpt>
      <trkpt lat="47.65432" lon="6.18515">
        <ele>269</ele>
        <time>2013-11-23T13:37:12.000Z</time>
      </trkpt>
      <trkpt lat="47.65434" lon="6.18513">
        <ele>269</ele>
        <time>2013-11-23T13:37:13.000Z</time>
      </trkpt>
      <trkpt lat="47.65435" lon="6.18511">
        <ele>269</ele>
        <time>2013-11-23T13:37:14.000Z</time>
      </trkpt>
      <trkpt lat="47.65443" lon="6.18498">
        <ele>268.79998779297</ele>
        <time>2013-11-23T13:37:19.000Z</time>
      </trkpt>
      <trkpt lat="47.65444" lon="6.18496">
        <ele>268.79998779297</ele>
        <time>2013-11-23T13:37:20.000Z</time>
      </trkpt>
      <trkpt lat="47.65446" lon="6.18494">
        <ele>268.79998779297</ele>
        <time>2013-11-23T13:37:21.000Z</time>
      </trkpt>
      <trkpt lat="47.65447" lon="6.18492">
        <ele>268.79998779297</ele>
        <time>2013-11-23T13:37:22.000Z</time>
      </trkpt>
      <trkpt lat="47.65455" lon="6.18482">
        <ele>268.79998779297</ele>
        <time>2013-11-23T13:37:28.000Z</time>
      </trkpt>
      <trkpt lat="47.6546" lon="6.18479">
        <ele>269</ele>
        <time>2013-11-23T13:37:31.000Z</time>
      </trkpt>
      <trkpt lat="47.65462" lon="6.18478">
        <ele>269</ele>
        <time>2013-11-23T13:37:32.000Z</time>
      </trkpt>
      <trkpt lat="47.65464" lon="6.18476">
        <ele>269</ele>
        <time>2013-11-23T13:37:33.000Z</time>
      </trkpt>
      <trkpt lat="47.65465" lon="6.18475">
        <ele>269</ele>
        <time>2013-11-23T13:37:34.000Z</time>
      </trkpt>
      <trkpt lat="47.65467" lon="6.18474">
        <ele>269.20001220703</ele>
        <time>2013-11-23T13:37:35.000Z</time>
      </trkpt>
      <trkpt lat="47.65476" lon="6.18468">
        <ele>269.20001220703</ele>
        <time>2013-11-23T13:37:41.000Z</time>
      </trkpt>
      <trkpt lat="47.65483" lon="6.18463">
        <ele>269.39999389648</ele>
        <time>2013-11-23T13:37:45.000Z</time>
      </trkpt>
      <trkpt lat="47.65485" lon="6.18462">
        <ele>269.39999389648</ele>
        <time>2013-11-23T13:37:46.000Z</time>
      </trkpt>
      <trkpt lat="47.65487" lon="6.1846">
        <ele>269.39999389648</ele>
        <time>2013-11-23T13:37:47.000Z</time>
      </trkpt>
      <trkpt lat="47.65488" lon="6.18459">
        <ele>269.39999389648</ele>
        <time>2013-11-23T13:37:48.000Z</time>
      </trkpt>
      <trkpt lat="47.655" lon="6.1845">
        <ele>269.39999389648</ele>
        <time>2013-11-23T13:37:54.000Z</time>
      </trkpt>
      <trkpt lat="47.65514" lon="6.18436">
        <ele>269.60000610352</ele>
        <time>2013-11-23T13:38:00.000Z</time>
      </trkpt>
      <trkpt lat="47.65527" lon="6.18427">
        <ele>270</ele>
        <time>2013-11-23T13:38:06.000Z</time>
      </trkpt>
      <trkpt lat="47.65531" lon="6.18426">
        <ele>270.20001220703</ele>
        <time>2013-11-23T13:38:08.000Z</time>
      </trkpt>
      <trkpt lat="47.65534" lon="6.18425">
        <ele>270.39999389648</ele>
        <time>2013-11-23T13:38:09.000Z</time>
      </trkpt>
      <trkpt lat="47.65537" lon="6.18424">
        <ele>270.60000610352</ele>
        <time>2013-11-23T13:38:10.000Z</time>
      </trkpt>
      <trkpt lat="47.65539" lon="6.18424">
        <ele>270.79998779297</ele>
        <time>2013-11-23T13:38:11.000Z</time>
      </trkpt>
      <trkpt lat="47.65541" lon="6.18424">
        <ele>271</ele>
        <time>2013-11-23T13:38:12.000Z</time>
      </trkpt>
      <trkpt lat="47.65551" lon="6.18423">
        <ele>271.79998779297</ele>
        <time>2013-11-23T13:38:17.000Z</time>
      </trkpt>
      <trkpt lat="47.65564" lon="6.18417">
        <ele>272.39999389648</ele>
        <time>2013-11-23T13:38:23.000Z</time>
      </trkpt>
      <trkpt lat="47.65571" lon="6.18414">
        <ele>272.60000610352</ele>
        <time>2013-11-23T13:38:26.000Z</time>
      </trkpt>
      <trkpt lat="47.65574" lon="6.18413">
        <ele>272.60000610352</ele>
        <time>2013-11-23T13:38:27.000Z</time>
      </trkpt>
      <trkpt lat="47.65576" lon="6.18412">
        <ele>272.60000610352</ele>
        <time>2013-11-23T13:38:28.000Z</time>
      </trkpt>
      <trkpt lat="47.65578" lon="6.18411">
        <ele>272.60000610352</ele>
        <time>2013-11-23T13:38:29.000Z</time>
      </trkpt>
      <trkpt lat="47.6558" lon="6.18411">
        <ele>272.79998779297</ele>
        <time>2013-11-23T13:38:30.000Z</time>
      </trkpt>
      <trkpt lat="47.65585" lon="6.18408">
        <ele>272.79998779297</ele>
        <time>2013-11-23T13:38:33.000Z</time>
      </trkpt>
      <trkpt lat="47.65592" lon="6.18404">
        <ele>272.60000610352</ele>
        <time>2013-11-23T13:38:36.000Z</time>
      </trkpt>
      <trkpt lat="47.65597" lon="6.18401">
        <ele>272.39999389648</ele>
        <time>2013-11-23T13:38:38.000Z</time>
      </trkpt>
      <trkpt lat="47.65603" lon="6.18397">
        <ele>272.20001220703</ele>
        <time>2013-11-23T13:38:40.000Z</time>
      </trkpt>
      <trkpt lat="47.65605" lon="6.18395">
        <ele>272</ele>
        <time>2013-11-23T13:38:41.000Z</time>
      </trkpt>
      <trkpt lat="47.65608" lon="6.18393">
        <ele>271.79998779297</ele>
        <time>2013-11-23T13:38:42.000Z</time>
      </trkpt>
      <trkpt lat="47.65611" lon="6.18391">
        <ele>271.79998779297</ele>
        <time>2013-11-23T13:38:43.000Z</time>
      </trkpt>
      <trkpt lat="47.65613" lon="6.1839">
        <ele>271.79998779297</ele>
        <time>2013-11-23T13:38:44.000Z</time>
      </trkpt>
      <trkpt lat="47.65627" lon="6.18383">
        <ele>271.60000610352</ele>
        <time>2013-11-23T13:38:50.000Z</time>
      </trkpt>
      <trkpt lat="47.65635" lon="6.18379">
        <ele>271.60000610352</ele>
        <time>2013-11-23T13:38:54.000Z</time>
      </trkpt>
      <trkpt lat="47.65636" lon="6.18379">
        <ele>271.60000610352</ele>
        <time>2013-11-23T13:38:55.000Z</time>
      </trkpt>
      <trkpt lat="47.65637" lon="6.18379">
        <ele>271.60000610352</ele>
        <time>2013-11-23T13:38:56.000Z</time>
      </trkpt>
      <trkpt lat="47.65638" lon="6.18379">
        <ele>271.60000610352</ele>
        <time>2013-11-23T13:38:57.000Z</time>
      </trkpt>
      <trkpt lat="47.65638" lon="6.18379">
        <ele>271.79998779297</ele>
        <time>2013-11-23T13:38:58.000Z</time>
      </trkpt>
      <trkpt lat="47.65639" lon="6.1838">
        <ele>271.79998779297</ele>
        <time>2013-11-23T13:38:59.000Z</time>
      </trkpt>
      <trkpt lat="47.65639" lon="6.1838">
        <ele>272</ele>
        <time>2013-11-23T13:39:00.000Z</time>
      </trkpt>
      <trkpt lat="47.6564" lon="6.1838">
        <ele>272</ele>
        <time>2013-11-23T13:39:01.000Z</time>
      </trkpt>
      <trkpt lat="47.65642" lon="6.18379">
        <ele>272</ele>
        <time>2013-11-23T13:39:02.000Z</time>
      </trkpt>
      <trkpt lat="47.65643" lon="6.18379">
        <ele>272</ele>
        <time>2013-11-23T13:39:03.000Z</time>
      </trkpt>
      <trkpt lat="47.65645" lon="6.1838">
        <ele>272.20001220703</ele>
        <time>2013-11-23T13:39:04.000Z</time>
      </trkpt>
      <trkpt lat="47.6565" lon="6.18383">
        <ele>273</ele>
        <time>2013-11-23T13:39:08.000Z</time>
      </trkpt>
      <trkpt lat="47.65653" lon="6.18383">
        <ele>273.20001220703</ele>
        <time>2013-11-23T13:39:10.000Z</time>
      </trkpt>
      <trkpt lat="47.65659" lon="6.18384">
        <ele>273.79998779297</ele>
        <time>2013-11-23T13:39:13.000Z</time>
      </trkpt>
      <trkpt lat="47.65666" lon="6.18384">
        <ele>274.20001220703</ele>
        <time>2013-11-23T13:39:16.000Z</time>
      </trkpt>
      <trkpt lat="47.65668" lon="6.18383">
        <ele>274.20001220703</ele>
        <time>2013-11-23T13:39:17.000Z</time>
      </trkpt>
      <trkpt lat="47.65671" lon="6.18383">
        <ele>274.20001220703</ele>
        <time>2013-11-23T13:39:18.000Z</time>
      </trkpt>
      <trkpt lat="47.65673" lon="6.18383">
        <ele>274.20001220703</ele>
        <time>2013-11-23T13:39:19.000Z</time>
      </trkpt>
      <trkpt lat="47.65675" lon="6.18383">
        <ele>274.20001220703</ele>
        <time>2013-11-23T13:39:20.000Z</time>
      </trkpt>
      <trkpt lat="47.65679" lon="6.18383">
        <ele>274.20001220703</ele>
        <time>2013-11-23T13:39:23.000Z</time>
      </trkpt>
      <trkpt lat="47.65686" lon="6.18382">
        <ele>274</ele>
        <time>2013-11-23T13:39:28.000Z</time>
      </trkpt>
      <trkpt lat="47.65687" lon="6.18381">
        <ele>274</ele>
        <time>2013-11-23T13:39:29.000Z</time>
      </trkpt>
      <trkpt lat="47.65689" lon="6.1838">
        <ele>273.79998779297</ele>
        <time>2013-11-23T13:39:30.000Z</time>
      </trkpt>
      <trkpt lat="47.6569" lon="6.1838">
        <ele>273.79998779297</ele>
        <time>2013-11-23T13:39:31.000Z</time>
      </trkpt>
      <trkpt lat="47.65692" lon="6.18379">
        <ele>273.60000610352</ele>
        <time>2013-11-23T13:39:32.000Z</time>
      </trkpt>
      <trkpt lat="47.65693" lon="6.18378">
        <ele>273.60000610352</ele>
        <time>2013-11-23T13:39:33.000Z</time>
      </trkpt>
      <trkpt lat="47.65699" lon="6.18374">
        <ele>273</ele>
        <time>2013-11-23T13:39:38.000Z</time>
      </trkpt>
      <trkpt lat="47.657" lon="6.18374">
        <ele>273</ele>
        <time>2013-11-23T13:39:39.000Z</time>
      </trkpt>
      <trkpt lat="47.65703" lon="6.18369">
        <ele>272.60000610352</ele>
        <time>2013-11-23T13:39:43.000Z</time>
      </trkpt>
      <trkpt lat="47.65705" lon="6.18367">
        <ele>272.39999389648</ele>
        <time>2013-11-23T13:39:44.000Z</time>
      </trkpt>
      <trkpt lat="47.65707" lon="6.18364">
        <ele>272</ele>
        <time>2013-11-23T13:39:45.000Z</time>
      </trkpt>
      <trkpt lat="47.65709" lon="6.18361">
        <ele>271.60000610352</ele>
        <time>2013-11-23T13:39:46.000Z</time>
      </trkpt>
      <trkpt lat="47.65711" lon="6.18357">
        <ele>271.20001220703</ele>
        <time>2013-11-23T13:39:47.000Z</time>
      </trkpt>
      <trkpt lat="47.65713" lon="6.18353">
        <ele>270.79998779297</ele>
        <time>2013-11-23T13:39:48.000Z</time>
      </trkpt>
      <trkpt lat="47.65715" lon="6.1835">
        <ele>270.60000610352</ele>
        <time>2013-11-23T13:39:49.000Z</time>
      </trkpt>
      <trkpt lat="47.65718" lon="6.18345">
        <ele>270.20001220703</ele>
        <time>2013-11-23T13:39:50.000Z</time>
      </trkpt>
      <trkpt lat="47.6572" lon="6.18342">
        <ele>269.79998779297</ele>
        <time>2013-11-23T13:39:51.000Z</time>
      </trkpt>
      <trkpt lat="47.65722" lon="6.18339">
        <ele>269.60000610352</ele>
        <time>2013-11-23T13:39:52.000Z</time>
      </trkpt>
      <trkpt lat="47.65724" lon="6.18336">
        <ele>269.39999389648</ele>
        <time>2013-11-23T13:39:53.000Z</time>
      </trkpt>
      <trkpt lat="47.65726" lon="6.18333">
        <ele>269</ele>
        <time>2013-11-23T13:39:54.000Z</time>
      </trkpt>
      <trkpt lat="47.65728" lon="6.1833">
        <ele>268.79998779297</ele>
        <time>2013-11-23T13:39:55.000Z</time>
      </trkpt>
      <trkpt lat="47.6573" lon="6.18326">
        <ele>268.60000610352</ele>
        <time>2013-11-23T13:39:56.000Z</time>
      </trkpt>
      <trkpt lat="47.65732" lon="6.18324">
        <ele>268.39999389648</ele>
        <time>2013-11-23T13:39:57.000Z</time>
      </trkpt>
      <trkpt lat="47.65734" lon="6.18321">
        <ele>268.20001220703</ele>
        <time>2013-11-23T13:39:58.000Z</time>
      </trkpt>
      <trkpt lat="47.65736" lon="6.18319">
        <ele>268</ele>
        <time>2013-11-23T13:39:59.000Z</time>
      </trkpt>
      <trkpt lat="47.6574" lon="6.18315">
        <ele>267.79998779297</ele>
        <time>2013-11-23T13:40:01.000Z</time>
      </trkpt>
      <trkpt lat="47.65744" lon="6.18311">
        <ele>267.79998779297</ele>
        <time>2013-11-23T13:40:06.000Z</time>
      </trkpt>
      <trkpt lat="47.65745" lon="6.1831">
        <ele>267.79998779297</ele>
        <time>2013-11-23T13:40:07.000Z</time>
      </trkpt>
      <trkpt lat="47.65746" lon="6.18309">
        <ele>267.60000610352</ele>
        <time>2013-11-23T13:40:08.000Z</time>
      </trkpt>
      <trkpt lat="47.65747" lon="6.18308">
        <ele>267.60000610352</ele>
        <time>2013-11-23T13:40:09.000Z</time>
      </trkpt>
      <trkpt lat="47.65748" lon="6.18307">
        <ele>267.60000610352</ele>
        <time>2013-11-23T13:40:10.000Z</time>
      </trkpt>
      <trkpt lat="47.65749" lon="6.18305">
        <ele>267.60000610352</ele>
        <time>2013-11-23T13:40:11.000Z</time>
      </trkpt>
      <trkpt lat="47.65754" lon="6.18301">
        <ele>267.39999389648</ele>
        <time>2013-11-23T13:40:15.000Z</time>
      </trkpt>
      <trkpt lat="47.65757" lon="6.18299">
        <ele>267.20001220703</ele>
        <time>2013-11-23T13:40:17.000Z</time>
      </trkpt>
      <trkpt lat="47.65759" lon="6.18297">
        <ele>267</ele>
        <time>2013-11-23T13:40:18.000Z</time>
      </trkpt>
      <trkpt lat="47.65761" lon="6.18295">
        <ele>267</ele>
        <time>2013-11-23T13:40:19.000Z</time>
      </trkpt>
      <trkpt lat="47.65762" lon="6.18294">
        <ele>266.79998779297</ele>
        <time>2013-11-23T13:40:20.000Z</time>
      </trkpt>
      <trkpt lat="47.65764" lon="6.18293">
        <ele>266.79998779297</ele>
        <time>2013-11-23T13:40:21.000Z</time>
      </trkpt>
      <trkpt lat="47.65765" lon="6.18292">
        <ele>266.60000610352</ele>
        <time>2013-11-23T13:40:22.000Z</time>
      </trkpt>
      <trkpt lat="47.65771" lon="6.18283">
        <ele>266</ele>
        <time>2013-11-23T13:40:27.000Z</time>
      </trkpt>
      <trkpt lat="47.6578" lon="6.18279">
        <ele>265.79998779297</ele>
        <time>2013-11-23T13:40:32.000Z</time>
      </trkpt>
      <trkpt lat="47.65782" lon="6.18278">
        <ele>265.79998779297</ele>
        <time>2013-11-23T13:40:34.000Z</time>
      </trkpt>
      <trkpt lat="47.65783" lon="6.18277">
        <ele>265.79998779297</ele>
        <time>2013-11-23T13:40:35.000Z</time>
      </trkpt>
      <trkpt lat="47.65785" lon="6.18276">
        <ele>265.79998779297</ele>
        <time>2013-11-23T13:40:36.000Z</time>
      </trkpt>
      <trkpt lat="47.65787" lon="6.18275">
        <ele>265.60000610352</ele>
        <time>2013-11-23T13:40:37.000Z</time>
      </trkpt>
      <trkpt lat="47.65788" lon="6.18274">
        <ele>265.60000610352</ele>
        <time>2013-11-23T13:40:38.000Z</time>
      </trkpt>
      <trkpt lat="47.65793" lon="6.18271">
        <ele>265.60000610352</ele>
        <time>2013-11-23T13:40:41.000Z</time>
      </trkpt>
      <trkpt lat="47.65797" lon="6.18267">
        <ele>265.39999389648</ele>
        <time>2013-11-23T13:40:44.000Z</time>
      </trkpt>
      <trkpt lat="47.65806" lon="6.18262">
        <ele>265.20001220703</ele>
        <time>2013-11-23T13:40:49.000Z</time>
      </trkpt>
      <trkpt lat="47.65808" lon="6.18261">
        <ele>265.20001220703</ele>
        <time>2013-11-23T13:40:50.000Z</time>
      </trkpt>
      <trkpt lat="47.6581" lon="6.1826">
        <ele>265</ele>
        <time>2013-11-23T13:40:51.000Z</time>
      </trkpt>
      <trkpt lat="47.65811" lon="6.18259">
        <ele>265</ele>
        <time>2013-11-23T13:40:52.000Z</time>
      </trkpt>
      <trkpt lat="47.65812" lon="6.18259">
        <ele>265</ele>
        <time>2013-11-23T13:40:53.000Z</time>
      </trkpt>
      <trkpt lat="47.65817" lon="6.18256">
        <ele>265</ele>
        <time>2013-11-23T13:40:56.000Z</time>
      </trkpt>
      <trkpt lat="47.65828" lon="6.18249">
        <ele>264.79998779297</ele>
        <time>2013-11-23T13:41:02.000Z</time>
      </trkpt>
      <trkpt lat="47.6583" lon="6.18248">
        <ele>264.79998779297</ele>
        <time>2013-11-23T13:41:03.000Z</time>
      </trkpt>
      <trkpt lat="47.65831" lon="6.18247">
        <ele>264.79998779297</ele>
        <time>2013-11-23T13:41:04.000Z</time>
      </trkpt>
      <trkpt lat="47.65833" lon="6.18245">
        <ele>264.79998779297</ele>
        <time>2013-11-23T13:41:05.000Z</time>
      </trkpt>
      <trkpt lat="47.6584" lon="6.1824">
        <ele>264.60000610352</ele>
        <time>2013-11-23T13:41:09.000Z</time>
      </trkpt>
      <trkpt lat="47.65851" lon="6.18233">
        <ele>264.60000610352</ele>
        <time>2013-11-23T13:41:15.000Z</time>
      </trkpt>
      <trkpt lat="47.65852" lon="6.18232">
        <ele>264.39999389648</ele>
        <time>2013-11-23T13:41:16.000Z</time>
      </trkpt>
      <trkpt lat="47.65853" lon="6.1823">
        <ele>264.39999389648</ele>
        <time>2013-11-23T13:41:17.000Z</time>
      </trkpt>
      <trkpt lat="47.65853" lon="6.18229">
        <ele>264.39999389648</ele>
        <time>2013-11-23T13:41:18.000Z</time>
      </trkpt>
      <trkpt lat="47.65853" lon="6.18229">
        <ele>264.39999389648</ele>
        <time>2013-11-23T13:41:19.000Z</time>
      </trkpt>
      <trkpt lat="47.65853" lon="6.18226">
        <ele>264.20001220703</ele>
        <time>2013-11-23T13:41:29.000Z</time>
      </trkpt>
      <trkpt lat="47.65853" lon="6.18223">
        <ele>264</ele>
        <time>2013-11-23T13:41:30.000Z</time>
      </trkpt>
      <trkpt lat="47.65852" lon="6.18208">
        <ele>263.20001220703</ele>
        <time>2013-11-23T13:41:34.000Z</time>
      </trkpt>
      <trkpt lat="47.65851" lon="6.18203">
        <ele>263</ele>
        <time>2013-11-23T13:41:35.000Z</time>
      </trkpt>
      <trkpt lat="47.65851" lon="6.18199">
        <ele>262.79998779297</ele>
        <time>2013-11-23T13:41:36.000Z</time>
      </trkpt>
      <trkpt lat="47.6585" lon="6.18195">
        <ele>262.60000610352</ele>
        <time>2013-11-23T13:41:37.000Z</time>
      </trkpt>
      <trkpt lat="47.65851" lon="6.18191">
        <ele>262.20001220703</ele>
        <time>2013-11-23T13:41:38.000Z</time>
      </trkpt>
      <trkpt lat="47.65854" lon="6.18183">
        <ele>261.79998779297</ele>
        <time>2013-11-23T13:41:40.000Z</time>
      </trkpt>
      <trkpt lat="47.65857" lon="6.18181">
        <ele>261.79998779297</ele>
        <time>2013-11-23T13:41:41.000Z</time>
      </trkpt>
      <trkpt lat="47.6586" lon="6.1818">
        <ele>261.79998779297</ele>
        <time>2013-11-23T13:41:42.000Z</time>
      </trkpt>
      <trkpt lat="47.65863" lon="6.18181">
        <ele>261.79998779297</ele>
        <time>2013-11-23T13:41:43.000Z</time>
      </trkpt>
      <trkpt lat="47.65865" lon="6.18182">
        <ele>261.79998779297</ele>
        <time>2013-11-23T13:41:44.000Z</time>
      </trkpt>
      <trkpt lat="47.65871" lon="6.18184">
        <ele>262</ele>
        <time>2013-11-23T13:41:46.000Z</time>
      </trkpt>
      <trkpt lat="47.65882" lon="6.18187">
        <ele>262.20001220703</ele>
        <time>2013-11-23T13:41:49.000Z</time>
      </trkpt>
      <trkpt lat="47.65885" lon="6.18188">
        <ele>262.39999389648</ele>
        <time>2013-11-23T13:41:50.000Z</time>
      </trkpt>
      <trkpt lat="47.65889" lon="6.18189">
        <ele>262.39999389648</ele>
        <time>2013-11-23T13:41:51.000Z</time>
      </trkpt>
      <trkpt lat="47.65893" lon="6.1819">
        <ele>262.60000610352</ele>
        <time>2013-11-23T13:41:52.000Z</time>
      </trkpt>
      <trkpt lat="47.65897" lon="6.18191">
        <ele>262.60000610352</ele>
        <time>2013-11-23T13:41:53.000Z</time>
      </trkpt>
      <trkpt lat="47.659" lon="6.18193">
        <ele>262.79998779297</ele>
        <time>2013-11-23T13:41:54.000Z</time>
      </trkpt>
      <trkpt lat="47.65912" lon="6.18196">
        <ele>263</ele>
        <time>2013-11-23T13:41:57.000Z</time>
      </trkpt>
      <trkpt lat="47.65939" lon="6.18206">
        <ele>264</ele>
        <time>2013-11-23T13:42:05.000Z</time>
      </trkpt>
      <trkpt lat="47.65955" lon="6.18223">
        <ele>265.79998779297</ele>
        <time>2013-11-23T13:42:11.000Z</time>
      </trkpt>
      <trkpt lat="47.65971" lon="6.18232">
        <ele>267.20001220703</ele>
        <time>2013-11-23T13:42:17.000Z</time>
      </trkpt>
      <trkpt lat="47.65985" lon="6.18235">
        <ele>267.79998779297</ele>
        <time>2013-11-23T13:42:22.000Z</time>
      </trkpt>
      <trkpt lat="47.66001" lon="6.1824">
        <ele>268.79998779297</ele>
        <time>2013-11-23T13:42:28.000Z</time>
      </trkpt>
      <trkpt lat="47.66012" lon="6.18249">
        <ele>269.79998779297</ele>
        <time>2013-11-23T13:42:33.000Z</time>
      </trkpt>
      <trkpt lat="47.66023" lon="6.18258">
        <ele>270.39999389648</ele>
        <time>2013-11-23T13:42:38.000Z</time>
      </trkpt>
      <trkpt lat="47.66038" lon="6.18256">
        <ele>270.39999389648</ele>
        <time>2013-11-23T13:42:43.000Z</time>
      </trkpt>
      <trkpt lat="47.66062" lon="6.18253">
        <ele>270.20001220703</ele>
        <time>2013-11-23T13:42:51.000Z</time>
      </trkpt>
      <trkpt lat="47.66065" lon="6.18253">
        <ele>270.20001220703</ele>
        <time>2013-11-23T13:42:52.000Z</time>
      </trkpt>
      <trkpt lat="47.66068" lon="6.18253">
        <ele>270.20001220703</ele>
        <time>2013-11-23T13:42:53.000Z</time>
      </trkpt>
      <trkpt lat="47.66072" lon="6.18254">
        <ele>270.20001220703</ele>
        <time>2013-11-23T13:42:54.000Z</time>
      </trkpt>
      <trkpt lat="47.66075" lon="6.18254">
        <ele>270.20001220703</ele>
        <time>2013-11-23T13:42:55.000Z</time>
      </trkpt>
      <trkpt lat="47.66089" lon="6.18255">
        <ele>269.79998779297</ele>
        <time>2013-11-23T13:43:00.000Z</time>
      </trkpt>
      <trkpt lat="47.6611" lon="6.1826">
        <ele>268.39999389648</ele>
        <time>2013-11-23T13:43:07.000Z</time>
      </trkpt>
      <trkpt lat="47.66114" lon="6.1826">
        <ele>268.20001220703</ele>
        <time>2013-11-23T13:43:08.000Z</time>
      </trkpt>
      <trkpt lat="47.66117" lon="6.18261">
        <ele>268</ele>
        <time>2013-11-23T13:43:09.000Z</time>
      </trkpt>
      <trkpt lat="47.6612" lon="6.18263">
        <ele>267.79998779297</ele>
        <time>2013-11-23T13:43:10.000Z</time>
      </trkpt>
      <trkpt lat="47.66123" lon="6.18264">
        <ele>267.60000610352</ele>
        <time>2013-11-23T13:43:11.000Z</time>
      </trkpt>
      <trkpt lat="47.66127" lon="6.18265">
        <ele>267.60000610352</ele>
        <time>2013-11-23T13:43:12.000Z</time>
      </trkpt>
      <trkpt lat="47.66133" lon="6.18268">
        <ele>267.39999389648</ele>
        <time>2013-11-23T13:43:14.000Z</time>
      </trkpt>
      <trkpt lat="47.66145" lon="6.18273">
        <ele>266.79998779297</ele>
        <time>2013-11-23T13:43:18.000Z</time>
      </trkpt>
      <trkpt lat="47.66148" lon="6.18275">
        <ele>266.79998779297</ele>
        <time>2013-11-23T13:43:19.000Z</time>
      </trkpt>
      <trkpt lat="47.66151" lon="6.18277">
        <ele>266.79998779297</ele>
        <time>2013-11-23T13:43:20.000Z</time>
      </trkpt>
      <trkpt lat="47.66154" lon="6.18278">
        <ele>266.60000610352</ele>
        <time>2013-11-23T13:43:21.000Z</time>
      </trkpt>
      <trkpt lat="47.66157" lon="6.1828">
        <ele>266.39999389648</ele>
        <time>2013-11-23T13:43:22.000Z</time>
      </trkpt>
      <trkpt lat="47.66173" lon="6.18288">
        <ele>266.20001220703</ele>
        <time>2013-11-23T13:43:26.000Z</time>
      </trkpt>
      <trkpt lat="47.66177" lon="6.1829">
        <ele>266</ele>
        <time>2013-11-23T13:43:27.000Z</time>
      </trkpt>
      <trkpt lat="47.66181" lon="6.18292">
        <ele>265.79998779297</ele>
        <time>2013-11-23T13:43:28.000Z</time>
      </trkpt>
      <trkpt lat="47.66184" lon="6.18294">
        <ele>265.79998779297</ele>
        <time>2013-11-23T13:43:29.000Z</time>
      </trkpt>
      <trkpt lat="47.66189" lon="6.18297">
        <ele>265.60000610352</ele>
        <time>2013-11-23T13:43:30.000Z</time>
      </trkpt>
      <trkpt lat="47.66204" lon="6.18304">
        <ele>265</ele>
        <time>2013-11-23T13:43:33.000Z</time>
      </trkpt>
      <trkpt lat="47.66208" lon="6.18306">
        <ele>264.79998779297</ele>
        <time>2013-11-23T13:43:34.000Z</time>
      </trkpt>
      <trkpt lat="47.66211" lon="6.18309">
        <ele>264.60000610352</ele>
        <time>2013-11-23T13:43:35.000Z</time>
      </trkpt>
      <trkpt lat="47.66215" lon="6.1831">
        <ele>264.39999389648</ele>
        <time>2013-11-23T13:43:36.000Z</time>
      </trkpt>
      <trkpt lat="47.66219" lon="6.1831">
        <ele>264.20001220703</ele>
        <time>2013-11-23T13:43:37.000Z</time>
      </trkpt>
      <trkpt lat="47.66223" lon="6.18309">
        <ele>263.60000610352</ele>
        <time>2013-11-23T13:43:38.000Z</time>
      </trkpt>
      <trkpt lat="47.66227" lon="6.18305">
        <ele>263</ele>
        <time>2013-11-23T13:43:39.000Z</time>
      </trkpt>
      <trkpt lat="47.6623" lon="6.183">
        <ele>262.39999389648</ele>
        <time>2013-11-23T13:43:40.000Z</time>
      </trkpt>
      <trkpt lat="47.66232" lon="6.18294">
        <ele>261.60000610352</ele>
        <time>2013-11-23T13:43:41.000Z</time>
      </trkpt>
      <trkpt lat="47.66234" lon="6.18288">
        <ele>261</ele>
        <time>2013-11-23T13:43:42.000Z</time>
      </trkpt>
      <trkpt lat="47.66234" lon="6.1828">
        <ele>260.39999389648</ele>
        <time>2013-11-23T13:43:43.000Z</time>
      </trkpt>
      <trkpt lat="47.66234" lon="6.18272">
        <ele>259.79998779297</ele>
        <time>2013-11-23T13:43:44.000Z</time>
      </trkpt>
      <trkpt lat="47.66232" lon="6.18262">
        <ele>259.20001220703</ele>
        <time>2013-11-23T13:43:45.000Z</time>
      </trkpt>
      <trkpt lat="47.6623" lon="6.18254">
        <ele>258.79998779297</ele>
        <time>2013-11-23T13:43:46.000Z</time>
      </trkpt>
      <trkpt lat="47.66227" lon="6.18245">
        <ele>258</ele>
        <time>2013-11-23T13:43:47.000Z</time>
      </trkpt>
      <trkpt lat="47.66223" lon="6.18238">
        <ele>257.39999389648</ele>
        <time>2013-11-23T13:43:48.000Z</time>
      </trkpt>
      <trkpt lat="47.6622" lon="6.18231">
        <ele>256.60000610352</ele>
        <time>2013-11-23T13:43:49.000Z</time>
      </trkpt>
      <trkpt lat="47.66217" lon="6.18225">
        <ele>256.20001220703</ele>
        <time>2013-11-23T13:43:50.000Z</time>
      </trkpt>
      <trkpt lat="47.66213" lon="6.18219">
        <ele>255.60000610352</ele>
        <time>2013-11-23T13:43:51.000Z</time>
      </trkpt>
      <trkpt lat="47.66209" lon="6.18213">
        <ele>255.19999694824</ele>
        <time>2013-11-23T13:43:52.000Z</time>
      </trkpt>
      <trkpt lat="47.66204" lon="6.18207">
        <ele>254.60000610352</ele>
        <time>2013-11-23T13:43:53.000Z</time>
      </trkpt>
      <trkpt lat="47.66199" lon="6.18201">
        <ele>254.19999694824</ele>
        <time>2013-11-23T13:43:54.000Z</time>
      </trkpt>
      <trkpt lat="47.66194" lon="6.18194">
        <ele>253.60000610352</ele>
        <time>2013-11-23T13:43:55.000Z</time>
      </trkpt>
      <trkpt lat="47.66189" lon="6.18188">
        <ele>253.19999694824</ele>
        <time>2013-11-23T13:43:56.000Z</time>
      </trkpt>
      <trkpt lat="47.66184" lon="6.18181">
        <ele>252.60000610352</ele>
        <time>2013-11-23T13:43:57.000Z</time>
      </trkpt>
      <trkpt lat="47.66179" lon="6.18175">
        <ele>252.19999694824</ele>
        <time>2013-11-23T13:43:58.000Z</time>
      </trkpt>
      <trkpt lat="47.66174" lon="6.18169">
        <ele>251.80000305176</ele>
        <time>2013-11-23T13:43:59.000Z</time>
      </trkpt>
      <trkpt lat="47.6617" lon="6.18164">
        <ele>251.60000610352</ele>
        <time>2013-11-23T13:44:00.000Z</time>
      </trkpt>
      <trkpt lat="47.66166" lon="6.1816">
        <ele>251.39999389648</ele>
        <time>2013-11-23T13:44:01.000Z</time>
      </trkpt>
      <trkpt lat="47.66161" lon="6.18156">
        <ele>251.39999389648</ele>
        <time>2013-11-23T13:44:02.000Z</time>
      </trkpt>
      <trkpt lat="47.66157" lon="6.18153">
        <ele>251.39999389648</ele>
        <time>2013-11-23T13:44:03.000Z</time>
      </trkpt>
      <trkpt lat="47.66152" lon="6.18151">
        <ele>251.39999389648</ele>
        <time>2013-11-23T13:44:04.000Z</time>
      </trkpt>
      <trkpt lat="47.66147" lon="6.18149">
        <ele>251.60000610352</ele>
        <time>2013-11-23T13:44:05.000Z</time>
      </trkpt>
      <trkpt lat="47.66142" lon="6.18145">
        <ele>251.60000610352</ele>
        <time>2013-11-23T13:44:06.000Z</time>
      </trkpt>
      <trkpt lat="47.66136" lon="6.18141">
        <ele>251.39999389648</ele>
        <time>2013-11-23T13:44:07.000Z</time>
      </trkpt>
      <trkpt lat="47.66131" lon="6.18138">
        <ele>251.39999389648</ele>
        <time>2013-11-23T13:44:08.000Z</time>
      </trkpt>
      <trkpt lat="47.66126" lon="6.18135">
        <ele>251.39999389648</ele>
        <time>2013-11-23T13:44:09.000Z</time>
      </trkpt>
      <trkpt lat="47.6612" lon="6.18132">
        <ele>251.19999694824</ele>
        <time>2013-11-23T13:44:10.000Z</time>
      </trkpt>
      <trkpt lat="47.66115" lon="6.18129">
        <ele>251.39999389648</ele>
        <time>2013-11-23T13:44:11.000Z</time>
      </trkpt>
      <trkpt lat="47.66109" lon="6.18127">
        <ele>251.39999389648</ele>
        <time>2013-11-23T13:44:12.000Z</time>
      </trkpt>
      <trkpt lat="47.66103" lon="6.18124">
        <ele>251.39999389648</ele>
        <time>2013-11-23T13:44:13.000Z</time>
      </trkpt>
      <trkpt lat="47.66097" lon="6.18122">
        <ele>251.39999389648</ele>
        <time>2013-11-23T13:44:14.000Z</time>
      </trkpt>
      <trkpt lat="47.66091" lon="6.1812">
        <ele>251.39999389648</ele>
        <time>2013-11-23T13:44:15.000Z</time>
      </trkpt>
      <trkpt lat="47.66084" lon="6.18118">
        <ele>251.39999389648</ele>
        <time>2013-11-23T13:44:16.000Z</time>
      </trkpt>
      <trkpt lat="47.66078" lon="6.18115">
        <ele>251.19999694824</ele>
        <time>2013-11-23T13:44:17.000Z</time>
      </trkpt>
      <trkpt lat="47.66072" lon="6.18112">
        <ele>250.80000305176</ele>
        <time>2013-11-23T13:44:18.000Z</time>
      </trkpt>
      <trkpt lat="47.66067" lon="6.1811">
        <ele>250.39999389648</ele>
        <time>2013-11-23T13:44:19.000Z</time>
      </trkpt>
      <trkpt lat="47.66061" lon="6.18108">
        <ele>250</ele>
        <time>2013-11-23T13:44:20.000Z</time>
      </trkpt>
      <trkpt lat="47.66056" lon="6.18107">
        <ele>249.80000305176</ele>
        <time>2013-11-23T13:44:21.000Z</time>
      </trkpt>
      <trkpt lat="47.66051" lon="6.18105">
        <ele>249.39999389648</ele>
        <time>2013-11-23T13:44:22.000Z</time>
      </trkpt>
      <trkpt lat="47.66046" lon="6.18104">
        <ele>249.19999694824</ele>
        <time>2013-11-23T13:44:23.000Z</time>
      </trkpt>
      <trkpt lat="47.66041" lon="6.18101">
        <ele>248.80000305176</ele>
        <time>2013-11-23T13:44:24.000Z</time>
      </trkpt>
      <trkpt lat="47.66036" lon="6.18099">
        <ele>248.39999389648</ele>
        <time>2013-11-23T13:44:25.000Z</time>
      </trkpt>
      <trkpt lat="47.66031" lon="6.18097">
        <ele>248</ele>
        <time>2013-11-23T13:44:26.000Z</time>
      </trkpt>
      <trkpt lat="47.66027" lon="6.18093">
        <ele>247.19999694824</ele>
        <time>2013-11-23T13:44:27.000Z</time>
      </trkpt>
      <trkpt lat="47.66023" lon="6.18089">
        <ele>246.39999389648</ele>
        <time>2013-11-23T13:44:28.000Z</time>
      </trkpt>
      <trkpt lat="47.66019" lon="6.18083">
        <ele>245.39999389648</ele>
        <time>2013-11-23T13:44:29.000Z</time>
      </trkpt>
      <trkpt lat="47.66015" lon="6.18077">
        <ele>244.60000610352</ele>
        <time>2013-11-23T13:44:30.000Z</time>
      </trkpt>
      <trkpt lat="47.6601" lon="6.1807">
        <ele>243.60000610352</ele>
        <time>2013-11-23T13:44:31.000Z</time>
      </trkpt>
      <trkpt lat="47.66006" lon="6.18063">
        <ele>242.60000610352</ele>
        <time>2013-11-23T13:44:32.000Z</time>
      </trkpt>
      <trkpt lat="47.66001" lon="6.18057">
        <ele>242</ele>
        <time>2013-11-23T13:44:33.000Z</time>
      </trkpt>
      <trkpt lat="47.65997" lon="6.18052">
        <ele>241.39999389648</ele>
        <time>2013-11-23T13:44:34.000Z</time>
      </trkpt>
      <trkpt lat="47.65992" lon="6.18047">
        <ele>241.19999694824</ele>
        <time>2013-11-23T13:44:35.000Z</time>
      </trkpt>
      <trkpt lat="47.65987" lon="6.18042">
        <ele>240.80000305176</ele>
        <time>2013-11-23T13:44:36.000Z</time>
      </trkpt>
      <trkpt lat="47.65982" lon="6.18037">
        <ele>240.39999389648</ele>
        <time>2013-11-23T13:44:37.000Z</time>
      </trkpt>
      <trkpt lat="47.65977" lon="6.18031">
        <ele>240</ele>
        <time>2013-11-23T13:44:38.000Z</time>
      </trkpt>
      <trkpt lat="47.65972" lon="6.18025">
        <ele>239.39999389648</ele>
        <time>2013-11-23T13:44:39.000Z</time>
      </trkpt>
      <trkpt lat="47.65966" lon="6.18019">
        <ele>239</ele>
        <time>2013-11-23T13:44:40.000Z</time>
      </trkpt>
      <trkpt lat="47.65959" lon="6.18013">
        <ele>238.39999389648</ele>
        <time>2013-11-23T13:44:41.000Z</time>
      </trkpt>
      <trkpt lat="47.65953" lon="6.18007">
        <ele>237.80000305176</ele>
        <time>2013-11-23T13:44:42.000Z</time>
      </trkpt>
      <trkpt lat="47.65946" lon="6.18001">
        <ele>237</ele>
        <time>2013-11-23T13:44:43.000Z</time>
      </trkpt>
      <trkpt lat="47.65939" lon="6.17995">
        <ele>236.60000610352</ele>
        <time>2013-11-23T13:44:44.000Z</time>
      </trkpt>
      <trkpt lat="47.65932" lon="6.17988">
        <ele>236.19999694824</ele>
        <time>2013-11-23T13:44:45.000Z</time>
      </trkpt>
      <trkpt lat="47.65925" lon="6.17983">
        <ele>235.80000305176</ele>
        <time>2013-11-23T13:44:46.000Z</time>
      </trkpt>
      <trkpt lat="47.65919" lon="6.17978">
        <ele>235.39999389648</ele>
        <time>2013-11-23T13:44:47.000Z</time>
      </trkpt>
      <trkpt lat="47.65914" lon="6.17973">
        <ele>234.80000305176</ele>
        <time>2013-11-23T13:44:48.000Z</time>
      </trkpt>
      <trkpt lat="47.6591" lon="6.17971">
        <ele>234.60000610352</ele>
        <time>2013-11-23T13:44:49.000Z</time>
      </trkpt>
      <trkpt lat="47.65906" lon="6.17968">
        <ele>234.39999389648</ele>
        <time>2013-11-23T13:44:50.000Z</time>
      </trkpt>
      <trkpt lat="47.65901" lon="6.17961">
        <ele>233.60000610352</ele>
        <time>2013-11-23T13:44:53.000Z</time>
      </trkpt>
      <trkpt lat="47.65901" lon="6.17959">
        <ele>233.39999389648</ele>
        <time>2013-11-23T13:44:54.000Z</time>
      </trkpt>
      <trkpt lat="47.65902" lon="6.17956">
        <ele>233</ele>
        <time>2013-11-23T13:44:55.000Z</time>
      </trkpt>
      <trkpt lat="47.65903" lon="6.17954">
        <ele>232.80000305176</ele>
        <time>2013-11-23T13:44:56.000Z</time>
      </trkpt>
      <trkpt lat="47.65906" lon="6.17953">
        <ele>232.60000610352</ele>
        <time>2013-11-23T13:44:57.000Z</time>
      </trkpt>
      <trkpt lat="47.65908" lon="6.17952">
        <ele>232.39999389648</ele>
        <time>2013-11-23T13:44:58.000Z</time>
      </trkpt>
      <trkpt lat="47.65911" lon="6.17951">
        <ele>232.19999694824</ele>
        <time>2013-11-23T13:44:59.000Z</time>
      </trkpt>
      <trkpt lat="47.65914" lon="6.17951">
        <ele>232.19999694824</ele>
        <time>2013-11-23T13:45:00.000Z</time>
      </trkpt>
      <trkpt lat="47.65918" lon="6.17951">
        <ele>232</ele>
        <time>2013-11-23T13:45:01.000Z</time>
      </trkpt>
      <trkpt lat="47.65922" lon="6.17951">
        <ele>232</ele>
        <time>2013-11-23T13:45:02.000Z</time>
      </trkpt>
      <trkpt lat="47.65929" lon="6.17951">
        <ele>231.80000305176</ele>
        <time>2013-11-23T13:45:04.000Z</time>
      </trkpt>
      <trkpt lat="47.65934" lon="6.17951">
        <ele>231.80000305176</ele>
        <time>2013-11-23T13:45:05.000Z</time>
      </trkpt>
      <trkpt lat="47.65938" lon="6.1795">
        <ele>231.80000305176</ele>
        <time>2013-11-23T13:45:06.000Z</time>
      </trkpt>
      <trkpt lat="47.65943" lon="6.1795">
        <ele>231.60000610352</ele>
        <time>2013-11-23T13:45:07.000Z</time>
      </trkpt>
      <trkpt lat="47.65947" lon="6.17951">
        <ele>231.60000610352</ele>
        <time>2013-11-23T13:45:08.000Z</time>
      </trkpt>
      <trkpt lat="47.65952" lon="6.17951">
        <ele>231.60000610352</ele>
        <time>2013-11-23T13:45:09.000Z</time>
      </trkpt>
      <trkpt lat="47.6596" lon="6.17951">
        <ele>231.39999389648</ele>
        <time>2013-11-23T13:45:11.000Z</time>
      </trkpt>
      <trkpt lat="47.65965" lon="6.17951">
        <ele>231.39999389648</ele>
        <time>2013-11-23T13:45:12.000Z</time>
      </trkpt>
      <trkpt lat="47.65969" lon="6.1795">
        <ele>231.19999694824</ele>
        <time>2013-11-23T13:45:13.000Z</time>
      </trkpt>
      <trkpt lat="47.65973" lon="6.1795">
        <ele>231.19999694824</ele>
        <time>2013-11-23T13:45:14.000Z</time>
      </trkpt>
      <trkpt lat="47.65982" lon="6.17951">
        <ele>231.19999694824</ele>
        <time>2013-11-23T13:45:16.000Z</time>
      </trkpt>
      <trkpt lat="47.65994" lon="6.17952">
        <ele>231</ele>
        <time>2013-11-23T13:45:19.000Z</time>
      </trkpt>
      <trkpt lat="47.65998" lon="6.17952">
        <ele>231</ele>
        <time>2013-11-23T13:45:20.000Z</time>
      </trkpt>
      <trkpt lat="47.66002" lon="6.17952">
        <ele>231</ele>
        <time>2013-11-23T13:45:21.000Z</time>
      </trkpt>
      <trkpt lat="47.66007" lon="6.17953">
        <ele>231</ele>
        <time>2013-11-23T13:45:22.000Z</time>
      </trkpt>
      <trkpt lat="47.66011" lon="6.17953">
        <ele>231</ele>
        <time>2013-11-23T13:45:23.000Z</time>
      </trkpt>
      <trkpt lat="47.66016" lon="6.17954">
        <ele>231</ele>
        <time>2013-11-23T13:45:24.000Z</time>
      </trkpt>
      <trkpt lat="47.66044" lon="6.17954">
        <ele>231.19999694824</ele>
        <time>2013-11-23T13:45:30.000Z</time>
      </trkpt>
      <trkpt lat="47.66048" lon="6.17955">
        <ele>231.19999694824</ele>
        <time>2013-11-23T13:45:31.000Z</time>
      </trkpt>
      <trkpt lat="47.66053" lon="6.17955">
        <ele>231.19999694824</ele>
        <time>2013-11-23T13:45:32.000Z</time>
      </trkpt>
      <trkpt lat="47.66057" lon="6.17955">
        <ele>231.19999694824</ele>
        <time>2013-11-23T13:45:33.000Z</time>
      </trkpt>
      <trkpt lat="47.66061" lon="6.17955">
        <ele>231.19999694824</ele>
        <time>2013-11-23T13:45:34.000Z</time>
      </trkpt>
      <trkpt lat="47.66065" lon="6.17955">
        <ele>231.19999694824</ele>
        <time>2013-11-23T13:45:35.000Z</time>
      </trkpt>
      <trkpt lat="47.66076" lon="6.17954">
        <ele>231.19999694824</ele>
        <time>2013-11-23T13:45:38.000Z</time>
      </trkpt>
      <trkpt lat="47.66105" lon="6.17954">
        <ele>231</ele>
        <time>2013-11-23T13:45:46.000Z</time>
      </trkpt>
      <trkpt lat="47.66132" lon="6.17953">
        <ele>230.60000610352</ele>
        <time>2013-11-23T13:45:53.000Z</time>
      </trkpt>
      <trkpt lat="47.66163" lon="6.17956">
        <ele>230.39999389648</ele>
        <time>2013-11-23T13:46:01.000Z</time>
      </trkpt>
      <trkpt lat="47.66168" lon="6.17956">
        <ele>230.39999389648</ele>
        <time>2013-11-23T13:46:02.000Z</time>
      </trkpt>
      <trkpt lat="47.66172" lon="6.17956">
        <ele>230.19999694824</ele>
        <time>2013-11-23T13:46:03.000Z</time>
      </trkpt>
      <trkpt lat="47.66176" lon="6.17957">
        <ele>230.19999694824</ele>
        <time>2013-11-23T13:46:04.000Z</time>
      </trkpt>
      <trkpt lat="47.6618" lon="6.17957">
        <ele>230.19999694824</ele>
        <time>2013-11-23T13:46:05.000Z</time>
      </trkpt>
      <trkpt lat="47.66196" lon="6.17961">
        <ele>230</ele>
        <time>2013-11-23T13:46:09.000Z</time>
      </trkpt>
      <trkpt lat="47.66225" lon="6.17968">
        <ele>229.80000305176</ele>
        <time>2013-11-23T13:46:16.000Z</time>
      </trkpt>
      <trkpt lat="47.66229" lon="6.17969">
        <ele>229.80000305176</ele>
        <time>2013-11-23T13:46:17.000Z</time>
      </trkpt>
      <trkpt lat="47.66233" lon="6.1797">
        <ele>229.60000610352</ele>
        <time>2013-11-23T13:46:18.000Z</time>
      </trkpt>
      <trkpt lat="47.66238" lon="6.17971">
        <ele>229.60000610352</ele>
        <time>2013-11-23T13:46:19.000Z</time>
      </trkpt>
      <trkpt lat="47.66243" lon="6.17972">
        <ele>229.60000610352</ele>
        <time>2013-11-23T13:46:20.000Z</time>
      </trkpt>
      <trkpt lat="47.66267" lon="6.17975">
        <ele>229</ele>
        <time>2013-11-23T13:46:25.000Z</time>
      </trkpt>
      <trkpt lat="47.66272" lon="6.17976">
        <ele>228.80000305176</ele>
        <time>2013-11-23T13:46:26.000Z</time>
      </trkpt>
      <trkpt lat="47.66277" lon="6.17976">
        <ele>228.60000610352</ele>
        <time>2013-11-23T13:46:27.000Z</time>
      </trkpt>
      <trkpt lat="47.66282" lon="6.17977">
        <ele>228.60000610352</ele>
        <time>2013-11-23T13:46:28.000Z</time>
      </trkpt>
      <trkpt lat="47.66287" lon="6.17977">
        <ele>228.39999389648</ele>
        <time>2013-11-23T13:46:29.000Z</time>
      </trkpt>
      <trkpt lat="47.66292" lon="6.17978">
        <ele>228.19999694824</ele>
        <time>2013-11-23T13:46:30.000Z</time>
      </trkpt>
      <trkpt lat="47.66297" lon="6.17978">
        <ele>228</ele>
        <time>2013-11-23T13:46:31.000Z</time>
      </trkpt>
      <trkpt lat="47.66302" lon="6.17978">
        <ele>228</ele>
        <time>2013-11-23T13:46:32.000Z</time>
      </trkpt>
      <trkpt lat="47.66307" lon="6.17978">
        <ele>227.80000305176</ele>
        <time>2013-11-23T13:46:33.000Z</time>
      </trkpt>
      <trkpt lat="47.66311" lon="6.17977">
        <ele>227.60000610352</ele>
        <time>2013-11-23T13:46:34.000Z</time>
      </trkpt>
      <trkpt lat="47.66316" lon="6.17976">
        <ele>227.60000610352</ele>
        <time>2013-11-23T13:46:35.000Z</time>
      </trkpt>
      <trkpt lat="47.66323" lon="6.1797">
        <ele>227.19999694824</ele>
        <time>2013-11-23T13:46:37.000Z</time>
      </trkpt>
      <trkpt lat="47.66326" lon="6.17965">
        <ele>227.19999694824</ele>
        <time>2013-11-23T13:46:38.000Z</time>
      </trkpt>
      <trkpt lat="47.66328" lon="6.17959">
        <ele>227.19999694824</ele>
        <time>2013-11-23T13:46:39.000Z</time>
      </trkpt>
      <trkpt lat="47.66329" lon="6.17953">
        <ele>227</ele>
        <time>2013-11-23T13:46:40.000Z</time>
      </trkpt>
      <trkpt lat="47.6633" lon="6.17946">
        <ele>227</ele>
        <time>2013-11-23T13:46:41.000Z</time>
      </trkpt>
      <trkpt lat="47.66331" lon="6.17938">
        <ele>227</ele>
        <time>2013-11-23T13:46:42.000Z</time>
      </trkpt>
      <trkpt lat="47.66333" lon="6.17902">
        <ele>227</ele>
        <time>2013-11-23T13:46:47.000Z</time>
      </trkpt>
      <trkpt lat="47.66336" lon="6.17867">
        <ele>227.19999694824</ele>
        <time>2013-11-23T13:46:52.000Z</time>
      </trkpt>
      <trkpt lat="47.66336" lon="6.17859">
        <ele>227.19999694824</ele>
        <time>2013-11-23T13:46:53.000Z</time>
      </trkpt>
      <trkpt lat="47.66337" lon="6.17852">
        <ele>227.19999694824</ele>
        <time>2013-11-23T13:46:54.000Z</time>
      </trkpt>
      <trkpt lat="47.66337" lon="6.17845">
        <ele>227.19999694824</ele>
        <time>2013-11-23T13:46:55.000Z</time>
      </trkpt>
      <trkpt lat="47.66338" lon="6.17837">
        <ele>227.19999694824</ele>
        <time>2013-11-23T13:46:56.000Z</time>
      </trkpt>
      <trkpt lat="47.66345" lon="6.17787">
        <ele>226.39999389648</ele>
        <time>2013-11-23T13:47:03.000Z</time>
      </trkpt>
      <trkpt lat="47.66348" lon="6.17754">
        <ele>225.60000610352</ele>
        <time>2013-11-23T13:47:08.000Z</time>
      </trkpt>
      <trkpt lat="47.66349" lon="6.17747">
        <ele>225.60000610352</ele>
        <time>2013-11-23T13:47:09.000Z</time>
      </trkpt>
      <trkpt lat="47.6635" lon="6.1774">
        <ele>225.39999389648</ele>
        <time>2013-11-23T13:47:10.000Z</time>
      </trkpt>
      <trkpt lat="47.66351" lon="6.17734">
        <ele>225.39999389648</ele>
        <time>2013-11-23T13:47:11.000Z</time>
      </trkpt>
      <trkpt lat="47.66352" lon="6.17727">
        <ele>225.39999389648</ele>
        <time>2013-11-23T13:47:12.000Z</time>
      </trkpt>
      <trkpt lat="47.66363" lon="6.17691">
        <ele>225.39999389648</ele>
        <time>2013-11-23T13:47:18.000Z</time>
      </trkpt>
      <trkpt lat="47.66365" lon="6.17684">
        <ele>225.39999389648</ele>
        <time>2013-11-23T13:47:19.000Z</time>
      </trkpt>
      <trkpt lat="47.66368" lon="6.17678">
        <ele>225.39999389648</ele>
        <time>2013-11-23T13:47:20.000Z</time>
      </trkpt>
      <trkpt lat="47.6637" lon="6.17672">
        <ele>225.39999389648</ele>
        <time>2013-11-23T13:47:21.000Z</time>
      </trkpt>
      <trkpt lat="47.66373" lon="6.17667">
        <ele>225.39999389648</ele>
        <time>2013-11-23T13:47:22.000Z</time>
      </trkpt>
      <trkpt lat="47.66377" lon="6.17662">
        <ele>225.60000610352</ele>
        <time>2013-11-23T13:47:23.000Z</time>
      </trkpt>
      <trkpt lat="47.66383" lon="6.17652">
        <ele>225.80000305176</ele>
        <time>2013-11-23T13:47:25.000Z</time>
      </trkpt>
      <trkpt lat="47.66398" lon="6.17627">
        <ele>226</ele>
        <time>2013-11-23T13:47:30.000Z</time>
      </trkpt>
      <trkpt lat="47.66405" lon="6.17618">
        <ele>226.19999694824</ele>
        <time>2013-11-23T13:47:32.000Z</time>
      </trkpt>
      <trkpt lat="47.66419" lon="6.17602">
        <ele>226.19999694824</ele>
        <time>2013-11-23T13:47:36.000Z</time>
      </trkpt>
      <trkpt lat="47.66431" lon="6.17593">
        <ele>226.19999694824</ele>
        <time>2013-11-23T13:47:39.000Z</time>
      </trkpt>
      <trkpt lat="47.66435" lon="6.17589">
        <ele>226.19999694824</ele>
        <time>2013-11-23T13:47:40.000Z</time>
      </trkpt>
      <trkpt lat="47.66439" lon="6.17587">
        <ele>226.39999389648</ele>
        <time>2013-11-23T13:47:41.000Z</time>
      </trkpt>
      <trkpt lat="47.66443" lon="6.17584">
        <ele>226.39999389648</ele>
        <time>2013-11-23T13:47:42.000Z</time>
      </trkpt>
      <trkpt lat="47.66464" lon="6.17573">
        <ele>226.39999389648</ele>
        <time>2013-11-23T13:47:47.000Z</time>
      </trkpt>
      <trkpt lat="47.665" lon="6.17549">
        <ele>226.60000610352</ele>
        <time>2013-11-23T13:47:56.000Z</time>
      </trkpt>
      <trkpt lat="47.66512" lon="6.1754">
        <ele>226.60000610352</ele>
        <time>2013-11-23T13:47:59.000Z</time>
      </trkpt>
      <trkpt lat="47.66527" lon="6.17529">
        <ele>226.80000305176</ele>
        <time>2013-11-23T13:48:03.000Z</time>
      </trkpt>
      <trkpt lat="47.66539" lon="6.1752">
        <ele>227</ele>
        <time>2013-11-23T13:48:06.000Z</time>
      </trkpt>
      <trkpt lat="47.66553" lon="6.17509">
        <ele>227.19999694824</ele>
        <time>2013-11-23T13:48:10.000Z</time>
      </trkpt>
      <trkpt lat="47.6656" lon="6.17505">
        <ele>227.39999389648</ele>
        <time>2013-11-23T13:48:12.000Z</time>
      </trkpt>
      <trkpt lat="47.66564" lon="6.17503">
        <ele>227.60000610352</ele>
        <time>2013-11-23T13:48:13.000Z</time>
      </trkpt>
      <trkpt lat="47.66567" lon="6.17502">
        <ele>227.60000610352</ele>
        <time>2013-11-23T13:48:14.000Z</time>
      </trkpt>
      <trkpt lat="47.66571" lon="6.17501">
        <ele>227.60000610352</ele>
        <time>2013-11-23T13:48:15.000Z</time>
      </trkpt>
      <trkpt lat="47.66575" lon="6.17499">
        <ele>227.80000305176</ele>
        <time>2013-11-23T13:48:16.000Z</time>
      </trkpt>
      <trkpt lat="47.66578" lon="6.17497">
        <ele>227.80000305176</ele>
        <time>2013-11-23T13:48:17.000Z</time>
      </trkpt>
      <trkpt lat="47.66599" lon="6.17487">
        <ele>227.80000305176</ele>
        <time>2013-11-23T13:48:23.000Z</time>
      </trkpt>
      <trkpt lat="47.66625" lon="6.17475">
        <ele>227.80000305176</ele>
        <time>2013-11-23T13:48:30.000Z</time>
      </trkpt>
      <trkpt lat="47.66628" lon="6.17473">
        <ele>227.80000305176</ele>
        <time>2013-11-23T13:48:31.000Z</time>
      </trkpt>
      <trkpt lat="47.66632" lon="6.17471">
        <ele>227.80000305176</ele>
        <time>2013-11-23T13:48:32.000Z</time>
      </trkpt>
      <trkpt lat="47.66636" lon="6.1747">
        <ele>228</ele>
        <time>2013-11-23T13:48:33.000Z</time>
      </trkpt>
      <trkpt lat="47.66639" lon="6.17468">
        <ele>228</ele>
        <time>2013-11-23T13:48:34.000Z</time>
      </trkpt>
      <trkpt lat="47.66643" lon="6.17467">
        <ele>228</ele>
        <time>2013-11-23T13:48:35.000Z</time>
      </trkpt>
      <trkpt lat="47.6665" lon="6.17463">
        <ele>228</ele>
        <time>2013-11-23T13:48:37.000Z</time>
      </trkpt>
      <trkpt lat="47.66678" lon="6.17453">
        <ele>227.80000305176</ele>
        <time>2013-11-23T13:48:46.000Z</time>
      </trkpt>
      <trkpt lat="47.66695" lon="6.1745">
        <ele>227.80000305176</ele>
        <time>2013-11-23T13:48:52.000Z</time>
      </trkpt>
      <trkpt lat="47.66707" lon="6.17447">
        <ele>227.80000305176</ele>
        <time>2013-11-23T13:48:56.000Z</time>
      </trkpt>
      <trkpt lat="47.66709" lon="6.17447">
        <ele>227.80000305176</ele>
        <time>2013-11-23T13:48:57.000Z</time>
      </trkpt>
      <trkpt lat="47.66712" lon="6.17447">
        <ele>227.80000305176</ele>
        <time>2013-11-23T13:48:58.000Z</time>
      </trkpt>
      <trkpt lat="47.66715" lon="6.17446">
        <ele>227.80000305176</ele>
        <time>2013-11-23T13:48:59.000Z</time>
      </trkpt>
      <trkpt lat="47.66718" lon="6.17446">
        <ele>227.80000305176</ele>
        <time>2013-11-23T13:49:00.000Z</time>
      </trkpt>
      <trkpt lat="47.66736" lon="6.17442">
        <ele>227.60000610352</ele>
        <time>2013-11-23T13:49:07.000Z</time>
      </trkpt>
      <trkpt lat="47.66755" lon="6.17438">
        <ele>227.60000610352</ele>
        <time>2013-11-23T13:49:14.000Z</time>
      </trkpt>
      <trkpt lat="47.66776" lon="6.17436">
        <ele>227.39999389648</ele>
        <time>2013-11-23T13:49:21.000Z</time>
      </trkpt>
      <trkpt lat="47.66778" lon="6.17435">
        <ele>227.39999389648</ele>
        <time>2013-11-23T13:49:22.000Z</time>
      </trkpt>
      <trkpt lat="47.66781" lon="6.17435">
        <ele>227.39999389648</ele>
        <time>2013-11-23T13:49:23.000Z</time>
      </trkpt>
      <trkpt lat="47.66784" lon="6.17435">
        <ele>227.39999389648</ele>
        <time>2013-11-23T13:49:24.000Z</time>
      </trkpt>
      <trkpt lat="47.66787" lon="6.17435">
        <ele>227.39999389648</ele>
        <time>2013-11-23T13:49:25.000Z</time>
      </trkpt>
      <trkpt lat="47.66799" lon="6.17433">
        <ele>227.39999389648</ele>
        <time>2013-11-23T13:49:29.000Z</time>
      </trkpt>
      <trkpt lat="47.66821" lon="6.17434">
        <ele>227.39999389648</ele>
        <time>2013-11-23T13:49:36.000Z</time>
      </trkpt>
      <trkpt lat="47.66847" lon="6.17435">
        <ele>227.80000305176</ele>
        <time>2013-11-23T13:49:43.000Z</time>
      </trkpt>
      <trkpt lat="47.66861" lon="6.17435">
        <ele>228.19999694824</ele>
        <time>2013-11-23T13:49:46.000Z</time>
      </trkpt>
      <trkpt lat="47.66866" lon="6.17434">
        <ele>228.19999694824</ele>
        <time>2013-11-23T13:49:47.000Z</time>
      </trkpt>
      <trkpt lat="47.6687" lon="6.17432">
        <ele>228.19999694824</ele>
        <time>2013-11-23T13:49:48.000Z</time>
      </trkpt>
      <trkpt lat="47.66874" lon="6.1743">
        <ele>228.39999389648</ele>
        <time>2013-11-23T13:49:49.000Z</time>
      </trkpt>
      <trkpt lat="47.66879" lon="6.17429">
        <ele>228.39999389648</ele>
        <time>2013-11-23T13:49:50.000Z</time>
      </trkpt>
      <trkpt lat="47.66901" lon="6.17419">
        <ele>228.60000610352</ele>
        <time>2013-11-23T13:49:56.000Z</time>
      </trkpt>
      <trkpt lat="47.66934" lon="6.17399">
        <ele>230</ele>
        <time>2013-11-23T13:50:04.000Z</time>
      </trkpt>
      <trkpt lat="47.66952" lon="6.17387">
        <ele>231.19999694824</ele>
        <time>2013-11-23T13:50:08.000Z</time>
      </trkpt>
      <trkpt lat="47.66957" lon="6.17384">
        <ele>231.39999389648</ele>
        <time>2013-11-23T13:50:09.000Z</time>
      </trkpt>
      <trkpt lat="47.66961" lon="6.17382">
        <ele>231.60000610352</ele>
        <time>2013-11-23T13:50:10.000Z</time>
      </trkpt>
      <trkpt lat="47.66965" lon="6.17379">
        <ele>232</ele>
        <time>2013-11-23T13:50:11.000Z</time>
      </trkpt>
      <trkpt lat="47.66969" lon="6.17376">
        <ele>232.19999694824</ele>
        <time>2013-11-23T13:50:12.000Z</time>
      </trkpt>
      <trkpt lat="47.67009" lon="6.17347">
        <ele>235</ele>
        <time>2013-11-23T13:50:22.000Z</time>
      </trkpt>
      <trkpt lat="47.67017" lon="6.17339">
        <ele>236</ele>
        <time>2013-11-23T13:50:24.000Z</time>
      </trkpt>
      <trkpt lat="47.67021" lon="6.17334">
        <ele>236.39999389648</ele>
        <time>2013-11-23T13:50:25.000Z</time>
      </trkpt>
      <trkpt lat="47.67024" lon="6.17328">
        <ele>236.80000305176</ele>
        <time>2013-11-23T13:50:26.000Z</time>
      </trkpt>
      <trkpt lat="47.67027" lon="6.17323">
        <ele>236.80000305176</ele>
        <time>2013-11-23T13:50:27.000Z</time>
      </trkpt>
      <trkpt lat="47.6703" lon="6.17317">
        <ele>236.80000305176</ele>
        <time>2013-11-23T13:50:28.000Z</time>
      </trkpt>
      <trkpt lat="47.6704" lon="6.17295">
        <ele>236.19999694824</ele>
        <time>2013-11-23T13:50:32.000Z</time>
      </trkpt>
      <trkpt lat="47.67043" lon="6.17289">
        <ele>235.80000305176</ele>
        <time>2013-11-23T13:50:33.000Z</time>
      </trkpt>
      <trkpt lat="47.67045" lon="6.17282">
        <ele>235.60000610352</ele>
        <time>2013-11-23T13:50:34.000Z</time>
      </trkpt>
      <trkpt lat="47.67048" lon="6.17275">
        <ele>235</ele>
        <time>2013-11-23T13:50:35.000Z</time>
      </trkpt>
      <trkpt lat="47.6705" lon="6.17268">
        <ele>234.60000610352</ele>
        <time>2013-11-23T13:50:36.000Z</time>
      </trkpt>
      <trkpt lat="47.67053" lon="6.17262">
        <ele>234.19999694824</ele>
        <time>2013-11-23T13:50:37.000Z</time>
      </trkpt>
      <trkpt lat="47.67059" lon="6.17243">
        <ele>232.60000610352</ele>
        <time>2013-11-23T13:50:40.000Z</time>
      </trkpt>
      <trkpt lat="47.67061" lon="6.17236">
        <ele>232.19999694824</ele>
        <time>2013-11-23T13:50:41.000Z</time>
      </trkpt>
      <trkpt lat="47.67063" lon="6.17223">
        <ele>231.19999694824</ele>
        <time>2013-11-23T13:50:43.000Z</time>
      </trkpt>
      <trkpt lat="47.67064" lon="6.17217">
        <ele>230.60000610352</ele>
        <time>2013-11-23T13:50:44.000Z</time>
      </trkpt>
      <trkpt lat="47.67064" lon="6.1721">
        <ele>230</ele>
        <time>2013-11-23T13:50:45.000Z</time>
      </trkpt>
      <trkpt lat="47.67064" lon="6.17203">
        <ele>229.39999389648</ele>
        <time>2013-11-23T13:50:46.000Z</time>
      </trkpt>
      <trkpt lat="47.67065" lon="6.17197">
        <ele>228.80000305176</ele>
        <time>2013-11-23T13:50:47.000Z</time>
      </trkpt>
      <trkpt lat="47.67064" lon="6.17185">
        <ele>227.60000610352</ele>
        <time>2013-11-23T13:50:49.000Z</time>
      </trkpt>
      <trkpt lat="47.67063" lon="6.17172">
        <ele>226.60000610352</ele>
        <time>2013-11-23T13:50:51.000Z</time>
      </trkpt>
      <trkpt lat="47.67062" lon="6.17125">
        <ele>226</ele>
        <time>2013-11-23T13:50:59.000Z</time>
      </trkpt>
      <trkpt lat="47.67061" lon="6.17114">
        <ele>226</ele>
        <time>2013-11-23T13:51:01.000Z</time>
      </trkpt>
      <trkpt lat="47.67061" lon="6.17109">
        <ele>226</ele>
        <time>2013-11-23T13:51:02.000Z</time>
      </trkpt>
      <trkpt lat="47.67061" lon="6.17104">
        <ele>226</ele>
        <time>2013-11-23T13:51:03.000Z</time>
      </trkpt>
      <trkpt lat="47.67061" lon="6.17099">
        <ele>226</ele>
        <time>2013-11-23T13:51:04.000Z</time>
      </trkpt>
      <trkpt lat="47.6706" lon="6.17094">
        <ele>226</ele>
        <time>2013-11-23T13:51:05.000Z</time>
      </trkpt>
      <trkpt lat="47.6706" lon="6.17089">
        <ele>226</ele>
        <time>2013-11-23T13:51:06.000Z</time>
      </trkpt>
      <trkpt lat="47.67059" lon="6.17041">
        <ele>226.19999694824</ele>
        <time>2013-11-23T13:51:15.000Z</time>
      </trkpt>
      <trkpt lat="47.67065" lon="6.17007">
        <ele>226.39999389648</ele>
        <time>2013-11-23T13:51:21.000Z</time>
      </trkpt>
      <trkpt lat="47.67066" lon="6.17001">
        <ele>226.39999389648</ele>
        <time>2013-11-23T13:51:22.000Z</time>
      </trkpt>
      <trkpt lat="47.67067" lon="6.16995">
        <ele>226.39999389648</ele>
        <time>2013-11-23T13:51:23.000Z</time>
      </trkpt>
      <trkpt lat="47.67068" lon="6.1699">
        <ele>226.39999389648</ele>
        <time>2013-11-23T13:51:24.000Z</time>
      </trkpt>
      <trkpt lat="47.67071" lon="6.16967">
        <ele>226.60000610352</ele>
        <time>2013-11-23T13:51:28.000Z</time>
      </trkpt>
      <trkpt lat="47.67073" lon="6.16933">
        <ele>226.60000610352</ele>
        <time>2013-11-23T13:51:34.000Z</time>
      </trkpt>
      <trkpt lat="47.67071" lon="6.1692">
        <ele>226.80000305176</ele>
        <time>2013-11-23T13:51:36.000Z</time>
      </trkpt>
      <trkpt lat="47.6707" lon="6.16914">
        <ele>227</ele>
        <time>2013-11-23T13:51:37.000Z</time>
      </trkpt>
      <trkpt lat="47.67069" lon="6.16908">
        <ele>227.19999694824</ele>
        <time>2013-11-23T13:51:38.000Z</time>
      </trkpt>
      <trkpt lat="47.67067" lon="6.16902">
        <ele>227.39999389648</ele>
        <time>2013-11-23T13:51:39.000Z</time>
      </trkpt>
      <trkpt lat="47.67064" lon="6.16897">
        <ele>227.39999389648</ele>
        <time>2013-11-23T13:51:40.000Z</time>
      </trkpt>
      <trkpt lat="47.67047" lon="6.16871">
        <ele>228.60000610352</ele>
        <time>2013-11-23T13:51:47.000Z</time>
      </trkpt>
      <trkpt lat="47.67028" lon="6.16852">
        <ele>229.80000305176</ele>
        <time>2013-11-23T13:51:54.000Z</time>
      </trkpt>
      <trkpt lat="47.67014" lon="6.16837">
        <ele>230.39999389648</ele>
        <time>2013-11-23T13:51:59.000Z</time>
      </trkpt>
      <trkpt lat="47.66992" lon="6.16816">
        <ele>231</ele>
        <time>2013-11-23T13:52:07.000Z</time>
      </trkpt>
      <trkpt lat="47.6697" lon="6.16796">
        <ele>231.39999389648</ele>
        <time>2013-11-23T13:52:15.000Z</time>
      </trkpt>
      <trkpt lat="47.66948" lon="6.16768">
        <ele>231.80000305176</ele>
        <time>2013-11-23T13:52:23.000Z</time>
      </trkpt>
      <trkpt lat="47.66938" lon="6.16748">
        <ele>232</ele>
        <time>2013-11-23T13:52:27.000Z</time>
      </trkpt>
      <trkpt lat="47.66935" lon="6.16737">
        <ele>232</ele>
        <time>2013-11-23T13:52:29.000Z</time>
      </trkpt>
      <trkpt lat="47.66932" lon="6.16725">
        <ele>232</ele>
        <time>2013-11-23T13:52:31.000Z</time>
      </trkpt>
      <trkpt lat="47.66931" lon="6.16718">
        <ele>232</ele>
        <time>2013-11-23T13:52:32.000Z</time>
      </trkpt>
      <trkpt lat="47.66931" lon="6.16712">
        <ele>232</ele>
        <time>2013-11-23T13:52:33.000Z</time>
      </trkpt>
      <trkpt lat="47.6693" lon="6.16705">
        <ele>232</ele>
        <time>2013-11-23T13:52:34.000Z</time>
      </trkpt>
      <trkpt lat="47.66929" lon="6.16699">
        <ele>232</ele>
        <time>2013-11-23T13:52:35.000Z</time>
      </trkpt>
      <trkpt lat="47.66929" lon="6.16693">
        <ele>232</ele>
        <time>2013-11-23T13:52:36.000Z</time>
      </trkpt>
      <trkpt lat="47.66933" lon="6.16668">
        <ele>231.60000610352</ele>
        <time>2013-11-23T13:52:40.000Z</time>
      </trkpt>
      <trkpt lat="47.6694" lon="6.16623">
        <ele>230.80000305176</ele>
        <time>2013-11-23T13:52:48.000Z</time>
      </trkpt>
      <trkpt lat="47.66945" lon="6.16588">
        <ele>230.39999389648</ele>
        <time>2013-11-23T13:52:54.000Z</time>
      </trkpt>
      <trkpt lat="47.66955" lon="6.16547">
        <ele>231.60000610352</ele>
        <time>2013-11-23T13:53:01.000Z</time>
      </trkpt>
      <trkpt lat="47.66956" lon="6.16541">
        <ele>231.80000305176</ele>
        <time>2013-11-23T13:53:02.000Z</time>
      </trkpt>
      <trkpt lat="47.66957" lon="6.16535">
        <ele>232</ele>
        <time>2013-11-23T13:53:03.000Z</time>
      </trkpt>
      <trkpt lat="47.66957" lon="6.16529">
        <ele>232.19999694824</ele>
        <time>2013-11-23T13:53:04.000Z</time>
      </trkpt>
      <trkpt lat="47.66958" lon="6.16523">
        <ele>232.39999389648</ele>
        <time>2013-11-23T13:53:05.000Z</time>
      </trkpt>
      <trkpt lat="47.66959" lon="6.16512">
        <ele>232.60000610352</ele>
        <time>2013-11-23T13:53:07.000Z</time>
      </trkpt>
      <trkpt lat="47.66959" lon="6.16478">
        <ele>233.80000305176</ele>
        <time>2013-11-23T13:53:14.000Z</time>
      </trkpt>
      <trkpt lat="47.66961" lon="6.16465">
        <ele>234.19999694824</ele>
        <time>2013-11-23T13:53:19.000Z</time>
      </trkpt>
      <trkpt lat="47.66963" lon="6.16463">
        <ele>234.19999694824</ele>
        <time>2013-11-23T13:53:20.000Z</time>
      </trkpt>
      <trkpt lat="47.66974" lon="6.16466">
        <ele>234</ele>
        <time>2013-11-23T13:53:24.000Z</time>
      </trkpt>
      <trkpt lat="47.67002" lon="6.16473">
        <ele>233.60000610352</ele>
        <time>2013-11-23T13:53:31.000Z</time>
      </trkpt>
      <trkpt lat="47.67014" lon="6.16477">
        <ele>233.39999389648</ele>
        <time>2013-11-23T13:53:34.000Z</time>
      </trkpt>
      <trkpt lat="47.67019" lon="6.16478">
        <ele>233.39999389648</ele>
        <time>2013-11-23T13:53:35.000Z</time>
      </trkpt>
      <trkpt lat="47.67023" lon="6.16479">
        <ele>233.39999389648</ele>
        <time>2013-11-23T13:53:36.000Z</time>
      </trkpt>
      <trkpt lat="47.67027" lon="6.1648">
        <ele>233.19999694824</ele>
        <time>2013-11-23T13:53:37.000Z</time>
      </trkpt>
      <trkpt lat="47.67032" lon="6.16481">
        <ele>233.19999694824</ele>
        <time>2013-11-23T13:53:38.000Z</time>
      </trkpt>
      <trkpt lat="47.67063" lon="6.16478">
        <ele>233</ele>
        <time>2013-11-23T13:53:45.000Z</time>
      </trkpt>
      <trkpt lat="47.67075" lon="6.16474">
        <ele>233</ele>
        <time>2013-11-23T13:53:48.000Z</time>
      </trkpt>
      <trkpt lat="47.67089" lon="6.16463">
        <ele>233.19999694824</ele>
        <time>2013-11-23T13:53:52.000Z</time>
      </trkpt>
      <trkpt lat="47.67095" lon="6.16457">
        <ele>233.39999389648</ele>
        <time>2013-11-23T13:53:54.000Z</time>
      </trkpt>
      <trkpt lat="47.67099" lon="6.16454">
        <ele>233.39999389648</ele>
        <time>2013-11-23T13:53:55.000Z</time>
      </trkpt>
      <trkpt lat="47.67102" lon="6.1645">
        <ele>233.39999389648</ele>
        <time>2013-11-23T13:53:56.000Z</time>
      </trkpt>
      <trkpt lat="47.67106" lon="6.16447">
        <ele>233.39999389648</ele>
        <time>2013-11-23T13:53:57.000Z</time>
      </trkpt>
      <trkpt lat="47.67109" lon="6.16444">
        <ele>233.39999389648</ele>
        <time>2013-11-23T13:53:58.000Z</time>
      </trkpt>
      <trkpt lat="47.67112" lon="6.16441">
        <ele>233.39999389648</ele>
        <time>2013-11-23T13:53:59.000Z</time>
      </trkpt>
      <trkpt lat="47.67132" lon="6.16422">
        <ele>233.19999694824</ele>
        <time>2013-11-23T13:54:05.000Z</time>
      </trkpt>
      <trkpt lat="47.67162" lon="6.16393">
        <ele>233.19999694824</ele>
        <time>2013-11-23T13:54:14.000Z</time>
      </trkpt>
      <trkpt lat="47.67193" lon="6.16362">
        <ele>234.39999389648</ele>
        <time>2013-11-23T13:54:23.000Z</time>
      </trkpt>
      <trkpt lat="47.67227" lon="6.16327">
        <ele>234.80000305176</ele>
        <time>2013-11-23T13:54:33.000Z</time>
      </trkpt>
      <trkpt lat="47.6724" lon="6.16316">
        <ele>234.80000305176</ele>
        <time>2013-11-23T13:54:37.000Z</time>
      </trkpt>
      <trkpt lat="47.67244" lon="6.16313">
        <ele>234.80000305176</ele>
        <time>2013-11-23T13:54:38.000Z</time>
      </trkpt>
      <trkpt lat="47.67247" lon="6.1631">
        <ele>235</ele>
        <time>2013-11-23T13:54:39.000Z</time>
      </trkpt>
      <trkpt lat="47.67251" lon="6.16307">
        <ele>235</ele>
        <time>2013-11-23T13:54:40.000Z</time>
      </trkpt>
      <trkpt lat="47.67272" lon="6.16291">
        <ele>235.19999694824</ele>
        <time>2013-11-23T13:54:46.000Z</time>
      </trkpt>
      <trkpt lat="47.67275" lon="6.16289">
        <ele>235.19999694824</ele>
        <time>2013-11-23T13:54:47.000Z</time>
      </trkpt>
      <trkpt lat="47.67308" lon="6.16274">
        <ele>235</ele>
        <time>2013-11-23T13:54:55.000Z</time>
      </trkpt>
      <trkpt lat="47.67346" lon="6.16259">
        <ele>234.80000305176</ele>
        <time>2013-11-23T13:55:04.000Z</time>
      </trkpt>
      <trkpt lat="47.67375" lon="6.16249">
        <ele>235</ele>
        <time>2013-11-23T13:55:11.000Z</time>
      </trkpt>
      <trkpt lat="47.67378" lon="6.16247">
        <ele>235.19999694824</ele>
        <time>2013-11-23T13:55:12.000Z</time>
      </trkpt>
      <trkpt lat="47.67382" lon="6.16245">
        <ele>235.19999694824</ele>
        <time>2013-11-23T13:55:13.000Z</time>
      </trkpt>
      <trkpt lat="47.67386" lon="6.16244">
        <ele>235.19999694824</ele>
        <time>2013-11-23T13:55:14.000Z</time>
      </trkpt>
      <trkpt lat="47.6739" lon="6.16243">
        <ele>235.19999694824</ele>
        <time>2013-11-23T13:55:15.000Z</time>
      </trkpt>
      <trkpt lat="47.67404" lon="6.16237">
        <ele>235.60000610352</ele>
        <time>2013-11-23T13:55:19.000Z</time>
      </trkpt>
      <trkpt lat="47.67424" lon="6.16226">
        <ele>236</ele>
        <time>2013-11-23T13:55:25.000Z</time>
      </trkpt>
      <trkpt lat="47.67455" lon="6.1621">
        <ele>236</ele>
        <time>2013-11-23T13:55:34.000Z</time>
      </trkpt>
      <trkpt lat="47.67491" lon="6.16188">
        <ele>236.19999694824</ele>
        <time>2013-11-23T13:55:44.000Z</time>
      </trkpt>
      <trkpt lat="47.6751" lon="6.16176">
        <ele>236.39999389648</ele>
        <time>2013-11-23T13:55:49.000Z</time>
      </trkpt>
      <trkpt lat="47.67514" lon="6.16174">
        <ele>236.39999389648</ele>
        <time>2013-11-23T13:55:50.000Z</time>
      </trkpt>
      <trkpt lat="47.67517" lon="6.16172">
        <ele>236.60000610352</ele>
        <time>2013-11-23T13:55:51.000Z</time>
      </trkpt>
      <trkpt lat="47.67521" lon="6.1617">
        <ele>236.60000610352</ele>
        <time>2013-11-23T13:55:52.000Z</time>
      </trkpt>
      <trkpt lat="47.67525" lon="6.16167">
        <ele>236.60000610352</ele>
        <time>2013-11-23T13:55:53.000Z</time>
      </trkpt>
      <trkpt lat="47.67545" lon="6.16156">
        <ele>236.80000305176</ele>
        <time>2013-11-23T13:55:58.000Z</time>
      </trkpt>
      <trkpt lat="47.67578" lon="6.16143">
        <ele>237</ele>
        <time>2013-11-23T13:56:06.000Z</time>
      </trkpt>
      <trkpt lat="47.67613" lon="6.16136">
        <ele>236.60000610352</ele>
        <time>2013-11-23T13:56:14.000Z</time>
      </trkpt>
      <trkpt lat="47.67617" lon="6.16135">
        <ele>236.39999389648</ele>
        <time>2013-11-23T13:56:15.000Z</time>
      </trkpt>
      <trkpt lat="47.67621" lon="6.16134">
        <ele>236.39999389648</ele>
        <time>2013-11-23T13:56:16.000Z</time>
      </trkpt>
      <trkpt lat="47.67626" lon="6.16133">
        <ele>236.39999389648</ele>
        <time>2013-11-23T13:56:17.000Z</time>
      </trkpt>
      <trkpt lat="47.6763" lon="6.16132">
        <ele>236.39999389648</ele>
        <time>2013-11-23T13:56:18.000Z</time>
      </trkpt>
      <trkpt lat="47.67635" lon="6.16132">
        <ele>236.19999694824</ele>
        <time>2013-11-23T13:56:19.000Z</time>
      </trkpt>
      <trkpt lat="47.67644" lon="6.16129">
        <ele>236.19999694824</ele>
        <time>2013-11-23T13:56:21.000Z</time>
      </trkpt>
      <trkpt lat="47.6767" lon="6.16124">
        <ele>236</ele>
        <time>2013-11-23T13:56:27.000Z</time>
      </trkpt>
      <trkpt lat="47.67678" lon="6.16123">
        <ele>236.19999694824</ele>
        <time>2013-11-23T13:56:29.000Z</time>
      </trkpt>
      <trkpt lat="47.67696" lon="6.16119">
        <ele>236.39999389648</ele>
        <time>2013-11-23T13:56:33.000Z</time>
      </trkpt>
      <trkpt lat="47.67726" lon="6.16117">
        <ele>236.60000610352</ele>
        <time>2013-11-23T13:56:40.000Z</time>
      </trkpt>
      <trkpt lat="47.67735" lon="6.16117">
        <ele>236.60000610352</ele>
        <time>2013-11-23T13:56:42.000Z</time>
      </trkpt>
      <trkpt lat="47.67755" lon="6.16118">
        <ele>236.80000305176</ele>
        <time>2013-11-23T13:56:46.000Z</time>
      </trkpt>
      <trkpt lat="47.67765" lon="6.16121">
        <ele>237</ele>
        <time>2013-11-23T13:56:48.000Z</time>
      </trkpt>
      <trkpt lat="47.6777" lon="6.16123">
        <ele>237.19999694824</ele>
        <time>2013-11-23T13:56:49.000Z</time>
      </trkpt>
      <trkpt lat="47.67775" lon="6.16125">
        <ele>237.39999389648</ele>
        <time>2013-11-23T13:56:50.000Z</time>
      </trkpt>
      <trkpt lat="47.6778" lon="6.16126">
        <ele>237.60000610352</ele>
        <time>2013-11-23T13:56:51.000Z</time>
      </trkpt>
      <trkpt lat="47.67784" lon="6.16128">
        <ele>237.80000305176</ele>
        <time>2013-11-23T13:56:52.000Z</time>
      </trkpt>
      <trkpt lat="47.67817" lon="6.16136">
        <ele>238.80000305176</ele>
        <time>2013-11-23T13:56:59.000Z</time>
      </trkpt>
      <trkpt lat="47.67852" lon="6.16151">
        <ele>239.39999389648</ele>
        <time>2013-11-23T13:57:07.000Z</time>
      </trkpt>
      <trkpt lat="47.67855" lon="6.16154">
        <ele>239.39999389648</ele>
        <time>2013-11-23T13:57:08.000Z</time>
      </trkpt>
      <trkpt lat="47.67868" lon="6.16179">
        <ele>239.19999694824</ele>
        <time>2013-11-23T13:57:13.000Z</time>
      </trkpt>
      <trkpt lat="47.6787" lon="6.16184">
        <ele>239.19999694824</ele>
        <time>2013-11-23T13:57:14.000Z</time>
      </trkpt>
      <trkpt lat="47.67874" lon="6.16195">
        <ele>239</ele>
        <time>2013-11-23T13:57:16.000Z</time>
      </trkpt>
      <trkpt lat="47.67875" lon="6.16201">
        <ele>238.80000305176</ele>
        <time>2013-11-23T13:57:17.000Z</time>
      </trkpt>
      <trkpt lat="47.67877" lon="6.16207">
        <ele>238.80000305176</ele>
        <time>2013-11-23T13:57:18.000Z</time>
      </trkpt>
      <trkpt lat="47.67879" lon="6.16213">
        <ele>238.60000610352</ele>
        <time>2013-11-23T13:57:19.000Z</time>
      </trkpt>
      <trkpt lat="47.67881" lon="6.16219">
        <ele>238.60000610352</ele>
        <time>2013-11-23T13:57:20.000Z</time>
      </trkpt>
      <trkpt lat="47.67897" lon="6.16276">
        <ele>238.39999389648</ele>
        <time>2013-11-23T13:57:30.000Z</time>
      </trkpt>
      <trkpt lat="47.67911" lon="6.16323">
        <ele>238.80000305176</ele>
        <time>2013-11-23T13:57:38.000Z</time>
      </trkpt>
      <trkpt lat="47.67913" lon="6.16329">
        <ele>239</ele>
        <time>2013-11-23T13:57:39.000Z</time>
      </trkpt>
      <trkpt lat="47.67915" lon="6.16335">
        <ele>239</ele>
        <time>2013-11-23T13:57:40.000Z</time>
      </trkpt>
      <trkpt lat="47.67917" lon="6.16342">
        <ele>238.80000305176</ele>
        <time>2013-11-23T13:57:41.000Z</time>
      </trkpt>
      <trkpt lat="47.67919" lon="6.16348">
        <ele>238.80000305176</ele>
        <time>2013-11-23T13:57:42.000Z</time>
      </trkpt>
      <trkpt lat="47.67922" lon="6.16354">
        <ele>238.60000610352</ele>
        <time>2013-11-23T13:57:43.000Z</time>
      </trkpt>
      <trkpt lat="47.67925" lon="6.1636">
        <ele>238.60000610352</ele>
        <time>2013-11-23T13:57:44.000Z</time>
      </trkpt>
      <trkpt lat="47.67935" lon="6.16376">
        <ele>238.19999694824</ele>
        <time>2013-11-23T13:57:47.000Z</time>
      </trkpt>
      <trkpt lat="47.67943" lon="6.16386">
        <ele>238</ele>
        <time>2013-11-23T13:57:49.000Z</time>
      </trkpt>
      <trkpt lat="47.67947" lon="6.16391">
        <ele>237.80000305176</ele>
        <time>2013-11-23T13:57:50.000Z</time>
      </trkpt>
      <trkpt lat="47.67952" lon="6.16394">
        <ele>237.80000305176</ele>
        <time>2013-11-23T13:57:51.000Z</time>
      </trkpt>
      <trkpt lat="47.67957" lon="6.16397">
        <ele>237.60000610352</ele>
        <time>2013-11-23T13:57:52.000Z</time>
      </trkpt>
      <trkpt lat="47.67962" lon="6.164">
        <ele>237.60000610352</ele>
        <time>2013-11-23T13:57:53.000Z</time>
      </trkpt>
      <trkpt lat="47.67967" lon="6.16402">
        <ele>237.39999389648</ele>
        <time>2013-11-23T13:57:54.000Z</time>
      </trkpt>
      <trkpt lat="47.67997" lon="6.16412">
        <ele>237</ele>
        <time>2013-11-23T13:58:00.000Z</time>
      </trkpt>
      <trkpt lat="47.68002" lon="6.16415">
        <ele>237</ele>
        <time>2013-11-23T13:58:01.000Z</time>
      </trkpt>
      <trkpt lat="47.68007" lon="6.16417">
        <ele>237</ele>
        <time>2013-11-23T13:58:02.000Z</time>
      </trkpt>
      <trkpt lat="47.68012" lon="6.16418">
        <ele>237</ele>
        <time>2013-11-23T13:58:03.000Z</time>
      </trkpt>
      <trkpt lat="47.68017" lon="6.16419">
        <ele>237</ele>
        <time>2013-11-23T13:58:04.000Z</time>
      </trkpt>
      <trkpt lat="47.68021" lon="6.16421">
        <ele>237</ele>
        <time>2013-11-23T13:58:05.000Z</time>
      </trkpt>
      <trkpt lat="47.68036" lon="6.16427">
        <ele>236.80000305176</ele>
        <time>2013-11-23T13:58:08.000Z</time>
      </trkpt>
      <trkpt lat="47.6805" lon="6.16441">
        <ele>236.60000610352</ele>
        <time>2013-11-23T13:58:11.000Z</time>
      </trkpt>
      <trkpt lat="47.68053" lon="6.16447">
        <ele>236.60000610352</ele>
        <time>2013-11-23T13:58:12.000Z</time>
      </trkpt>
      <trkpt lat="47.68057" lon="6.16453">
        <ele>236.39999389648</ele>
        <time>2013-11-23T13:58:13.000Z</time>
      </trkpt>
      <trkpt lat="47.68061" lon="6.16459">
        <ele>236.19999694824</ele>
        <time>2013-11-23T13:58:14.000Z</time>
      </trkpt>
      <trkpt lat="47.68065" lon="6.16464">
        <ele>236.19999694824</ele>
        <time>2013-11-23T13:58:15.000Z</time>
      </trkpt>
      <trkpt lat="47.68069" lon="6.16468">
        <ele>236</ele>
        <time>2013-11-23T13:58:16.000Z</time>
      </trkpt>
      <trkpt lat="47.68074" lon="6.1647">
        <ele>235.80000305176</ele>
        <time>2013-11-23T13:58:17.000Z</time>
      </trkpt>
      <trkpt lat="47.68097" lon="6.16483">
        <ele>234.80000305176</ele>
        <time>2013-11-23T13:58:22.000Z</time>
      </trkpt>
      <trkpt lat="47.68102" lon="6.16486">
        <ele>234.39999389648</ele>
        <time>2013-11-23T13:58:23.000Z</time>
      </trkpt>
      <trkpt lat="47.68107" lon="6.16488">
        <ele>234.19999694824</ele>
        <time>2013-11-23T13:58:24.000Z</time>
      </trkpt>
      <trkpt lat="47.68111" lon="6.1649">
        <ele>233.80000305176</ele>
        <time>2013-11-23T13:58:25.000Z</time>
      </trkpt>
      <trkpt lat="47.68127" lon="6.16497">
        <ele>233</ele>
        <time>2013-11-23T13:58:29.000Z</time>
      </trkpt>
      <trkpt lat="47.68128" lon="6.16496">
        <ele>233</ele>
        <time>2013-11-23T13:58:30.000Z</time>
      </trkpt>
      <trkpt lat="47.6813" lon="6.16495">
        <ele>232.80000305176</ele>
        <time>2013-11-23T13:58:31.000Z</time>
      </trkpt>
      <trkpt lat="47.6813" lon="6.16493">
        <ele>232.80000305176</ele>
        <time>2013-11-23T13:58:32.000Z</time>
      </trkpt>
      <trkpt lat="47.68131" lon="6.16491">
        <ele>232.80000305176</ele>
        <time>2013-11-23T13:58:33.000Z</time>
      </trkpt>
      <trkpt lat="47.68133" lon="6.16491">
        <ele>232.80000305176</ele>
        <time>2013-11-23T13:58:34.000Z</time>
      </trkpt>
      <trkpt lat="47.68137" lon="6.16497">
        <ele>232.39999389648</ele>
        <time>2013-11-23T13:58:37.000Z</time>
      </trkpt>
      <trkpt lat="47.68133" lon="6.165">
        <ele>232.60000610352</ele>
        <time>2013-11-23T13:58:41.000Z</time>
      </trkpt>
      <trkpt lat="47.68131" lon="6.16491">
        <ele>232.80000305176</ele>
        <time>2013-11-23T13:58:45.000Z</time>
      </trkpt>
      <trkpt lat="47.68131" lon="6.16488">
        <ele>233</ele>
        <time>2013-11-23T13:58:46.000Z</time>
      </trkpt>
      <trkpt lat="47.68133" lon="6.16485">
        <ele>232.80000305176</ele>
        <time>2013-11-23T13:58:47.000Z</time>
      </trkpt>
      <trkpt lat="47.68134" lon="6.16482">
        <ele>232.80000305176</ele>
        <time>2013-11-23T13:58:48.000Z</time>
      </trkpt>
      <trkpt lat="47.68137" lon="6.16479">
        <ele>232.80000305176</ele>
        <time>2013-11-23T13:58:49.000Z</time>
      </trkpt>
      <trkpt lat="47.68141" lon="6.16462">
        <ele>232.80000305176</ele>
        <time>2013-11-23T13:58:53.000Z</time>
      </trkpt>
      <trkpt lat="47.68148" lon="6.16439">
        <ele>232.80000305176</ele>
        <time>2013-11-23T13:58:57.000Z</time>
      </trkpt>
      <trkpt lat="47.6815" lon="6.16433">
        <ele>232.80000305176</ele>
        <time>2013-11-23T13:58:58.000Z</time>
      </trkpt>
      <trkpt lat="47.68157" lon="6.16406">
        <ele>232.60000610352</ele>
        <time>2013-11-23T13:59:02.000Z</time>
      </trkpt>
      <trkpt lat="47.68159" lon="6.16398">
        <ele>232.60000610352</ele>
        <time>2013-11-23T13:59:03.000Z</time>
      </trkpt>
      <trkpt lat="47.6816" lon="6.16392">
        <ele>232.60000610352</ele>
        <time>2013-11-23T13:59:04.000Z</time>
      </trkpt>
      <trkpt lat="47.68162" lon="6.16385">
        <ele>232.60000610352</ele>
        <time>2013-11-23T13:59:05.000Z</time>
      </trkpt>
      <trkpt lat="47.68164" lon="6.16379">
        <ele>232.60000610352</ele>
        <time>2013-11-23T13:59:06.000Z</time>
      </trkpt>
      <trkpt lat="47.68175" lon="6.16335">
        <ele>232.80000305176</ele>
        <time>2013-11-23T13:59:13.000Z</time>
      </trkpt>
      <trkpt lat="47.68179" lon="6.1629">
        <ele>233</ele>
        <time>2013-11-23T13:59:20.000Z</time>
      </trkpt>
      <trkpt lat="47.68183" lon="6.16258">
        <ele>233.19999694824</ele>
        <time>2013-11-23T13:59:26.000Z</time>
      </trkpt>
      <trkpt lat="47.6819" lon="6.16252">
        <ele>232.80000305176</ele>
        <time>2013-11-23T13:59:28.000Z</time>
      </trkpt>
      <trkpt lat="47.68193" lon="6.16249">
        <ele>232.80000305176</ele>
        <time>2013-11-23T13:59:29.000Z</time>
      </trkpt>
      <trkpt lat="47.68197" lon="6.16246">
        <ele>232.60000610352</ele>
        <time>2013-11-23T13:59:30.000Z</time>
      </trkpt>
      <trkpt lat="47.682" lon="6.16243">
        <ele>232.60000610352</ele>
        <time>2013-11-23T13:59:31.000Z</time>
      </trkpt>
      <trkpt lat="47.68203" lon="6.16238">
        <ele>232.39999389648</ele>
        <time>2013-11-23T13:59:32.000Z</time>
      </trkpt>
      <trkpt lat="47.68211" lon="6.16223">
        <ele>232.39999389648</ele>
        <time>2013-11-23T13:59:35.000Z</time>
      </trkpt>
      <trkpt lat="47.68216" lon="6.16193">
        <ele>232.60000610352</ele>
        <time>2013-11-23T13:59:40.000Z</time>
      </trkpt>
      <trkpt lat="47.68224" lon="6.1614">
        <ele>233</ele>
        <time>2013-11-23T13:59:50.000Z</time>
      </trkpt>
      <trkpt lat="47.68229" lon="6.16102">
        <ele>233.39999389648</ele>
        <time>2013-11-23T13:59:58.000Z</time>
      </trkpt>
      <trkpt lat="47.68232" lon="6.16066">
        <ele>233.80000305176</ele>
        <time>2013-11-23T14:00:06.000Z</time>
      </trkpt>
      <trkpt lat="47.6823" lon="6.16037">
        <ele>234.39999389648</ele>
        <time>2013-11-23T14:00:12.000Z</time>
      </trkpt>
      <trkpt lat="47.68223" lon="6.16005">
        <ele>235.39999389648</ele>
        <time>2013-11-23T14:00:19.000Z</time>
      </trkpt>
      <trkpt lat="47.68219" lon="6.15977">
        <ele>235.80000305176</ele>
        <time>2013-11-23T14:00:26.000Z</time>
      </trkpt>
      <trkpt lat="47.68213" lon="6.15947">
        <ele>236</ele>
        <time>2013-11-23T14:00:35.000Z</time>
      </trkpt>
      <trkpt lat="47.68208" lon="6.15925">
        <ele>236.19999694824</ele>
        <time>2013-11-23T14:00:41.000Z</time>
      </trkpt>
      <trkpt lat="47.68201" lon="6.15894">
        <ele>236.39999389648</ele>
        <time>2013-11-23T14:00:48.000Z</time>
      </trkpt>
      <trkpt lat="47.68193" lon="6.15865">
        <ele>236.39999389648</ele>
        <time>2013-11-23T14:00:55.000Z</time>
      </trkpt>
      <trkpt lat="47.68186" lon="6.15838">
        <ele>236.39999389648</ele>
        <time>2013-11-23T14:01:02.000Z</time>
      </trkpt>
      <trkpt lat="47.68183" lon="6.15829">
        <ele>236.39999389648</ele>
        <time>2013-11-23T14:01:04.000Z</time>
      </trkpt>
      <trkpt lat="47.68183" lon="6.15824">
        <ele>236.39999389648</ele>
        <time>2013-11-23T14:01:05.000Z</time>
      </trkpt>
      <trkpt lat="47.68182" lon="6.15819">
        <ele>236.39999389648</ele>
        <time>2013-11-23T14:01:06.000Z</time>
      </trkpt>
      <trkpt lat="47.68182" lon="6.15814">
        <ele>236.39999389648</ele>
        <time>2013-11-23T14:01:07.000Z</time>
      </trkpt>
      <trkpt lat="47.68181" lon="6.15809">
        <ele>236.39999389648</ele>
        <time>2013-11-23T14:01:08.000Z</time>
      </trkpt>
      <trkpt lat="47.68179" lon="6.15765">
        <ele>236</ele>
        <time>2013-11-23T14:01:15.000Z</time>
      </trkpt>
      <trkpt lat="47.68179" lon="6.15748">
        <ele>236</ele>
        <time>2013-11-23T14:01:18.000Z</time>
      </trkpt>
      <trkpt lat="47.68179" lon="6.15742">
        <ele>236</ele>
        <time>2013-11-23T14:01:19.000Z</time>
      </trkpt>
      <trkpt lat="47.68179" lon="6.15737">
        <ele>235.80000305176</ele>
        <time>2013-11-23T14:01:20.000Z</time>
      </trkpt>
      <trkpt lat="47.68178" lon="6.15732">
        <ele>235.80000305176</ele>
        <time>2013-11-23T14:01:21.000Z</time>
      </trkpt>
      <trkpt lat="47.68177" lon="6.15728">
        <ele>235.80000305176</ele>
        <time>2013-11-23T14:01:22.000Z</time>
      </trkpt>
      <trkpt lat="47.68177" lon="6.157">
        <ele>235.60000610352</ele>
        <time>2013-11-23T14:01:28.000Z</time>
      </trkpt>
      <trkpt lat="47.6818" lon="6.15674">
        <ele>235.39999389648</ele>
        <time>2013-11-23T14:01:34.000Z</time>
      </trkpt>
      <trkpt lat="47.6818" lon="6.15635">
        <ele>236.39999389648</ele>
        <time>2013-11-23T14:01:43.000Z</time>
      </trkpt>
      <trkpt lat="47.68182" lon="6.15607">
        <ele>237.19999694824</ele>
        <time>2013-11-23T14:01:50.000Z</time>
      </trkpt>
      <trkpt lat="47.68184" lon="6.15581">
        <ele>238.19999694824</ele>
        <time>2013-11-23T14:01:57.000Z</time>
      </trkpt>
      <trkpt lat="47.68184" lon="6.15554">
        <ele>239.60000610352</ele>
        <time>2013-11-23T14:02:05.000Z</time>
      </trkpt>
      <trkpt lat="47.68185" lon="6.15531">
        <ele>240.80000305176</ele>
        <time>2013-11-23T14:02:13.000Z</time>
      </trkpt>
      <trkpt lat="47.68186" lon="6.15511">
        <ele>242</ele>
        <time>2013-11-23T14:02:20.000Z</time>
      </trkpt>
      <trkpt lat="47.68186" lon="6.15496">
        <ele>242.80000305176</ele>
        <time>2013-11-23T14:02:26.000Z</time>
      </trkpt>
      <trkpt lat="47.68187" lon="6.15492">
        <ele>243.19999694824</ele>
        <time>2013-11-23T14:02:28.000Z</time>
      </trkpt>
      <trkpt lat="47.68187" lon="6.15489">
        <ele>243.39999389648</ele>
        <time>2013-11-23T14:02:29.000Z</time>
      </trkpt>
      <trkpt lat="47.68187" lon="6.15487">
        <ele>243.39999389648</ele>
        <time>2013-11-23T14:02:30.000Z</time>
      </trkpt>
      <trkpt lat="47.68187" lon="6.15485">
        <ele>243.60000610352</ele>
        <time>2013-11-23T14:02:31.000Z</time>
      </trkpt>
      <trkpt lat="47.68187" lon="6.15482">
        <ele>243.80000305176</ele>
        <time>2013-11-23T14:02:32.000Z</time>
      </trkpt>
      <trkpt lat="47.68188" lon="6.15461">
        <ele>245.39999389648</ele>
        <time>2013-11-23T14:02:39.000Z</time>
      </trkpt>
      <trkpt lat="47.6819" lon="6.15449">
        <ele>246.39999389648</ele>
        <time>2013-11-23T14:02:44.000Z</time>
      </trkpt>
      <trkpt lat="47.6819" lon="6.15447">
        <ele>246.39999389648</ele>
        <time>2013-11-23T14:02:45.000Z</time>
      </trkpt>
      <trkpt lat="47.6819" lon="6.15444">
        <ele>246.60000610352</ele>
        <time>2013-11-23T14:02:46.000Z</time>
      </trkpt>
      <trkpt lat="47.6819" lon="6.15442">
        <ele>246.80000305176</ele>
        <time>2013-11-23T14:02:47.000Z</time>
      </trkpt>
      <trkpt lat="47.6819" lon="6.15439">
        <ele>247</ele>
        <time>2013-11-23T14:02:48.000Z</time>
      </trkpt>
      <trkpt lat="47.68191" lon="6.15432">
        <ele>247.60000610352</ele>
        <time>2013-11-23T14:02:51.000Z</time>
      </trkpt>
      <trkpt lat="47.68193" lon="6.15411">
        <ele>249</ele>
        <time>2013-11-23T14:02:58.000Z</time>
      </trkpt>
      <trkpt lat="47.68196" lon="6.15394">
        <ele>249.80000305176</ele>
        <time>2013-11-23T14:03:05.000Z</time>
      </trkpt>
      <trkpt lat="47.68198" lon="6.15387">
        <ele>250</ele>
        <time>2013-11-23T14:03:08.000Z</time>
      </trkpt>
      <trkpt lat="47.68198" lon="6.15385">
        <ele>250.19999694824</ele>
        <time>2013-11-23T14:03:09.000Z</time>
      </trkpt>
      <trkpt lat="47.68198" lon="6.15383">
        <ele>250.39999389648</ele>
        <time>2013-11-23T14:03:10.000Z</time>
      </trkpt>
      <trkpt lat="47.68199" lon="6.1538">
        <ele>250.39999389648</ele>
        <time>2013-11-23T14:03:11.000Z</time>
      </trkpt>
      <trkpt lat="47.68199" lon="6.15378">
        <ele>250.60000610352</ele>
        <time>2013-11-23T14:03:12.000Z</time>
      </trkpt>
      <trkpt lat="47.682" lon="6.15373">
        <ele>250.80000305176</ele>
        <time>2013-11-23T14:03:14.000Z</time>
      </trkpt>
      <trkpt lat="47.68202" lon="6.15361">
        <ele>251.39999389648</ele>
        <time>2013-11-23T14:03:19.000Z</time>
      </trkpt>
      <trkpt lat="47.68202" lon="6.15359">
        <ele>251.60000610352</ele>
        <time>2013-11-23T14:03:20.000Z</time>
      </trkpt>
      <trkpt lat="47.68206" lon="6.15347">
        <ele>252.19999694824</ele>
        <time>2013-11-23T14:03:26.000Z</time>
      </trkpt>
      <trkpt lat="47.68209" lon="6.15327">
        <ele>253.19999694824</ele>
        <time>2013-11-23T14:03:35.000Z</time>
      </trkpt>
      <trkpt lat="47.68213" lon="6.15309">
        <ele>253.60000610352</ele>
        <time>2013-11-23T14:03:43.000Z</time>
      </trkpt>
      <trkpt lat="47.68215" lon="6.15291">
        <ele>254.19999694824</ele>
        <time>2013-11-23T14:03:51.000Z</time>
      </trkpt>
      <trkpt lat="47.68216" lon="6.15287">
        <ele>254.19999694824</ele>
        <time>2013-11-23T14:03:53.000Z</time>
      </trkpt>
      <trkpt lat="47.68216" lon="6.15285">
        <ele>254.39999389648</ele>
        <time>2013-11-23T14:03:54.000Z</time>
      </trkpt>
      <trkpt lat="47.68217" lon="6.15283">
        <ele>254.39999389648</ele>
        <time>2013-11-23T14:03:55.000Z</time>
      </trkpt>
      <trkpt lat="47.68217" lon="6.1528">
        <ele>254.39999389648</ele>
        <time>2013-11-23T14:03:56.000Z</time>
      </trkpt>
      <trkpt lat="47.68218" lon="6.15279">
        <ele>254.60000610352</ele>
        <time>2013-11-23T14:03:57.000Z</time>
      </trkpt>
      <trkpt lat="47.68219" lon="6.15267">
        <ele>254.80000305176</ele>
        <time>2013-11-23T14:04:02.000Z</time>
      </trkpt>
      <trkpt lat="47.68221" lon="6.15261">
        <ele>255</ele>
        <time>2013-11-23T14:04:05.000Z</time>
      </trkpt>
      <trkpt lat="47.68226" lon="6.15257">
        <ele>255.19999694824</ele>
        <time>2013-11-23T14:04:08.000Z</time>
      </trkpt>
      <trkpt lat="47.68229" lon="6.15256">
        <ele>255.39999389648</ele>
        <time>2013-11-23T14:04:10.000Z</time>
      </trkpt>
      <trkpt lat="47.68239" lon="6.15248">
        <ele>255.80000305176</ele>
        <time>2013-11-23T14:04:17.000Z</time>
      </trkpt>
      <trkpt lat="47.6825" lon="6.15244">
        <ele>256.20001220703</ele>
        <time>2013-11-23T14:04:24.000Z</time>
      </trkpt>
      <trkpt lat="47.68252" lon="6.15242">
        <ele>256.39999389648</ele>
        <time>2013-11-23T14:04:25.000Z</time>
      </trkpt>
      <trkpt lat="47.68259" lon="6.15237">
        <ele>256.79998779297</ele>
        <time>2013-11-23T14:04:29.000Z</time>
      </trkpt>
      <trkpt lat="47.68274" lon="6.15228">
        <ele>258</ele>
        <time>2013-11-23T14:04:38.000Z</time>
      </trkpt>
      <trkpt lat="47.68275" lon="6.15228">
        <ele>258</ele>
        <time>2013-11-23T14:04:39.000Z</time>
      </trkpt>
      <trkpt lat="47.68277" lon="6.15227">
        <ele>258.20001220703</ele>
        <time>2013-11-23T14:04:40.000Z</time>
      </trkpt>
      <trkpt lat="47.68278" lon="6.15226">
        <ele>258.20001220703</ele>
        <time>2013-11-23T14:04:41.000Z</time>
      </trkpt>
      <trkpt lat="47.6828" lon="6.15225">
        <ele>258.39999389648</ele>
        <time>2013-11-23T14:04:42.000Z</time>
      </trkpt>
      <trkpt lat="47.68282" lon="6.15224">
        <ele>258.60000610352</ele>
        <time>2013-11-23T14:04:43.000Z</time>
      </trkpt>
      <trkpt lat="47.68289" lon="6.15219">
        <ele>259</ele>
        <time>2013-11-23T14:04:47.000Z</time>
      </trkpt>
      <trkpt lat="47.68303" lon="6.15212">
        <ele>260</ele>
        <time>2013-11-23T14:04:55.000Z</time>
      </trkpt>
      <trkpt lat="47.68318" lon="6.15202">
        <ele>261.20001220703</ele>
        <time>2013-11-23T14:05:03.000Z</time>
      </trkpt>
      <trkpt lat="47.68334" lon="6.15193">
        <ele>262.39999389648</ele>
        <time>2013-11-23T14:05:09.000Z</time>
      </trkpt>
      <trkpt lat="47.68353" lon="6.15181">
        <ele>261.60000610352</ele>
        <time>2013-11-23T14:05:17.000Z</time>
      </trkpt>
      <trkpt lat="47.68364" lon="6.15164">
        <ele>261.60000610352</ele>
        <time>2013-11-23T14:05:23.000Z</time>
      </trkpt>
      <trkpt lat="47.68367" lon="6.15144">
        <ele>261.60000610352</ele>
        <time>2013-11-23T14:05:29.000Z</time>
      </trkpt>
      <trkpt lat="47.68367" lon="6.15116">
        <ele>261.79998779297</ele>
        <time>2013-11-23T14:05:37.000Z</time>
      </trkpt>
      <trkpt lat="47.68367" lon="6.15083">
        <ele>262.20001220703</ele>
        <time>2013-11-23T14:05:45.000Z</time>
      </trkpt>
      <trkpt lat="47.68368" lon="6.15042">
        <ele>262.39999389648</ele>
        <time>2013-11-23T14:05:54.000Z</time>
      </trkpt>
      <trkpt lat="47.68368" lon="6.15007">
        <ele>262.79998779297</ele>
        <time>2013-11-23T14:06:02.000Z</time>
      </trkpt>
      <trkpt lat="47.68368" lon="6.1497">
        <ele>263.20001220703</ele>
        <time>2013-11-23T14:06:11.000Z</time>
      </trkpt>
      <trkpt lat="47.68368" lon="6.1494">
        <ele>263.39999389648</ele>
        <time>2013-11-23T14:06:18.000Z</time>
      </trkpt>
      <trkpt lat="47.68368" lon="6.14903">
        <ele>263.79998779297</ele>
        <time>2013-11-23T14:06:27.000Z</time>
      </trkpt>
      <trkpt lat="47.6837" lon="6.14869">
        <ele>264</ele>
        <time>2013-11-23T14:06:36.000Z</time>
      </trkpt>
      <trkpt lat="47.6837" lon="6.14836">
        <ele>264.20001220703</ele>
        <time>2013-11-23T14:06:44.000Z</time>
      </trkpt>
      <trkpt lat="47.68371" lon="6.14804">
        <ele>264.20001220703</ele>
        <time>2013-11-23T14:06:52.000Z</time>
      </trkpt>
      <trkpt lat="47.6837" lon="6.14768">
        <ele>264.20001220703</ele>
        <time>2013-11-23T14:07:01.000Z</time>
      </trkpt>
      <trkpt lat="47.68366" lon="6.14735">
        <ele>264.60000610352</ele>
        <time>2013-11-23T14:07:09.000Z</time>
      </trkpt>
      <trkpt lat="47.68365" lon="6.14731">
        <ele>264.60000610352</ele>
        <time>2013-11-23T14:07:10.000Z</time>
      </trkpt>
      <trkpt lat="47.68364" lon="6.14727">
        <ele>264.79998779297</ele>
        <time>2013-11-23T14:07:11.000Z</time>
      </trkpt>
      <trkpt lat="47.68363" lon="6.14723">
        <ele>264.79998779297</ele>
        <time>2013-11-23T14:07:12.000Z</time>
      </trkpt>
      <trkpt lat="47.68362" lon="6.14719">
        <ele>264.79998779297</ele>
        <time>2013-11-23T14:07:13.000Z</time>
      </trkpt>
      <trkpt lat="47.68353" lon="6.14689">
        <ele>265.39999389648</ele>
        <time>2013-11-23T14:07:21.000Z</time>
      </trkpt>
      <trkpt lat="47.68344" lon="6.14664">
        <ele>265.79998779297</ele>
        <time>2013-11-23T14:07:28.000Z</time>
      </trkpt>
      <trkpt lat="47.68333" lon="6.14642">
        <ele>266.79998779297</ele>
        <time>2013-11-23T14:07:34.000Z</time>
      </trkpt>
      <trkpt lat="47.68323" lon="6.14624">
        <ele>267.60000610352</ele>
        <time>2013-11-23T14:07:39.000Z</time>
      </trkpt>
      <trkpt lat="47.68309" lon="6.14592">
        <ele>268.60000610352</ele>
        <time>2013-11-23T14:07:47.000Z</time>
      </trkpt>
      <trkpt lat="47.6829" lon="6.14553">
        <ele>268.79998779297</ele>
        <time>2013-11-23T14:07:57.000Z</time>
      </trkpt>
      <trkpt lat="47.68276" lon="6.14523">
        <ele>269</ele>
        <time>2013-11-23T14:08:04.000Z</time>
      </trkpt>
      <trkpt lat="47.68259" lon="6.14489">
        <ele>269.39999389648</ele>
        <time>2013-11-23T14:08:12.000Z</time>
      </trkpt>
      <trkpt lat="47.68243" lon="6.14456">
        <ele>270</ele>
        <time>2013-11-23T14:08:20.000Z</time>
      </trkpt>
      <trkpt lat="47.68231" lon="6.14429">
        <ele>270.20001220703</ele>
        <time>2013-11-23T14:08:27.000Z</time>
      </trkpt>
      <trkpt lat="47.68213" lon="6.14393">
        <ele>270.79998779297</ele>
        <time>2013-11-23T14:08:36.000Z</time>
      </trkpt>
      <trkpt lat="47.68195" lon="6.14355">
        <ele>271.60000610352</ele>
        <time>2013-11-23T14:08:45.000Z</time>
      </trkpt>
      <trkpt lat="47.68175" lon="6.14316">
        <ele>272.39999389648</ele>
        <time>2013-11-23T14:08:54.000Z</time>
      </trkpt>
      <trkpt lat="47.68162" lon="6.14286">
        <ele>272.39999389648</ele>
        <time>2013-11-23T14:09:01.000Z</time>
      </trkpt>
      <trkpt lat="47.68158" lon="6.14278">
        <ele>272.39999389648</ele>
        <time>2013-11-23T14:09:03.000Z</time>
      </trkpt>
      <trkpt lat="47.68156" lon="6.14274">
        <ele>272.20001220703</ele>
        <time>2013-11-23T14:09:04.000Z</time>
      </trkpt>
      <trkpt lat="47.68154" lon="6.1427">
        <ele>272.20001220703</ele>
        <time>2013-11-23T14:09:05.000Z</time>
      </trkpt>
      <trkpt lat="47.68152" lon="6.14266">
        <ele>272.20001220703</ele>
        <time>2013-11-23T14:09:06.000Z</time>
      </trkpt>
      <trkpt lat="47.68148" lon="6.14258">
        <ele>272.20001220703</ele>
        <time>2013-11-23T14:09:08.000Z</time>
      </trkpt>
      <trkpt lat="47.68135" lon="6.14231">
        <ele>272.20001220703</ele>
        <time>2013-11-23T14:09:14.000Z</time>
      </trkpt>
      <trkpt lat="47.68133" lon="6.14225">
        <ele>272.20001220703</ele>
        <time>2013-11-23T14:09:15.000Z</time>
      </trkpt>
      <trkpt lat="47.68136" lon="6.14212">
        <ele>272.60000610352</ele>
        <time>2013-11-23T14:09:18.000Z</time>
      </trkpt>
      <trkpt lat="47.68143" lon="6.14205">
        <ele>273</ele>
        <time>2013-11-23T14:09:21.000Z</time>
      </trkpt>
      <trkpt lat="47.68149" lon="6.14197">
        <ele>273.39999389648</ele>
        <time>2013-11-23T14:09:24.000Z</time>
      </trkpt>
      <trkpt lat="47.68162" lon="6.14181">
        <ele>274.39999389648</ele>
        <time>2013-11-23T14:09:31.000Z</time>
      </trkpt>
      <trkpt lat="47.68175" lon="6.14164">
        <ele>275.39999389648</ele>
        <time>2013-11-23T14:09:38.000Z</time>
      </trkpt>
      <trkpt lat="47.68193" lon="6.14142">
        <ele>276.20001220703</ele>
        <time>2013-11-23T14:09:47.000Z</time>
      </trkpt>
      <trkpt lat="47.68209" lon="6.14119">
        <ele>277</ele>
        <time>2013-11-23T14:09:55.000Z</time>
      </trkpt>
      <trkpt lat="47.68223" lon="6.14097">
        <ele>277.79998779297</ele>
        <time>2013-11-23T14:10:03.000Z</time>
      </trkpt>
      <trkpt lat="47.68236" lon="6.14076">
        <ele>278.39999389648</ele>
        <time>2013-11-23T14:10:10.000Z</time>
      </trkpt>
      <trkpt lat="47.68249" lon="6.1405">
        <ele>279</ele>
        <time>2013-11-23T14:10:18.000Z</time>
      </trkpt>
      <trkpt lat="47.68251" lon="6.14047">
        <ele>279</ele>
        <time>2013-11-23T14:10:19.000Z</time>
      </trkpt>
      <trkpt lat="47.68252" lon="6.14044">
        <ele>279.20001220703</ele>
        <time>2013-11-23T14:10:20.000Z</time>
      </trkpt>
      <trkpt lat="47.68254" lon="6.14041">
        <ele>279.20001220703</ele>
        <time>2013-11-23T14:10:21.000Z</time>
      </trkpt>
      <trkpt lat="47.68263" lon="6.14023">
        <ele>279.60000610352</ele>
        <time>2013-11-23T14:10:27.000Z</time>
      </trkpt>
      <trkpt lat="47.68276" lon="6.13997">
        <ele>280.20001220703</ele>
        <time>2013-11-23T14:10:35.000Z</time>
      </trkpt>
      <trkpt lat="47.68286" lon="6.13976">
        <ele>280.60000610352</ele>
        <time>2013-11-23T14:10:43.000Z</time>
      </trkpt>
      <trkpt lat="47.68299" lon="6.13956">
        <ele>281</ele>
        <time>2013-11-23T14:10:51.000Z</time>
      </trkpt>
      <trkpt lat="47.68311" lon="6.13938">
        <ele>281.39999389648</ele>
        <time>2013-11-23T14:10:58.000Z</time>
      </trkpt>
      <trkpt lat="47.68323" lon="6.13921">
        <ele>281.60000610352</ele>
        <time>2013-11-23T14:11:05.000Z</time>
      </trkpt>
      <trkpt lat="47.68335" lon="6.13905">
        <ele>282</ele>
        <time>2013-11-23T14:11:12.000Z</time>
      </trkpt>
      <trkpt lat="47.68346" lon="6.13888">
        <ele>282.20001220703</ele>
        <time>2013-11-23T14:11:19.000Z</time>
      </trkpt>
      <trkpt lat="47.68357" lon="6.13872">
        <ele>282.60000610352</ele>
        <time>2013-11-23T14:11:26.000Z</time>
      </trkpt>
      <trkpt lat="47.68368" lon="6.13855">
        <ele>283.20001220703</ele>
        <time>2013-11-23T14:11:34.000Z</time>
      </trkpt>
      <trkpt lat="47.68378" lon="6.13833">
        <ele>283.60000610352</ele>
        <time>2013-11-23T14:11:42.000Z</time>
      </trkpt>
      <trkpt lat="47.6838" lon="6.13827">
        <ele>283.79998779297</ele>
        <time>2013-11-23T14:11:46.000Z</time>
      </trkpt>
      <trkpt lat="47.68383" lon="6.1382">
        <ele>283.79998779297</ele>
        <time>2013-11-23T14:12:45.000Z</time>
      </trkpt>
      <trkpt lat="47.68388" lon="6.13808">
        <ele>283.79998779297</ele>
        <time>2013-11-23T14:12:49.000Z</time>
      </trkpt>
      <trkpt lat="47.68389" lon="6.13804">
        <ele>283.79998779297</ele>
        <time>2013-11-23T14:12:50.000Z</time>
      </trkpt>
      <trkpt lat="47.68392" lon="6.13782">
        <ele>283.39999389648</ele>
        <time>2013-11-23T14:12:56.000Z</time>
      </trkpt>
      <trkpt lat="47.68388" lon="6.13767">
        <ele>283</ele>
        <time>2013-11-23T14:12:59.000Z</time>
      </trkpt>
      <trkpt lat="47.68385" lon="6.13762">
        <ele>282.79998779297</ele>
        <time>2013-11-23T14:13:00.000Z</time>
      </trkpt>
      <trkpt lat="47.68381" lon="6.13758">
        <ele>282.39999389648</ele>
        <time>2013-11-23T14:13:01.000Z</time>
      </trkpt>
      <trkpt lat="47.68376" lon="6.13754">
        <ele>282.20001220703</ele>
        <time>2013-11-23T14:13:02.000Z</time>
      </trkpt>
      <trkpt lat="47.68372" lon="6.13749">
        <ele>281.79998779297</ele>
        <time>2013-11-23T14:13:03.000Z</time>
      </trkpt>
      <trkpt lat="47.68366" lon="6.13743">
        <ele>281.39999389648</ele>
        <time>2013-11-23T14:13:04.000Z</time>
      </trkpt>
      <trkpt lat="47.68361" lon="6.13738">
        <ele>281</ele>
        <time>2013-11-23T14:13:05.000Z</time>
      </trkpt>
      <trkpt lat="47.68356" lon="6.13733">
        <ele>280.60000610352</ele>
        <time>2013-11-23T14:13:06.000Z</time>
      </trkpt>
      <trkpt lat="47.68351" lon="6.13728">
        <ele>280.20001220703</ele>
        <time>2013-11-23T14:13:07.000Z</time>
      </trkpt>
      <trkpt lat="47.68346" lon="6.13723">
        <ele>279.79998779297</ele>
        <time>2013-11-23T14:13:08.000Z</time>
      </trkpt>
      <trkpt lat="47.68341" lon="6.13718">
        <ele>279.60000610352</ele>
        <time>2013-11-23T14:13:09.000Z</time>
      </trkpt>
      <trkpt lat="47.68336" lon="6.13713">
        <ele>279.20001220703</ele>
        <time>2013-11-23T14:13:10.000Z</time>
      </trkpt>
      <trkpt lat="47.6833" lon="6.13707">
        <ele>278.79998779297</ele>
        <time>2013-11-23T14:13:11.000Z</time>
      </trkpt>
      <trkpt lat="47.68325" lon="6.13702">
        <ele>278.39999389648</ele>
        <time>2013-11-23T14:13:12.000Z</time>
      </trkpt>
      <trkpt lat="47.6832" lon="6.13697">
        <ele>278</ele>
        <time>2013-11-23T14:13:13.000Z</time>
      </trkpt>
      <trkpt lat="47.6831" lon="6.13686">
        <ele>277.39999389648</ele>
        <time>2013-11-23T14:13:15.000Z</time>
      </trkpt>
      <trkpt lat="47.68305" lon="6.1368">
        <ele>277</ele>
        <time>2013-11-23T14:13:16.000Z</time>
      </trkpt>
      <trkpt lat="47.683" lon="6.13675">
        <ele>276.60000610352</ele>
        <time>2013-11-23T14:13:17.000Z</time>
      </trkpt>
      <trkpt lat="47.68295" lon="6.1367">
        <ele>276.20001220703</ele>
        <time>2013-11-23T14:13:18.000Z</time>
      </trkpt>
      <trkpt lat="47.6829" lon="6.13665">
        <ele>276</ele>
        <time>2013-11-23T14:13:19.000Z</time>
      </trkpt>
      <trkpt lat="47.68285" lon="6.1366">
        <ele>275.60000610352</ele>
        <time>2013-11-23T14:13:20.000Z</time>
      </trkpt>
      <trkpt lat="47.6827" lon="6.13644">
        <ele>274.60000610352</ele>
        <time>2013-11-23T14:13:23.000Z</time>
      </trkpt>
      <trkpt lat="47.68265" lon="6.13638">
        <ele>274.39999389648</ele>
        <time>2013-11-23T14:13:24.000Z</time>
      </trkpt>
      <trkpt lat="47.68259" lon="6.13633">
        <ele>274</ele>
        <time>2013-11-23T14:13:25.000Z</time>
      </trkpt>
      <trkpt lat="47.68254" lon="6.13626">
        <ele>273.60000610352</ele>
        <time>2013-11-23T14:13:26.000Z</time>
      </trkpt>
      <trkpt lat="47.68249" lon="6.1362">
        <ele>273.39999389648</ele>
        <time>2013-11-23T14:13:27.000Z</time>
      </trkpt>
      <trkpt lat="47.68243" lon="6.13615">
        <ele>272.79998779297</ele>
        <time>2013-11-23T14:13:28.000Z</time>
      </trkpt>
      <trkpt lat="47.68238" lon="6.13609">
        <ele>272.39999389648</ele>
        <time>2013-11-23T14:13:29.000Z</time>
      </trkpt>
      <trkpt lat="47.68232" lon="6.13603">
        <ele>271.79998779297</ele>
        <time>2013-11-23T14:13:30.000Z</time>
      </trkpt>
      <trkpt lat="47.68226" lon="6.13597">
        <ele>271.20001220703</ele>
        <time>2013-11-23T14:13:31.000Z</time>
      </trkpt>
      <trkpt lat="47.6822" lon="6.13591">
        <ele>270.60000610352</ele>
        <time>2013-11-23T14:13:32.000Z</time>
      </trkpt>
      <trkpt lat="47.68214" lon="6.13584">
        <ele>270</ele>
        <time>2013-11-23T14:13:33.000Z</time>
      </trkpt>
      <trkpt lat="47.68208" lon="6.13578">
        <ele>269.20001220703</ele>
        <time>2013-11-23T14:13:34.000Z</time>
      </trkpt>
      <trkpt lat="47.68201" lon="6.13572">
        <ele>268.60000610352</ele>
        <time>2013-11-23T14:13:35.000Z</time>
      </trkpt>
      <trkpt lat="47.68194" lon="6.13565">
        <ele>267.79998779297</ele>
        <time>2013-11-23T14:13:36.000Z</time>
      </trkpt>
      <trkpt lat="47.68187" lon="6.13558">
        <ele>267</ele>
        <time>2013-11-23T14:13:37.000Z</time>
      </trkpt>
      <trkpt lat="47.6818" lon="6.1355">
        <ele>266.20001220703</ele>
        <time>2013-11-23T14:13:38.000Z</time>
      </trkpt>
      <trkpt lat="47.68172" lon="6.13542">
        <ele>265.39999389648</ele>
        <time>2013-11-23T14:13:39.000Z</time>
      </trkpt>
      <trkpt lat="47.68165" lon="6.13534">
        <ele>264.60000610352</ele>
        <time>2013-11-23T14:13:40.000Z</time>
      </trkpt>
      <trkpt lat="47.68156" lon="6.13525">
        <ele>264</ele>
        <time>2013-11-23T14:13:41.000Z</time>
      </trkpt>
      <trkpt lat="47.68148" lon="6.13516">
        <ele>263.39999389648</ele>
        <time>2013-11-23T14:13:42.000Z</time>
      </trkpt>
      <trkpt lat="47.6814" lon="6.13507">
        <ele>262.79998779297</ele>
        <time>2013-11-23T14:13:43.000Z</time>
      </trkpt>
      <trkpt lat="47.68132" lon="6.13499">
        <ele>262.39999389648</ele>
        <time>2013-11-23T14:13:44.000Z</time>
      </trkpt>
      <trkpt lat="47.68125" lon="6.13492">
        <ele>262</ele>
        <time>2013-11-23T14:13:45.000Z</time>
      </trkpt>
      <trkpt lat="47.68117" lon="6.13484">
        <ele>261.79998779297</ele>
        <time>2013-11-23T14:13:46.000Z</time>
      </trkpt>
      <trkpt lat="47.68109" lon="6.13475">
        <ele>261.39999389648</ele>
        <time>2013-11-23T14:13:47.000Z</time>
      </trkpt>
      <trkpt lat="47.68101" lon="6.13468">
        <ele>261.20001220703</ele>
        <time>2013-11-23T14:13:48.000Z</time>
      </trkpt>
      <trkpt lat="47.68094" lon="6.1346">
        <ele>261</ele>
        <time>2013-11-23T14:13:49.000Z</time>
      </trkpt>
      <trkpt lat="47.68086" lon="6.13452">
        <ele>260.79998779297</ele>
        <time>2013-11-23T14:13:50.000Z</time>
      </trkpt>
      <trkpt lat="47.6808" lon="6.13445">
        <ele>260.39999389648</ele>
        <time>2013-11-23T14:13:51.000Z</time>
      </trkpt>
      <trkpt lat="47.68074" lon="6.13439">
        <ele>260.20001220703</ele>
        <time>2013-11-23T14:13:52.000Z</time>
      </trkpt>
      <trkpt lat="47.68057" lon="6.13421">
        <ele>259.39999389648</ele>
        <time>2013-11-23T14:13:55.000Z</time>
      </trkpt>
      <trkpt lat="47.68031" lon="6.13394">
        <ele>258.60000610352</ele>
        <time>2013-11-23T14:14:00.000Z</time>
      </trkpt>
      <trkpt lat="47.68026" lon="6.13389">
        <ele>258.39999389648</ele>
        <time>2013-11-23T14:14:01.000Z</time>
      </trkpt>
      <trkpt lat="47.68021" lon="6.13384">
        <ele>258.39999389648</ele>
        <time>2013-11-23T14:14:02.000Z</time>
      </trkpt>
      <trkpt lat="47.68017" lon="6.13379">
        <ele>258.39999389648</ele>
        <time>2013-11-23T14:14:03.000Z</time>
      </trkpt>
      <trkpt lat="47.67998" lon="6.13358">
        <ele>258.79998779297</ele>
        <time>2013-11-23T14:14:08.000Z</time>
      </trkpt>
      <trkpt lat="47.67975" lon="6.13336">
        <ele>260.39999389648</ele>
        <time>2013-11-23T14:14:15.000Z</time>
      </trkpt>
      <trkpt lat="47.67959" lon="6.13322">
        <ele>261.20001220703</ele>
        <time>2013-11-23T14:14:21.000Z</time>
      </trkpt>
      <trkpt lat="47.67956" lon="6.1332">
        <ele>261.20001220703</ele>
        <time>2013-11-23T14:14:22.000Z</time>
      </trkpt>
      <trkpt lat="47.67954" lon="6.13318">
        <ele>261.39999389648</ele>
        <time>2013-11-23T14:14:23.000Z</time>
      </trkpt>
      <trkpt lat="47.67951" lon="6.13315">
        <ele>261.39999389648</ele>
        <time>2013-11-23T14:14:24.000Z</time>
      </trkpt>
      <trkpt lat="47.67948" lon="6.13313">
        <ele>261.60000610352</ele>
        <time>2013-11-23T14:14:25.000Z</time>
      </trkpt>
      <trkpt lat="47.6794" lon="6.13305">
        <ele>261.79998779297</ele>
        <time>2013-11-23T14:14:28.000Z</time>
      </trkpt>
      <trkpt lat="47.67918" lon="6.13278">
        <ele>262.60000610352</ele>
        <time>2013-11-23T14:14:36.000Z</time>
      </trkpt>
      <trkpt lat="47.67894" lon="6.13253">
        <ele>263</ele>
        <time>2013-11-23T14:14:43.000Z</time>
      </trkpt>
      <trkpt lat="47.67891" lon="6.13248">
        <ele>263</ele>
        <time>2013-11-23T14:14:44.000Z</time>
      </trkpt>
      <trkpt lat="47.67872" lon="6.13219">
        <ele>262.60000610352</ele>
        <time>2013-11-23T14:14:50.000Z</time>
      </trkpt>
      <trkpt lat="47.67859" lon="6.13196">
        <ele>261.79998779297</ele>
        <time>2013-11-23T14:14:54.000Z</time>
      </trkpt>
      <trkpt lat="47.67855" lon="6.1319">
        <ele>261.60000610352</ele>
        <time>2013-11-23T14:14:55.000Z</time>
      </trkpt>
      <trkpt lat="47.67852" lon="6.13183">
        <ele>261.39999389648</ele>
        <time>2013-11-23T14:14:56.000Z</time>
      </trkpt>
      <trkpt lat="47.67848" lon="6.13177">
        <ele>261</ele>
        <time>2013-11-23T14:14:57.000Z</time>
      </trkpt>
      <trkpt lat="47.67844" lon="6.1317">
        <ele>260.60000610352</ele>
        <time>2013-11-23T14:14:58.000Z</time>
      </trkpt>
      <trkpt lat="47.67837" lon="6.13156">
        <ele>260.20001220703</ele>
        <time>2013-11-23T14:15:00.000Z</time>
      </trkpt>
      <trkpt lat="47.67834" lon="6.13148">
        <ele>260</ele>
        <time>2013-11-23T14:15:01.000Z</time>
      </trkpt>
      <trkpt lat="47.67829" lon="6.13141">
        <ele>259.79998779297</ele>
        <time>2013-11-23T14:15:02.000Z</time>
      </trkpt>
      <trkpt lat="47.67823" lon="6.13128">
        <ele>259.60000610352</ele>
        <time>2013-11-23T14:15:03.000Z</time>
      </trkpt>
      <trkpt lat="47.67823" lon="6.13128">
        <ele>259.60000610352</ele>
        <time>2013-11-23T14:15:04.000Z</time>
      </trkpt>
      <trkpt lat="47.6782" lon="6.13122">
        <ele>259.60000610352</ele>
        <time>2013-11-23T14:15:05.000Z</time>
      </trkpt>
      <trkpt lat="47.67813" lon="6.13108">
        <ele>259</ele>
        <time>2013-11-23T14:15:08.000Z</time>
      </trkpt>
      <trkpt lat="47.67804" lon="6.13083">
        <ele>258.20001220703</ele>
        <time>2013-11-23T14:15:13.000Z</time>
      </trkpt>
      <trkpt lat="47.678" lon="6.13073">
        <ele>257.79998779297</ele>
        <time>2013-11-23T14:15:15.000Z</time>
      </trkpt>
      <trkpt lat="47.67797" lon="6.13068">
        <ele>257.60000610352</ele>
        <time>2013-11-23T14:15:16.000Z</time>
      </trkpt>
      <trkpt lat="47.67795" lon="6.13062">
        <ele>257.20001220703</ele>
        <time>2013-11-23T14:15:17.000Z</time>
      </trkpt>
      <trkpt lat="47.67792" lon="6.13057">
        <ele>257</ele>
        <time>2013-11-23T14:15:18.000Z</time>
      </trkpt>
      <trkpt lat="47.6779" lon="6.13052">
        <ele>256.79998779297</ele>
        <time>2013-11-23T14:15:19.000Z</time>
      </trkpt>
      <trkpt lat="47.67788" lon="6.13047">
        <ele>256.60000610352</ele>
        <time>2013-11-23T14:15:20.000Z</time>
      </trkpt>
      <trkpt lat="47.67777" lon="6.13026">
        <ele>255.80000305176</ele>
        <time>2013-11-23T14:15:24.000Z</time>
      </trkpt>
      <trkpt lat="47.67771" lon="6.13016">
        <ele>255.19999694824</ele>
        <time>2013-11-23T14:15:26.000Z</time>
      </trkpt>
      <trkpt lat="47.67766" lon="6.13005">
        <ele>254.80000305176</ele>
        <time>2013-11-23T14:15:28.000Z</time>
      </trkpt>
      <trkpt lat="47.67763" lon="6.13">
        <ele>254.60000610352</ele>
        <time>2013-11-23T14:15:29.000Z</time>
      </trkpt>
      <trkpt lat="47.67759" lon="6.12996">
        <ele>254.39999389648</ele>
        <time>2013-11-23T14:15:30.000Z</time>
      </trkpt>
      <trkpt lat="47.67755" lon="6.12991">
        <ele>254.19999694824</ele>
        <time>2013-11-23T14:15:31.000Z</time>
      </trkpt>
      <trkpt lat="47.6775" lon="6.12987">
        <ele>253.80000305176</ele>
        <time>2013-11-23T14:15:32.000Z</time>
      </trkpt>
      <trkpt lat="47.67729" lon="6.12964">
        <ele>252.80000305176</ele>
        <time>2013-11-23T14:15:37.000Z</time>
      </trkpt>
      <trkpt lat="47.67724" lon="6.12959">
        <ele>252.60000610352</ele>
        <time>2013-11-23T14:15:38.000Z</time>
      </trkpt>
      <trkpt lat="47.67719" lon="6.12953">
        <ele>252.39999389648</ele>
        <time>2013-11-23T14:15:39.000Z</time>
      </trkpt>
      <trkpt lat="47.67715" lon="6.12947">
        <ele>252.19999694824</ele>
        <time>2013-11-23T14:15:40.000Z</time>
      </trkpt>
      <trkpt lat="47.67701" lon="6.12931">
        <ele>251.39999389648</ele>
        <time>2013-11-23T14:15:43.000Z</time>
      </trkpt>
      <trkpt lat="47.67696" lon="6.12925">
        <ele>251.19999694824</ele>
        <time>2013-11-23T14:15:44.000Z</time>
      </trkpt>
      <trkpt lat="47.67691" lon="6.12919">
        <ele>250.80000305176</ele>
        <time>2013-11-23T14:15:45.000Z</time>
      </trkpt>
      <trkpt lat="47.67686" lon="6.12913">
        <ele>250.60000610352</ele>
        <time>2013-11-23T14:15:46.000Z</time>
      </trkpt>
      <trkpt lat="47.67681" lon="6.12907">
        <ele>250.39999389648</ele>
        <time>2013-11-23T14:15:47.000Z</time>
      </trkpt>
      <trkpt lat="47.6766" lon="6.12884">
        <ele>249.80000305176</ele>
        <time>2013-11-23T14:15:51.000Z</time>
      </trkpt>
      <trkpt lat="47.67655" lon="6.12878">
        <ele>249.60000610352</ele>
        <time>2013-11-23T14:15:52.000Z</time>
      </trkpt>
      <trkpt lat="47.67649" lon="6.12873">
        <ele>249.39999389648</ele>
        <time>2013-11-23T14:15:53.000Z</time>
      </trkpt>
      <trkpt lat="47.67644" lon="6.12867">
        <ele>249.19999694824</ele>
        <time>2013-11-23T14:15:54.000Z</time>
      </trkpt>
      <trkpt lat="47.67639" lon="6.12861">
        <ele>248.80000305176</ele>
        <time>2013-11-23T14:15:55.000Z</time>
      </trkpt>
      <trkpt lat="47.67628" lon="6.1285">
        <ele>248.39999389648</ele>
        <time>2013-11-23T14:15:57.000Z</time>
      </trkpt>
      <trkpt lat="47.67623" lon="6.12844">
        <ele>248</ele>
        <time>2013-11-23T14:15:58.000Z</time>
      </trkpt>
      <trkpt lat="47.67612" lon="6.12832">
        <ele>247.39999389648</ele>
        <time>2013-11-23T14:16:00.000Z</time>
      </trkpt>
      <trkpt lat="47.67608" lon="6.12825">
        <ele>247</ele>
        <time>2013-11-23T14:16:01.000Z</time>
      </trkpt>
      <trkpt lat="47.67603" lon="6.12818">
        <ele>246.80000305176</ele>
        <time>2013-11-23T14:16:02.000Z</time>
      </trkpt>
      <trkpt lat="47.67599" lon="6.12811">
        <ele>246.39999389648</ele>
        <time>2013-11-23T14:16:03.000Z</time>
      </trkpt>
      <trkpt lat="47.67595" lon="6.12804">
        <ele>246.19999694824</ele>
        <time>2013-11-23T14:16:04.000Z</time>
      </trkpt>
      <trkpt lat="47.67592" lon="6.12796">
        <ele>246</ele>
        <time>2013-11-23T14:16:05.000Z</time>
      </trkpt>
      <trkpt lat="47.67583" lon="6.12772">
        <ele>245.19999694824</ele>
        <time>2013-11-23T14:16:08.000Z</time>
      </trkpt>
      <trkpt lat="47.6758" lon="6.12764">
        <ele>245</ele>
        <time>2013-11-23T14:16:09.000Z</time>
      </trkpt>
      <trkpt lat="47.67577" lon="6.12757">
        <ele>245</ele>
        <time>2013-11-23T14:16:10.000Z</time>
      </trkpt>
      <trkpt lat="47.67574" lon="6.12749">
        <ele>244.80000305176</ele>
        <time>2013-11-23T14:16:11.000Z</time>
      </trkpt>
      <trkpt lat="47.67571" lon="6.12741">
        <ele>244.60000610352</ele>
        <time>2013-11-23T14:16:12.000Z</time>
      </trkpt>
      <trkpt lat="47.67559" lon="6.12709">
        <ele>244.19999694824</ele>
        <time>2013-11-23T14:16:16.000Z</time>
      </trkpt>
      <trkpt lat="47.67555" lon="6.127">
        <ele>244</ele>
        <time>2013-11-23T14:16:17.000Z</time>
      </trkpt>
      <trkpt lat="47.67552" lon="6.12692">
        <ele>243.80000305176</ele>
        <time>2013-11-23T14:16:18.000Z</time>
      </trkpt>
      <trkpt lat="47.67549" lon="6.12684">
        <ele>243.60000610352</ele>
        <time>2013-11-23T14:16:19.000Z</time>
      </trkpt>
      <trkpt lat="47.67546" lon="6.12677">
        <ele>243.39999389648</ele>
        <time>2013-11-23T14:16:20.000Z</time>
      </trkpt>
      <trkpt lat="47.6754" lon="6.12662">
        <ele>242.80000305176</ele>
        <time>2013-11-23T14:16:22.000Z</time>
      </trkpt>
      <trkpt lat="47.67537" lon="6.12656">
        <ele>242.60000610352</ele>
        <time>2013-11-23T14:16:23.000Z</time>
      </trkpt>
      <trkpt lat="47.67535" lon="6.12651">
        <ele>242.39999389648</ele>
        <time>2013-11-23T14:16:24.000Z</time>
      </trkpt>
      <trkpt lat="47.67533" lon="6.12646">
        <ele>242.19999694824</ele>
        <time>2013-11-23T14:16:25.000Z</time>
      </trkpt>
      <trkpt lat="47.67531" lon="6.12642">
        <ele>242</ele>
        <time>2013-11-23T14:16:26.000Z</time>
      </trkpt>
      <trkpt lat="47.67527" lon="6.12632">
        <ele>241.60000610352</ele>
        <time>2013-11-23T14:16:28.000Z</time>
      </trkpt>
      <trkpt lat="47.67525" lon="6.12627">
        <ele>241.39999389648</ele>
        <time>2013-11-23T14:16:29.000Z</time>
      </trkpt>
      <trkpt lat="47.67523" lon="6.12623">
        <ele>241.19999694824</ele>
        <time>2013-11-23T14:16:30.000Z</time>
      </trkpt>
      <trkpt lat="47.67521" lon="6.1262">
        <ele>241.19999694824</ele>
        <time>2013-11-23T14:16:31.000Z</time>
      </trkpt>
      <trkpt lat="47.6752" lon="6.12617">
        <ele>241</ele>
        <time>2013-11-23T14:16:32.000Z</time>
      </trkpt>
      <trkpt lat="47.67519" lon="6.12614">
        <ele>241</ele>
        <time>2013-11-23T14:16:33.000Z</time>
      </trkpt>
      <trkpt lat="47.67518" lon="6.12599">
        <ele>240.60000610352</ele>
        <time>2013-11-23T14:16:38.000Z</time>
      </trkpt>
      <trkpt lat="47.67525" lon="6.12579">
        <ele>240.60000610352</ele>
        <time>2013-11-23T14:16:43.000Z</time>
      </trkpt>
      <trkpt lat="47.67527" lon="6.12574">
        <ele>240.80000305176</ele>
        <time>2013-11-23T14:16:44.000Z</time>
      </trkpt>
      <trkpt lat="47.67529" lon="6.1257">
        <ele>241</ele>
        <time>2013-11-23T14:16:45.000Z</time>
      </trkpt>
      <trkpt lat="47.6753" lon="6.12565">
        <ele>241.19999694824</ele>
        <time>2013-11-23T14:16:46.000Z</time>
      </trkpt>
      <trkpt lat="47.67532" lon="6.1256">
        <ele>241.39999389648</ele>
        <time>2013-11-23T14:16:47.000Z</time>
      </trkpt>
      <trkpt lat="47.67534" lon="6.12556">
        <ele>241.60000610352</ele>
        <time>2013-11-23T14:16:48.000Z</time>
      </trkpt>
      <trkpt lat="47.67538" lon="6.12541">
        <ele>242.39999389648</ele>
        <time>2013-11-23T14:16:51.000Z</time>
      </trkpt>
      <trkpt lat="47.6754" lon="6.1251">
        <ele>243.39999389648</ele>
        <time>2013-11-23T14:16:57.000Z</time>
      </trkpt>
      <trkpt lat="47.67532" lon="6.12489">
        <ele>243</ele>
        <time>2013-11-23T14:17:02.000Z</time>
      </trkpt>
      <trkpt lat="47.67516" lon="6.12474">
        <ele>241.80000305176</ele>
        <time>2013-11-23T14:17:08.000Z</time>
      </trkpt>
      <trkpt lat="47.67482" lon="6.12455">
        <ele>240.60000610352</ele>
        <time>2013-11-23T14:17:18.000Z</time>
      </trkpt>
      <trkpt lat="47.67466" lon="6.12445">
        <ele>241</ele>
        <time>2013-11-23T14:17:24.000Z</time>
      </trkpt>
      <trkpt lat="47.67447" lon="6.12437">
        <ele>241.60000610352</ele>
        <time>2013-11-23T14:17:30.000Z</time>
      </trkpt>
      <trkpt lat="47.6742" lon="6.12422">
        <ele>242.60000610352</ele>
        <time>2013-11-23T14:17:39.000Z</time>
      </trkpt>
      <trkpt lat="47.67399" lon="6.12411">
        <ele>242.80000305176</ele>
        <time>2013-11-23T14:17:46.000Z</time>
      </trkpt>
      <trkpt lat="47.67379" lon="6.12399">
        <ele>242.60000610352</ele>
        <time>2013-11-23T14:17:52.000Z</time>
      </trkpt>
      <trkpt lat="47.67357" lon="6.12388">
        <ele>242.39999389648</ele>
        <time>2013-11-23T14:17:58.000Z</time>
      </trkpt>
      <trkpt lat="47.67331" lon="6.12381">
        <ele>242.19999694824</ele>
        <time>2013-11-23T14:18:06.000Z</time>
      </trkpt>
      <trkpt lat="47.67309" lon="6.12388">
        <ele>242</ele>
        <time>2013-11-23T14:18:12.000Z</time>
      </trkpt>
      <trkpt lat="47.67305" lon="6.12391">
        <ele>242</ele>
        <time>2013-11-23T14:18:13.000Z</time>
      </trkpt>
      <trkpt lat="47.67302" lon="6.12394">
        <ele>241.80000305176</ele>
        <time>2013-11-23T14:18:14.000Z</time>
      </trkpt>
      <trkpt lat="47.67298" lon="6.12397">
        <ele>241.80000305176</ele>
        <time>2013-11-23T14:18:15.000Z</time>
      </trkpt>
      <trkpt lat="47.67295" lon="6.12399">
        <ele>241.60000610352</ele>
        <time>2013-11-23T14:18:16.000Z</time>
      </trkpt>
      <trkpt lat="47.67281" lon="6.1241">
        <ele>241.19999694824</ele>
        <time>2013-11-23T14:18:20.000Z</time>
      </trkpt>
      <trkpt lat="47.67255" lon="6.12434">
        <ele>240.19999694824</ele>
        <time>2013-11-23T14:18:28.000Z</time>
      </trkpt>
      <trkpt lat="47.67231" lon="6.12464">
        <ele>239</ele>
        <time>2013-11-23T14:18:36.000Z</time>
      </trkpt>
      <trkpt lat="47.67211" lon="6.12483">
        <ele>238.60000610352</ele>
        <time>2013-11-23T14:18:43.000Z</time>
      </trkpt>
      <trkpt lat="47.67194" lon="6.12496">
        <ele>238.39999389648</ele>
        <time>2013-11-23T14:18:49.000Z</time>
      </trkpt>
      <trkpt lat="47.67191" lon="6.12498">
        <ele>238.39999389648</ele>
        <time>2013-11-23T14:18:50.000Z</time>
      </trkpt>
      <trkpt lat="47.67188" lon="6.12501">
        <ele>238.39999389648</ele>
        <time>2013-11-23T14:18:51.000Z</time>
      </trkpt>
      <trkpt lat="47.67184" lon="6.12503">
        <ele>238.39999389648</ele>
        <time>2013-11-23T14:18:52.000Z</time>
      </trkpt>
      <trkpt lat="47.67181" lon="6.12505">
        <ele>238.39999389648</ele>
        <time>2013-11-23T14:18:53.000Z</time>
      </trkpt>
      <trkpt lat="47.67159" lon="6.12521">
        <ele>238</ele>
        <time>2013-11-23T14:19:00.000Z</time>
      </trkpt>
      <trkpt lat="47.67155" lon="6.12523">
        <ele>237.80000305176</ele>
        <time>2013-11-23T14:19:01.000Z</time>
      </trkpt>
      <trkpt lat="47.67152" lon="6.12525">
        <ele>237.60000610352</ele>
        <time>2013-11-23T14:19:02.000Z</time>
      </trkpt>
      <trkpt lat="47.67148" lon="6.12527">
        <ele>237.39999389648</ele>
        <time>2013-11-23T14:19:03.000Z</time>
      </trkpt>
      <trkpt lat="47.67145" lon="6.1253">
        <ele>237.39999389648</ele>
        <time>2013-11-23T14:19:04.000Z</time>
      </trkpt>
      <trkpt lat="47.67142" lon="6.12532">
        <ele>237.19999694824</ele>
        <time>2013-11-23T14:19:05.000Z</time>
      </trkpt>
      <trkpt lat="47.67124" lon="6.12544">
        <ele>236.39999389648</ele>
        <time>2013-11-23T14:19:10.000Z</time>
      </trkpt>
      <trkpt lat="47.67121" lon="6.12546">
        <ele>236.19999694824</ele>
        <time>2013-11-23T14:19:11.000Z</time>
      </trkpt>
      <trkpt lat="47.67117" lon="6.12549">
        <ele>236.19999694824</ele>
        <time>2013-11-23T14:19:12.000Z</time>
      </trkpt>
      <trkpt lat="47.67113" lon="6.12551">
        <ele>236</ele>
        <time>2013-11-23T14:19:13.000Z</time>
      </trkpt>
      <trkpt lat="47.67109" lon="6.12554">
        <ele>235.80000305176</ele>
        <time>2013-11-23T14:19:14.000Z</time>
      </trkpt>
      <trkpt lat="47.67096" lon="6.12561">
        <ele>235.39999389648</ele>
        <time>2013-11-23T14:19:17.000Z</time>
      </trkpt>
      <trkpt lat="47.67082" lon="6.1257">
        <ele>235.19999694824</ele>
        <time>2013-11-23T14:19:20.000Z</time>
      </trkpt>
      <trkpt lat="47.67078" lon="6.12573">
        <ele>235</ele>
        <time>2013-11-23T14:19:21.000Z</time>
      </trkpt>
      <trkpt lat="47.67074" lon="6.12576">
        <ele>234.80000305176</ele>
        <time>2013-11-23T14:19:22.000Z</time>
      </trkpt>
      <trkpt lat="47.67069" lon="6.12578">
        <ele>234.60000610352</ele>
        <time>2013-11-23T14:19:23.000Z</time>
      </trkpt>
      <trkpt lat="47.67065" lon="6.12581">
        <ele>234.39999389648</ele>
        <time>2013-11-23T14:19:24.000Z</time>
      </trkpt>
      <trkpt lat="47.67041" lon="6.12595">
        <ele>233.19999694824</ele>
        <time>2013-11-23T14:19:29.000Z</time>
      </trkpt>
      <trkpt lat="47.67037" lon="6.12597">
        <ele>233</ele>
        <time>2013-11-23T14:19:30.000Z</time>
      </trkpt>
      <trkpt lat="47.67032" lon="6.126">
        <ele>232.80000305176</ele>
        <time>2013-11-23T14:19:31.000Z</time>
      </trkpt>
      <trkpt lat="47.67028" lon="6.12602">
        <ele>232.39999389648</ele>
        <time>2013-11-23T14:19:32.000Z</time>
      </trkpt>
      <trkpt lat="47.67024" lon="6.12604">
        <ele>232.19999694824</ele>
        <time>2013-11-23T14:19:33.000Z</time>
      </trkpt>
      <trkpt lat="47.66997" lon="6.12611">
        <ele>231.19999694824</ele>
        <time>2013-11-23T14:19:39.000Z</time>
      </trkpt>
      <trkpt lat="47.66963" lon="6.12608">
        <ele>231</ele>
        <time>2013-11-23T14:19:48.000Z</time>
      </trkpt>
      <trkpt lat="47.66932" lon="6.12603">
        <ele>230.80000305176</ele>
        <time>2013-11-23T14:19:56.000Z</time>
      </trkpt>
      <trkpt lat="47.66929" lon="6.12603">
        <ele>230.60000610352</ele>
        <time>2013-11-23T14:19:57.000Z</time>
      </trkpt>
      <trkpt lat="47.66925" lon="6.12603">
        <ele>230.60000610352</ele>
        <time>2013-11-23T14:19:58.000Z</time>
      </trkpt>
      <trkpt lat="47.66921" lon="6.12603">
        <ele>230.60000610352</ele>
        <time>2013-11-23T14:19:59.000Z</time>
      </trkpt>
      <trkpt lat="47.66917" lon="6.12604">
        <ele>230.60000610352</ele>
        <time>2013-11-23T14:20:00.000Z</time>
      </trkpt>
      <trkpt lat="47.66901" lon="6.12606">
        <ele>231</ele>
        <time>2013-11-23T14:20:04.000Z</time>
      </trkpt>
      <trkpt lat="47.66893" lon="6.12608">
        <ele>231.19999694824</ele>
        <time>2013-11-23T14:20:06.000Z</time>
      </trkpt>
      <trkpt lat="47.66865" lon="6.12621">
        <ele>232</ele>
        <time>2013-11-23T14:20:14.000Z</time>
      </trkpt>
      <trkpt lat="47.66835" lon="6.12641">
        <ele>232.60000610352</ele>
        <time>2013-11-23T14:20:23.000Z</time>
      </trkpt>
      <trkpt lat="47.66807" lon="6.12662">
        <ele>233.39999389648</ele>
        <time>2013-11-23T14:20:31.000Z</time>
      </trkpt>
      <trkpt lat="47.66803" lon="6.12665">
        <ele>233.39999389648</ele>
        <time>2013-11-23T14:20:32.000Z</time>
      </trkpt>
      <trkpt lat="47.668" lon="6.12668">
        <ele>233.60000610352</ele>
        <time>2013-11-23T14:20:33.000Z</time>
      </trkpt>
      <trkpt lat="47.66797" lon="6.12671">
        <ele>233.60000610352</ele>
        <time>2013-11-23T14:20:34.000Z</time>
      </trkpt>
      <trkpt lat="47.66793" lon="6.12673">
        <ele>233.80000305176</ele>
        <time>2013-11-23T14:20:35.000Z</time>
      </trkpt>
      <trkpt lat="47.6679" lon="6.12676">
        <ele>233.80000305176</ele>
        <time>2013-11-23T14:20:36.000Z</time>
      </trkpt>
      <trkpt lat="47.6678" lon="6.12684">
        <ele>234</ele>
        <time>2013-11-23T14:20:39.000Z</time>
      </trkpt>
      <trkpt lat="47.66749" lon="6.12712">
        <ele>234.60000610352</ele>
        <time>2013-11-23T14:20:49.000Z</time>
      </trkpt>
      <trkpt lat="47.66724" lon="6.12735">
        <ele>238.19999694824</ele>
        <time>2013-11-23T14:20:58.000Z</time>
      </trkpt>
      <trkpt lat="47.66695" lon="6.12767">
        <ele>240.19999694824</ele>
        <time>2013-11-23T14:21:08.000Z</time>
      </trkpt>
      <trkpt lat="47.66674" lon="6.12793">
        <ele>239</ele>
        <time>2013-11-23T14:21:16.000Z</time>
      </trkpt>
      <trkpt lat="47.66649" lon="6.1282">
        <ele>236.19999694824</ele>
        <time>2013-11-23T14:21:25.000Z</time>
      </trkpt>
      <trkpt lat="47.66639" lon="6.1284">
        <ele>234</ele>
        <time>2013-11-23T14:21:30.000Z</time>
      </trkpt>
      <trkpt lat="47.66631" lon="6.12864">
        <ele>233</ele>
        <time>2013-11-23T14:21:34.000Z</time>
      </trkpt>
      <trkpt lat="47.66629" lon="6.12871">
        <ele>232.60000610352</ele>
        <time>2013-11-23T14:21:35.000Z</time>
      </trkpt>
      <trkpt lat="47.66626" lon="6.12879">
        <ele>232.19999694824</ele>
        <time>2013-11-23T14:21:36.000Z</time>
      </trkpt>
      <trkpt lat="47.66623" lon="6.12887">
        <ele>231.80000305176</ele>
        <time>2013-11-23T14:21:37.000Z</time>
      </trkpt>
      <trkpt lat="47.6662" lon="6.12895">
        <ele>231.19999694824</ele>
        <time>2013-11-23T14:21:38.000Z</time>
      </trkpt>
      <trkpt lat="47.66617" lon="6.12903">
        <ele>230.80000305176</ele>
        <time>2013-11-23T14:21:39.000Z</time>
      </trkpt>
      <trkpt lat="47.66615" lon="6.12912">
        <ele>230</ele>
        <time>2013-11-23T14:21:40.000Z</time>
      </trkpt>
      <trkpt lat="47.66614" lon="6.12921">
        <ele>229.60000610352</ele>
        <time>2013-11-23T14:21:41.000Z</time>
      </trkpt>
      <trkpt lat="47.66614" lon="6.12931">
        <ele>229.60000610352</ele>
        <time>2013-11-23T14:21:42.000Z</time>
      </trkpt>
      <trkpt lat="47.66614" lon="6.12941">
        <ele>229.39999389648</ele>
        <time>2013-11-23T14:21:43.000Z</time>
      </trkpt>
      <trkpt lat="47.66614" lon="6.12952">
        <ele>229.39999389648</ele>
        <time>2013-11-23T14:21:44.000Z</time>
      </trkpt>
      <trkpt lat="47.66615" lon="6.12962">
        <ele>229.19999694824</ele>
        <time>2013-11-23T14:21:45.000Z</time>
      </trkpt>
      <trkpt lat="47.66614" lon="6.12972">
        <ele>229</ele>
        <time>2013-11-23T14:21:46.000Z</time>
      </trkpt>
      <trkpt lat="47.66613" lon="6.12991">
        <ele>228.80000305176</ele>
        <time>2013-11-23T14:21:48.000Z</time>
      </trkpt>
      <trkpt lat="47.66612" lon="6.13">
        <ele>228.80000305176</ele>
        <time>2013-11-23T14:21:49.000Z</time>
      </trkpt>
      <trkpt lat="47.66612" lon="6.13008">
        <ele>228.60000610352</ele>
        <time>2013-11-23T14:21:50.000Z</time>
      </trkpt>
      <trkpt lat="47.66613" lon="6.13017">
        <ele>228.80000305176</ele>
        <time>2013-11-23T14:21:51.000Z</time>
      </trkpt>
      <trkpt lat="47.66615" lon="6.13036">
        <ele>228.80000305176</ele>
        <time>2013-11-23T14:21:54.000Z</time>
      </trkpt>
      <trkpt lat="47.66616" lon="6.13042">
        <ele>228.80000305176</ele>
        <time>2013-11-23T14:21:55.000Z</time>
      </trkpt>
      <trkpt lat="47.66624" lon="6.1307">
        <ele>229</ele>
        <time>2013-11-23T14:22:01.000Z</time>
      </trkpt>
      <trkpt lat="47.66625" lon="6.13077">
        <ele>229</ele>
        <time>2013-11-23T14:22:05.000Z</time>
      </trkpt>
      <trkpt lat="47.66625" lon="6.13081">
        <ele>229</ele>
        <time>2013-11-23T14:22:06.000Z</time>
      </trkpt>
      <trkpt lat="47.66625" lon="6.13084">
        <ele>229</ele>
        <time>2013-11-23T14:22:07.000Z</time>
      </trkpt>
      <trkpt lat="47.66625" lon="6.13086">
        <ele>229</ele>
        <time>2013-11-23T14:22:08.000Z</time>
      </trkpt>
      <trkpt lat="47.66626" lon="6.13089">
        <ele>229</ele>
        <time>2013-11-23T14:22:09.000Z</time>
      </trkpt>
      <trkpt lat="47.66625" lon="6.1311">
        <ele>229</ele>
        <time>2013-11-23T14:22:15.000Z</time>
      </trkpt>
      <trkpt lat="47.66623" lon="6.13139">
        <ele>229</ele>
        <time>2013-11-23T14:22:23.000Z</time>
      </trkpt>
      <trkpt lat="47.6662" lon="6.13166">
        <ele>228.80000305176</ele>
        <time>2013-11-23T14:22:31.000Z</time>
      </trkpt>
      <trkpt lat="47.66617" lon="6.13189">
        <ele>229</ele>
        <time>2013-11-23T14:22:38.000Z</time>
      </trkpt>
      <trkpt lat="47.66615" lon="6.13216">
        <ele>229.39999389648</ele>
        <time>2013-11-23T14:22:45.000Z</time>
      </trkpt>
      <trkpt lat="47.66612" lon="6.13245">
        <ele>229.60000610352</ele>
        <time>2013-11-23T14:22:53.000Z</time>
      </trkpt>
      <trkpt lat="47.66611" lon="6.13264">
        <ele>229.80000305176</ele>
        <time>2013-11-23T14:22:59.000Z</time>
      </trkpt>
      <trkpt lat="47.66608" lon="6.13287">
        <ele>230.19999694824</ele>
        <time>2013-11-23T14:23:06.000Z</time>
      </trkpt>
      <trkpt lat="47.66606" lon="6.13314">
        <ele>230.60000610352</ele>
        <time>2013-11-23T14:23:14.000Z</time>
      </trkpt>
      <trkpt lat="47.66603" lon="6.13339">
        <ele>231</ele>
        <time>2013-11-23T14:23:21.000Z</time>
      </trkpt>
      <trkpt lat="47.66601" lon="6.13363">
        <ele>230.80000305176</ele>
        <time>2013-11-23T14:23:28.000Z</time>
      </trkpt>
      <trkpt lat="47.666" lon="6.13383">
        <ele>230.60000610352</ele>
        <time>2013-11-23T14:23:35.000Z</time>
      </trkpt>
      <trkpt lat="47.66599" lon="6.13386">
        <ele>230.39999389648</ele>
        <time>2013-11-23T14:23:36.000Z</time>
      </trkpt>
      <trkpt lat="47.66598" lon="6.13389">
        <ele>230.39999389648</ele>
        <time>2013-11-23T14:23:37.000Z</time>
      </trkpt>
      <trkpt lat="47.66598" lon="6.13392">
        <ele>230.39999389648</ele>
        <time>2013-11-23T14:23:38.000Z</time>
      </trkpt>
      <trkpt lat="47.66597" lon="6.13395">
        <ele>230.39999389648</ele>
        <time>2013-11-23T14:23:39.000Z</time>
      </trkpt>
      <trkpt lat="47.66596" lon="6.13404">
        <ele>230.19999694824</ele>
        <time>2013-11-23T14:23:42.000Z</time>
      </trkpt>
      <trkpt lat="47.66594" lon="6.13425">
        <ele>230.19999694824</ele>
        <time>2013-11-23T14:23:49.000Z</time>
      </trkpt>
      <trkpt lat="47.66594" lon="6.13445">
        <ele>230.19999694824</ele>
        <time>2013-11-23T14:23:55.000Z</time>
      </trkpt>
      <trkpt lat="47.66591" lon="6.13471">
        <ele>230.19999694824</ele>
        <time>2013-11-23T14:24:02.000Z</time>
      </trkpt>
      <trkpt lat="47.66589" lon="6.13486">
        <ele>230.19999694824</ele>
        <time>2013-11-23T14:24:06.000Z</time>
      </trkpt>
      <trkpt lat="47.66589" lon="6.1349">
        <ele>230.19999694824</ele>
        <time>2013-11-23T14:24:07.000Z</time>
      </trkpt>
      <trkpt lat="47.66585" lon="6.13525">
        <ele>230.60000610352</ele>
        <time>2013-11-23T14:24:15.000Z</time>
      </trkpt>
      <trkpt lat="47.66582" lon="6.13559">
        <ele>231.39999389648</ele>
        <time>2013-11-23T14:24:23.000Z</time>
      </trkpt>
      <trkpt lat="47.66581" lon="6.13568">
        <ele>231.60000610352</ele>
        <time>2013-11-23T14:24:25.000Z</time>
      </trkpt>
      <trkpt lat="47.66581" lon="6.13572">
        <ele>231.60000610352</ele>
        <time>2013-11-23T14:24:26.000Z</time>
      </trkpt>
      <trkpt lat="47.6658" lon="6.13577">
        <ele>231.60000610352</ele>
        <time>2013-11-23T14:24:27.000Z</time>
      </trkpt>
      <trkpt lat="47.6658" lon="6.13581">
        <ele>231.80000305176</ele>
        <time>2013-11-23T14:24:28.000Z</time>
      </trkpt>
      <trkpt lat="47.6658" lon="6.13584">
        <ele>231.80000305176</ele>
        <time>2013-11-23T14:24:29.000Z</time>
      </trkpt>
      <trkpt lat="47.6658" lon="6.13588">
        <ele>231.80000305176</ele>
        <time>2013-11-23T14:24:30.000Z</time>
      </trkpt>
      <trkpt lat="47.66578" lon="6.13615">
        <ele>232.19999694824</ele>
        <time>2013-11-23T14:24:37.000Z</time>
      </trkpt>
      <trkpt lat="47.66575" lon="6.13643">
        <ele>232.39999389648</ele>
        <time>2013-11-23T14:24:44.000Z</time>
      </trkpt>
      <trkpt lat="47.66572" lon="6.13672">
        <ele>232.39999389648</ele>
        <time>2013-11-23T14:24:51.000Z</time>
      </trkpt>
      <trkpt lat="47.66574" lon="6.13702">
        <ele>232.60000610352</ele>
        <time>2013-11-23T14:24:59.000Z</time>
      </trkpt>
      <trkpt lat="47.66584" lon="6.13708">
        <ele>233</ele>
        <time>2013-11-23T14:25:03.000Z</time>
      </trkpt>
      <trkpt lat="47.66594" lon="6.13711">
        <ele>232.80000305176</ele>
        <time>2013-11-23T14:25:07.000Z</time>
      </trkpt>
      <trkpt lat="47.66596" lon="6.13712">
        <ele>232.80000305176</ele>
        <time>2013-11-23T14:25:08.000Z</time>
      </trkpt>
      <trkpt lat="47.66599" lon="6.13713">
        <ele>232.80000305176</ele>
        <time>2013-11-23T14:25:09.000Z</time>
      </trkpt>
      <trkpt lat="47.66602" lon="6.13715">
        <ele>232.60000610352</ele>
        <time>2013-11-23T14:25:10.000Z</time>
      </trkpt>
      <trkpt lat="47.66609" lon="6.13718">
        <ele>232.39999389648</ele>
        <time>2013-11-23T14:25:13.000Z</time>
      </trkpt>
      <trkpt lat="47.66628" lon="6.13727">
        <ele>232</ele>
        <time>2013-11-23T14:25:20.000Z</time>
      </trkpt>
      <trkpt lat="47.66652" lon="6.13735">
        <ele>231.60000610352</ele>
        <time>2013-11-23T14:25:29.000Z</time>
      </trkpt>
      <trkpt lat="47.66666" lon="6.13743">
        <ele>231</ele>
        <time>2013-11-23T14:25:35.000Z</time>
      </trkpt>
      <trkpt lat="47.66673" lon="6.13759">
        <ele>231.19999694824</ele>
        <time>2013-11-23T14:25:40.000Z</time>
      </trkpt>
      <trkpt lat="47.66678" lon="6.13786">
        <ele>231.39999389648</ele>
        <time>2013-11-23T14:25:47.000Z</time>
      </trkpt>
      <trkpt lat="47.66682" lon="6.13818">
        <ele>231.39999389648</ele>
        <time>2013-11-23T14:25:55.000Z</time>
      </trkpt>
      <trkpt lat="47.66685" lon="6.13846">
        <ele>231.80000305176</ele>
        <time>2013-11-23T14:26:02.000Z</time>
      </trkpt>
      <trkpt lat="47.66689" lon="6.13879">
        <ele>232.39999389648</ele>
        <time>2013-11-23T14:26:11.000Z</time>
      </trkpt>
      <trkpt lat="47.66693" lon="6.13908">
        <ele>233.19999694824</ele>
        <time>2013-11-23T14:26:19.000Z</time>
      </trkpt>
      <trkpt lat="47.66693" lon="6.13919">
        <ele>233.39999389648</ele>
        <time>2013-11-23T14:26:24.000Z</time>
      </trkpt>
      <trkpt lat="47.66694" lon="6.13923">
        <ele>233.60000610352</ele>
        <time>2013-11-23T14:27:36.000Z</time>
      </trkpt>
      <trkpt lat="47.66695" lon="6.13933">
        <ele>233.80000305176</ele>
        <time>2013-11-23T14:27:39.000Z</time>
      </trkpt>
      <trkpt lat="47.667" lon="6.13956">
        <ele>234.60000610352</ele>
        <time>2013-11-23T14:27:46.000Z</time>
      </trkpt>
      <trkpt lat="47.6671" lon="6.13977">
        <ele>235.39999389648</ele>
        <time>2013-11-23T14:27:53.000Z</time>
      </trkpt>
      <trkpt lat="47.66723" lon="6.14008">
        <ele>236.19999694824</ele>
        <time>2013-11-23T14:28:03.000Z</time>
      </trkpt>
      <trkpt lat="47.66732" lon="6.14029">
        <ele>236.39999389648</ele>
        <time>2013-11-23T14:28:10.000Z</time>
      </trkpt>
      <trkpt lat="47.66744" lon="6.14054">
        <ele>236.80000305176</ele>
        <time>2013-11-23T14:28:17.000Z</time>
      </trkpt>
      <trkpt lat="47.66755" lon="6.1408">
        <ele>237.19999694824</ele>
        <time>2013-11-23T14:28:24.000Z</time>
      </trkpt>
      <trkpt lat="47.66767" lon="6.14106">
        <ele>238.19999694824</ele>
        <time>2013-11-23T14:28:32.000Z</time>
      </trkpt>
      <trkpt lat="47.66768" lon="6.14128">
        <ele>238.80000305176</ele>
        <time>2013-11-23T14:28:38.000Z</time>
      </trkpt>
      <trkpt lat="47.66766" lon="6.14151">
        <ele>239.60000610352</ele>
        <time>2013-11-23T14:28:44.000Z</time>
      </trkpt>
      <trkpt lat="47.66763" lon="6.14173">
        <ele>240.19999694824</ele>
        <time>2013-11-23T14:28:51.000Z</time>
      </trkpt>
      <trkpt lat="47.6676" lon="6.1419">
        <ele>240.80000305176</ele>
        <time>2013-11-23T14:28:57.000Z</time>
      </trkpt>
      <trkpt lat="47.6676" lon="6.14193">
        <ele>240.80000305176</ele>
        <time>2013-11-23T14:28:58.000Z</time>
      </trkpt>
      <trkpt lat="47.66759" lon="6.14195">
        <ele>241</ele>
        <time>2013-11-23T14:28:59.000Z</time>
      </trkpt>
      <trkpt lat="47.66759" lon="6.14198">
        <ele>241</ele>
        <time>2013-11-23T14:29:00.000Z</time>
      </trkpt>
      <trkpt lat="47.66758" lon="6.142">
        <ele>241</ele>
        <time>2013-11-23T14:29:01.000Z</time>
      </trkpt>
      <trkpt lat="47.66758" lon="6.14203">
        <ele>241.19999694824</ele>
        <time>2013-11-23T14:29:02.000Z</time>
      </trkpt>
      <trkpt lat="47.66757" lon="6.14209">
        <ele>241.39999389648</ele>
        <time>2013-11-23T14:29:04.000Z</time>
      </trkpt>
      <trkpt lat="47.66752" lon="6.14225">
        <ele>242</ele>
        <time>2013-11-23T14:29:09.000Z</time>
      </trkpt>
      <trkpt lat="47.6675" lon="6.14237">
        <ele>242.60000610352</ele>
        <time>2013-11-23T14:29:13.000Z</time>
      </trkpt>
      <trkpt lat="47.66749" lon="6.1424">
        <ele>242.60000610352</ele>
        <time>2013-11-23T14:29:14.000Z</time>
      </trkpt>
      <trkpt lat="47.66749" lon="6.14243">
        <ele>242.80000305176</ele>
        <time>2013-11-23T14:29:15.000Z</time>
      </trkpt>
      <trkpt lat="47.66749" lon="6.14246">
        <ele>243</ele>
        <time>2013-11-23T14:29:16.000Z</time>
      </trkpt>
      <trkpt lat="47.66748" lon="6.14249">
        <ele>243.19999694824</ele>
        <time>2013-11-23T14:29:17.000Z</time>
      </trkpt>
      <trkpt lat="47.66743" lon="6.14269">
        <ele>244.39999389648</ele>
        <time>2013-11-23T14:29:25.000Z</time>
      </trkpt>
      <trkpt lat="47.66742" lon="6.14274">
        <ele>244.80000305176</ele>
        <time>2013-11-23T14:29:27.000Z</time>
      </trkpt>
      <trkpt lat="47.66741" lon="6.14278">
        <ele>245</ele>
        <time>2013-11-23T14:29:28.000Z</time>
      </trkpt>
      <trkpt lat="47.66741" lon="6.1428">
        <ele>245</ele>
        <time>2013-11-23T14:29:29.000Z</time>
      </trkpt>
      <trkpt lat="47.66741" lon="6.14282">
        <ele>245.19999694824</ele>
        <time>2013-11-23T14:29:30.000Z</time>
      </trkpt>
      <trkpt lat="47.6674" lon="6.14284">
        <ele>245.19999694824</ele>
        <time>2013-11-23T14:29:31.000Z</time>
      </trkpt>
      <trkpt lat="47.66737" lon="6.14301">
        <ele>246.19999694824</ele>
        <time>2013-11-23T14:29:39.000Z</time>
      </trkpt>
      <trkpt lat="47.66737" lon="6.14312">
        <ele>246.80000305176</ele>
        <time>2013-11-23T14:29:44.000Z</time>
      </trkpt>
      <trkpt lat="47.66736" lon="6.14321">
        <ele>247.19999694824</ele>
        <time>2013-11-23T14:29:48.000Z</time>
      </trkpt>
      <trkpt lat="47.66736" lon="6.14324">
        <ele>247.39999389648</ele>
        <time>2013-11-23T14:29:49.000Z</time>
      </trkpt>
      <trkpt lat="47.66735" lon="6.14325">
        <ele>247.60000610352</ele>
        <time>2013-11-23T14:29:50.000Z</time>
      </trkpt>
      <trkpt lat="47.66735" lon="6.14328">
        <ele>247.60000610352</ele>
        <time>2013-11-23T14:29:51.000Z</time>
      </trkpt>
      <trkpt lat="47.66734" lon="6.1433">
        <ele>247.80000305176</ele>
        <time>2013-11-23T14:29:52.000Z</time>
      </trkpt>
      <trkpt lat="47.66731" lon="6.14346">
        <ele>248.60000610352</ele>
        <time>2013-11-23T14:29:59.000Z</time>
      </trkpt>
      <trkpt lat="47.66728" lon="6.14363">
        <ele>249.39999389648</ele>
        <time>2013-11-23T14:30:07.000Z</time>
      </trkpt>
      <trkpt lat="47.66727" lon="6.14365">
        <ele>249.60000610352</ele>
        <time>2013-11-23T14:30:08.000Z</time>
      </trkpt>
      <trkpt lat="47.66727" lon="6.14369">
        <ele>249.60000610352</ele>
        <time>2013-11-23T14:30:09.000Z</time>
      </trkpt>
      <trkpt lat="47.66726" lon="6.14372">
        <ele>249.80000305176</ele>
        <time>2013-11-23T14:30:10.000Z</time>
      </trkpt>
      <trkpt lat="47.66726" lon="6.14375">
        <ele>250</ele>
        <time>2013-11-23T14:30:11.000Z</time>
      </trkpt>
      <trkpt lat="47.66726" lon="6.14381">
        <ele>250.19999694824</ele>
        <time>2013-11-23T14:30:13.000Z</time>
      </trkpt>
      <trkpt lat="47.66723" lon="6.14396">
        <ele>250.80000305176</ele>
        <time>2013-11-23T14:30:19.000Z</time>
      </trkpt>
      <trkpt lat="47.66719" lon="6.14411">
        <ele>251.60000610352</ele>
        <time>2013-11-23T14:30:26.000Z</time>
      </trkpt>
      <trkpt lat="47.66718" lon="6.14413">
        <ele>251.80000305176</ele>
        <time>2013-11-23T14:30:27.000Z</time>
      </trkpt>
      <trkpt lat="47.66718" lon="6.14416">
        <ele>251.80000305176</ele>
        <time>2013-11-23T14:30:28.000Z</time>
      </trkpt>
      <trkpt lat="47.66718" lon="6.14418">
        <ele>252</ele>
        <time>2013-11-23T14:30:29.000Z</time>
      </trkpt>
      <trkpt lat="47.66718" lon="6.14421">
        <ele>252</ele>
        <time>2013-11-23T14:30:30.000Z</time>
      </trkpt>
      <trkpt lat="47.66718" lon="6.14423">
        <ele>252</ele>
        <time>2013-11-23T14:30:31.000Z</time>
      </trkpt>
      <trkpt lat="47.66717" lon="6.1444">
        <ele>252.39999389648</ele>
        <time>2013-11-23T14:30:38.000Z</time>
      </trkpt>
      <trkpt lat="47.66715" lon="6.14465">
        <ele>253</ele>
        <time>2013-11-23T14:30:48.000Z</time>
      </trkpt>
      <trkpt lat="47.66715" lon="6.14491">
        <ele>253.60000610352</ele>
        <time>2013-11-23T14:30:54.000Z</time>
      </trkpt>
      <trkpt lat="47.66715" lon="6.1452">
        <ele>254</ele>
        <time>2013-11-23T14:31:01.000Z</time>
      </trkpt>
      <trkpt lat="47.66716" lon="6.14528">
        <ele>254.19999694824</ele>
        <time>2013-11-23T14:31:03.000Z</time>
      </trkpt>
      <trkpt lat="47.66717" lon="6.14531">
        <ele>254.19999694824</ele>
        <time>2013-11-23T14:31:04.000Z</time>
      </trkpt>
      <trkpt lat="47.66717" lon="6.14535">
        <ele>254.39999389648</ele>
        <time>2013-11-23T14:31:05.000Z</time>
      </trkpt>
      <trkpt lat="47.66717" lon="6.14538">
        <ele>254.39999389648</ele>
        <time>2013-11-23T14:31:06.000Z</time>
      </trkpt>
      <trkpt lat="47.66718" lon="6.14541">
        <ele>254.39999389648</ele>
        <time>2013-11-23T14:31:07.000Z</time>
      </trkpt>
      <trkpt lat="47.66723" lon="6.14567">
        <ele>255</ele>
        <time>2013-11-23T14:31:15.000Z</time>
      </trkpt>
      <trkpt lat="47.66724" lon="6.14589">
        <ele>255.39999389648</ele>
        <time>2013-11-23T14:31:20.000Z</time>
      </trkpt>
      <trkpt lat="47.66727" lon="6.14608">
        <ele>255.80000305176</ele>
        <time>2013-11-23T14:31:26.000Z</time>
      </trkpt>
      <trkpt lat="47.66731" lon="6.14636">
        <ele>256.60000610352</ele>
        <time>2013-11-23T14:31:34.000Z</time>
      </trkpt>
      <trkpt lat="47.66733" lon="6.14662">
        <ele>257.20001220703</ele>
        <time>2013-11-23T14:31:40.000Z</time>
      </trkpt>
      <trkpt lat="47.66737" lon="6.14694">
        <ele>257.79998779297</ele>
        <time>2013-11-23T14:31:46.000Z</time>
      </trkpt>
      <trkpt lat="47.66735" lon="6.14731">
        <ele>258.39999389648</ele>
        <time>2013-11-23T14:31:53.000Z</time>
      </trkpt>
      <trkpt lat="47.66728" lon="6.14762">
        <ele>258.20001220703</ele>
        <time>2013-11-23T14:32:00.000Z</time>
      </trkpt>
      <trkpt lat="47.66722" lon="6.14791">
        <ele>257.39999389648</ele>
        <time>2013-11-23T14:32:07.000Z</time>
      </trkpt>
      <trkpt lat="47.66716" lon="6.14807">
        <ele>256.79998779297</ele>
        <time>2013-11-23T14:32:12.000Z</time>
      </trkpt>
      <trkpt lat="47.6671" lon="6.14803">
        <ele>256.79998779297</ele>
        <time>2013-11-23T14:32:15.000Z</time>
      </trkpt>
      <trkpt lat="47.66691" lon="6.14789">
        <ele>256.60000610352</ele>
        <time>2013-11-23T14:32:22.000Z</time>
      </trkpt>
      <trkpt lat="47.66685" lon="6.14792">
        <ele>256.39999389648</ele>
        <time>2013-11-23T14:32:24.000Z</time>
      </trkpt>
      <trkpt lat="47.66683" lon="6.14797">
        <ele>256.20001220703</ele>
        <time>2013-11-23T14:32:25.000Z</time>
      </trkpt>
      <trkpt lat="47.66676" lon="6.14813">
        <ele>255.80000305176</ele>
        <time>2013-11-23T14:32:29.000Z</time>
      </trkpt>
      <trkpt lat="47.66674" lon="6.14818">
        <ele>255.60000610352</ele>
        <time>2013-11-23T14:32:30.000Z</time>
      </trkpt>
      <trkpt lat="47.66672" lon="6.14823">
        <ele>255.39999389648</ele>
        <time>2013-11-23T14:32:31.000Z</time>
      </trkpt>
      <trkpt lat="47.66671" lon="6.14828">
        <ele>255.19999694824</ele>
        <time>2013-11-23T14:32:32.000Z</time>
      </trkpt>
      <trkpt lat="47.6666" lon="6.1486">
        <ele>254</ele>
        <time>2013-11-23T14:32:38.000Z</time>
      </trkpt>
      <trkpt lat="47.66658" lon="6.14866">
        <ele>253.80000305176</ele>
        <time>2013-11-23T14:32:39.000Z</time>
      </trkpt>
      <trkpt lat="47.66656" lon="6.14873">
        <ele>253.60000610352</ele>
        <time>2013-11-23T14:32:40.000Z</time>
      </trkpt>
      <trkpt lat="47.66653" lon="6.14881">
        <ele>253.19999694824</ele>
        <time>2013-11-23T14:32:41.000Z</time>
      </trkpt>
      <trkpt lat="47.6665" lon="6.14888">
        <ele>252.80000305176</ele>
        <time>2013-11-23T14:32:42.000Z</time>
      </trkpt>
      <trkpt lat="47.66648" lon="6.14896">
        <ele>252.60000610352</ele>
        <time>2013-11-23T14:32:43.000Z</time>
      </trkpt>
      <trkpt lat="47.66646" lon="6.14902">
        <ele>252.19999694824</ele>
        <time>2013-11-23T14:32:44.000Z</time>
      </trkpt>
      <trkpt lat="47.66644" lon="6.14909">
        <ele>251.80000305176</ele>
        <time>2013-11-23T14:32:45.000Z</time>
      </trkpt>
      <trkpt lat="47.66641" lon="6.14917">
        <ele>251.39999389648</ele>
        <time>2013-11-23T14:32:46.000Z</time>
      </trkpt>
      <trkpt lat="47.66639" lon="6.14924">
        <ele>251.19999694824</ele>
        <time>2013-11-23T14:32:47.000Z</time>
      </trkpt>
      <trkpt lat="47.66636" lon="6.14932">
        <ele>250.80000305176</ele>
        <time>2013-11-23T14:32:48.000Z</time>
      </trkpt>
      <trkpt lat="47.66632" lon="6.14939">
        <ele>250.60000610352</ele>
        <time>2013-11-23T14:32:49.000Z</time>
      </trkpt>
      <trkpt lat="47.66626" lon="6.14946">
        <ele>250</ele>
        <time>2013-11-23T14:32:50.000Z</time>
      </trkpt>
      <trkpt lat="47.66621" lon="6.14953">
        <ele>249.60000610352</ele>
        <time>2013-11-23T14:32:51.000Z</time>
      </trkpt>
      <trkpt lat="47.66616" lon="6.14961">
        <ele>249</ele>
        <time>2013-11-23T14:32:52.000Z</time>
      </trkpt>
      <trkpt lat="47.6661" lon="6.14969">
        <ele>248.60000610352</ele>
        <time>2013-11-23T14:32:53.000Z</time>
      </trkpt>
      <trkpt lat="47.66604" lon="6.14978">
        <ele>248</ele>
        <time>2013-11-23T14:32:54.000Z</time>
      </trkpt>
      <trkpt lat="47.66599" lon="6.14987">
        <ele>247.39999389648</ele>
        <time>2013-11-23T14:32:55.000Z</time>
      </trkpt>
      <trkpt lat="47.66594" lon="6.14996">
        <ele>246.80000305176</ele>
        <time>2013-11-23T14:32:56.000Z</time>
      </trkpt>
      <trkpt lat="47.66589" lon="6.15005">
        <ele>246.39999389648</ele>
        <time>2013-11-23T14:32:57.000Z</time>
      </trkpt>
      <trkpt lat="47.66584" lon="6.15015">
        <ele>246.19999694824</ele>
        <time>2013-11-23T14:32:58.000Z</time>
      </trkpt>
      <trkpt lat="47.6658" lon="6.15021">
        <ele>246</ele>
        <time>2013-11-23T14:32:59.000Z</time>
      </trkpt>
      <trkpt lat="47.66577" lon="6.15027">
        <ele>246</ele>
        <time>2013-11-23T14:33:00.000Z</time>
      </trkpt>
      <trkpt lat="47.66574" lon="6.15031">
        <ele>245.80000305176</ele>
        <time>2013-11-23T14:33:01.000Z</time>
      </trkpt>
      <trkpt lat="47.66571" lon="6.15035">
        <ele>245.60000610352</ele>
        <time>2013-11-23T14:33:02.000Z</time>
      </trkpt>
      <trkpt lat="47.66569" lon="6.15037">
        <ele>245.60000610352</ele>
        <time>2013-11-23T14:33:03.000Z</time>
      </trkpt>
      <trkpt lat="47.66567" lon="6.15039">
        <ele>245.39999389648</ele>
        <time>2013-11-23T14:33:04.000Z</time>
      </trkpt>
      <trkpt lat="47.66566" lon="6.15041">
        <ele>245.39999389648</ele>
        <time>2013-11-23T14:33:05.000Z</time>
      </trkpt>
      <trkpt lat="47.66552" lon="6.15045">
        <ele>244.39999389648</ele>
        <time>2013-11-23T14:33:09.000Z</time>
      </trkpt>
      <trkpt lat="47.66548" lon="6.15044">
        <ele>244.19999694824</ele>
        <time>2013-11-23T14:33:10.000Z</time>
      </trkpt>
      <trkpt lat="47.66543" lon="6.15045">
        <ele>243.80000305176</ele>
        <time>2013-11-23T14:33:11.000Z</time>
      </trkpt>
      <trkpt lat="47.66539" lon="6.15046">
        <ele>243.60000610352</ele>
        <time>2013-11-23T14:33:12.000Z</time>
      </trkpt>
      <trkpt lat="47.66535" lon="6.15045">
        <ele>243.19999694824</ele>
        <time>2013-11-23T14:33:13.000Z</time>
      </trkpt>
      <trkpt lat="47.6653" lon="6.15046">
        <ele>243</ele>
        <time>2013-11-23T14:33:14.000Z</time>
      </trkpt>
      <trkpt lat="47.66499" lon="6.15046">
        <ele>240.80000305176</ele>
        <time>2013-11-23T14:33:21.000Z</time>
      </trkpt>
      <trkpt lat="47.66495" lon="6.15045">
        <ele>240.80000305176</ele>
        <time>2013-11-23T14:33:22.000Z</time>
      </trkpt>
      <trkpt lat="47.66484" lon="6.15039">
        <ele>240.80000305176</ele>
        <time>2013-11-23T14:33:25.000Z</time>
      </trkpt>
      <trkpt lat="47.66473" lon="6.15033">
        <ele>241</ele>
        <time>2013-11-23T14:33:28.000Z</time>
      </trkpt>
      <trkpt lat="47.66451" lon="6.15034">
        <ele>240.60000610352</ele>
        <time>2013-11-23T14:33:34.000Z</time>
      </trkpt>
      <trkpt lat="47.66427" lon="6.15041">
        <ele>240.19999694824</ele>
        <time>2013-11-23T14:33:41.000Z</time>
      </trkpt>
      <trkpt lat="47.66404" lon="6.15045">
        <ele>239.80000305176</ele>
        <time>2013-11-23T14:33:48.000Z</time>
      </trkpt>
      <trkpt lat="47.6638" lon="6.15051">
        <ele>239.19999694824</ele>
        <time>2013-11-23T14:33:55.000Z</time>
      </trkpt>
      <trkpt lat="47.66352" lon="6.15054">
        <ele>238.80000305176</ele>
        <time>2013-11-23T14:34:03.000Z</time>
      </trkpt>
      <trkpt lat="47.66326" lon="6.1505">
        <ele>238.60000610352</ele>
        <time>2013-11-23T14:34:11.000Z</time>
      </trkpt>
      <trkpt lat="47.66322" lon="6.1505">
        <ele>238.39999389648</ele>
        <time>2013-11-23T14:34:12.000Z</time>
      </trkpt>
      <trkpt lat="47.66319" lon="6.15049">
        <ele>238.39999389648</ele>
        <time>2013-11-23T14:34:13.000Z</time>
      </trkpt>
      <trkpt lat="47.66315" lon="6.15049">
        <ele>238.19999694824</ele>
        <time>2013-11-23T14:34:14.000Z</time>
      </trkpt>
      <trkpt lat="47.66312" lon="6.15048">
        <ele>238.19999694824</ele>
        <time>2013-11-23T14:34:15.000Z</time>
      </trkpt>
      <trkpt lat="47.66301" lon="6.15046">
        <ele>237.80000305176</ele>
        <time>2013-11-23T14:34:18.000Z</time>
      </trkpt>
      <trkpt lat="47.66293" lon="6.15044">
        <ele>237.60000610352</ele>
        <time>2013-11-23T14:34:20.000Z</time>
      </trkpt>
      <trkpt lat="47.6628" lon="6.15042">
        <ele>237</ele>
        <time>2013-11-23T14:34:23.000Z</time>
      </trkpt>
      <trkpt lat="47.66256" lon="6.15039">
        <ele>236.19999694824</ele>
        <time>2013-11-23T14:34:28.000Z</time>
      </trkpt>
      <trkpt lat="47.66251" lon="6.15038">
        <ele>236</ele>
        <time>2013-11-23T14:34:29.000Z</time>
      </trkpt>
      <trkpt lat="47.66245" lon="6.15037">
        <ele>235.80000305176</ele>
        <time>2013-11-23T14:34:30.000Z</time>
      </trkpt>
      <trkpt lat="47.6624" lon="6.15036">
        <ele>235.39999389648</ele>
        <time>2013-11-23T14:34:31.000Z</time>
      </trkpt>
      <trkpt lat="47.66234" lon="6.15034">
        <ele>235</ele>
        <time>2013-11-23T14:34:32.000Z</time>
      </trkpt>
      <trkpt lat="47.66216" lon="6.1503">
        <ele>234</ele>
        <time>2013-11-23T14:34:35.000Z</time>
      </trkpt>
      <trkpt lat="47.6621" lon="6.15029">
        <ele>233.60000610352</ele>
        <time>2013-11-23T14:34:36.000Z</time>
      </trkpt>
      <trkpt lat="47.66205" lon="6.15028">
        <ele>233.19999694824</ele>
        <time>2013-11-23T14:34:37.000Z</time>
      </trkpt>
      <trkpt lat="47.66199" lon="6.15027">
        <ele>233</ele>
        <time>2013-11-23T14:34:38.000Z</time>
      </trkpt>
      <trkpt lat="47.66188" lon="6.15025">
        <ele>232.19999694824</ele>
        <time>2013-11-23T14:34:40.000Z</time>
      </trkpt>
      <trkpt lat="47.66182" lon="6.15025">
        <ele>232</ele>
        <time>2013-11-23T14:34:41.000Z</time>
      </trkpt>
      <trkpt lat="47.66176" lon="6.15024">
        <ele>231.60000610352</ele>
        <time>2013-11-23T14:34:42.000Z</time>
      </trkpt>
      <trkpt lat="47.6617" lon="6.15024">
        <ele>231.19999694824</ele>
        <time>2013-11-23T14:34:43.000Z</time>
      </trkpt>
      <trkpt lat="47.66164" lon="6.15023">
        <ele>230.80000305176</ele>
        <time>2013-11-23T14:34:44.000Z</time>
      </trkpt>
      <trkpt lat="47.66157" lon="6.15023">
        <ele>230.39999389648</ele>
        <time>2013-11-23T14:34:45.000Z</time>
      </trkpt>
      <trkpt lat="47.66151" lon="6.15023">
        <ele>230</ele>
        <time>2013-11-23T14:34:46.000Z</time>
      </trkpt>
      <trkpt lat="47.66143" lon="6.15023">
        <ele>229.60000610352</ele>
        <time>2013-11-23T14:34:47.000Z</time>
      </trkpt>
      <trkpt lat="47.66136" lon="6.15023">
        <ele>229.19999694824</ele>
        <time>2013-11-23T14:34:48.000Z</time>
      </trkpt>
      <trkpt lat="47.66128" lon="6.15023">
        <ele>228.60000610352</ele>
        <time>2013-11-23T14:34:49.000Z</time>
      </trkpt>
      <trkpt lat="47.6612" lon="6.15024">
        <ele>228.19999694824</ele>
        <time>2013-11-23T14:34:50.000Z</time>
      </trkpt>
      <trkpt lat="47.66112" lon="6.15023">
        <ele>227.60000610352</ele>
        <time>2013-11-23T14:34:51.000Z</time>
      </trkpt>
      <trkpt lat="47.66103" lon="6.15023">
        <ele>227.19999694824</ele>
        <time>2013-11-23T14:34:52.000Z</time>
      </trkpt>
      <trkpt lat="47.66095" lon="6.15023">
        <ele>226.60000610352</ele>
        <time>2013-11-23T14:34:53.000Z</time>
      </trkpt>
      <trkpt lat="47.66086" lon="6.15024">
        <ele>226.19999694824</ele>
        <time>2013-11-23T14:34:54.000Z</time>
      </trkpt>
      <trkpt lat="47.66077" lon="6.15024">
        <ele>225.80000305176</ele>
        <time>2013-11-23T14:34:55.000Z</time>
      </trkpt>
      <trkpt lat="47.66067" lon="6.15024">
        <ele>225.80000305176</ele>
        <time>2013-11-23T14:34:56.000Z</time>
      </trkpt>
      <trkpt lat="47.66058" lon="6.15024">
        <ele>225.60000610352</ele>
        <time>2013-11-23T14:34:57.000Z</time>
      </trkpt>
      <trkpt lat="47.6605" lon="6.15025">
        <ele>225.39999389648</ele>
        <time>2013-11-23T14:34:58.000Z</time>
      </trkpt>
      <trkpt lat="47.66041" lon="6.15025">
        <ele>225.19999694824</ele>
        <time>2013-11-23T14:34:59.000Z</time>
      </trkpt>
      <trkpt lat="47.66033" lon="6.15025">
        <ele>225.19999694824</ele>
        <time>2013-11-23T14:35:00.000Z</time>
      </trkpt>
      <trkpt lat="47.65978" lon="6.15022">
        <ele>225.19999694824</ele>
        <time>2013-11-23T14:35:07.000Z</time>
      </trkpt>
      <trkpt lat="47.65942" lon="6.15019">
        <ele>226.39999389648</ele>
        <time>2013-11-23T14:35:13.000Z</time>
      </trkpt>
      <trkpt lat="47.65915" lon="6.15019">
        <ele>227.19999694824</ele>
        <time>2013-11-23T14:35:19.000Z</time>
      </trkpt>
      <trkpt lat="47.65881" lon="6.15018">
        <ele>228.39999389648</ele>
        <time>2013-11-23T14:35:27.000Z</time>
      </trkpt>
      <trkpt lat="47.65869" lon="6.15019">
        <ele>228.60000610352</ele>
        <time>2013-11-23T14:35:30.000Z</time>
      </trkpt>
      <trkpt lat="47.65866" lon="6.15018">
        <ele>228.80000305176</ele>
        <time>2013-11-23T14:35:31.000Z</time>
      </trkpt>
      <trkpt lat="47.65863" lon="6.15017">
        <ele>228.80000305176</ele>
        <time>2013-11-23T14:35:32.000Z</time>
      </trkpt>
      <trkpt lat="47.65859" lon="6.15017">
        <ele>229</ele>
        <time>2013-11-23T14:35:33.000Z</time>
      </trkpt>
      <trkpt lat="47.65855" lon="6.15017">
        <ele>229.19999694824</ele>
        <time>2013-11-23T14:35:34.000Z</time>
      </trkpt>
      <trkpt lat="47.65837" lon="6.15018">
        <ele>229.60000610352</ele>
        <time>2013-11-23T14:35:40.000Z</time>
      </trkpt>
      <trkpt lat="47.65818" lon="6.15019">
        <ele>230</ele>
        <time>2013-11-23T14:35:47.000Z</time>
      </trkpt>
      <trkpt lat="47.65807" lon="6.15021">
        <ele>230</ele>
        <time>2013-11-23T14:35:51.000Z</time>
      </trkpt>
      <trkpt lat="47.65804" lon="6.15021">
        <ele>230</ele>
        <time>2013-11-23T14:35:52.000Z</time>
      </trkpt>
      <trkpt lat="47.65801" lon="6.15021">
        <ele>230</ele>
        <time>2013-11-23T14:35:53.000Z</time>
      </trkpt>
      <trkpt lat="47.65799" lon="6.15021">
        <ele>230</ele>
        <time>2013-11-23T14:35:54.000Z</time>
      </trkpt>
      <trkpt lat="47.65796" lon="6.1502">
        <ele>230.19999694824</ele>
        <time>2013-11-23T14:35:55.000Z</time>
      </trkpt>
      <trkpt lat="47.65782" lon="6.15022">
        <ele>230.19999694824</ele>
        <time>2013-11-23T14:36:00.000Z</time>
      </trkpt>
      <trkpt lat="47.65755" lon="6.15022">
        <ele>230.39999389648</ele>
        <time>2013-11-23T14:36:08.000Z</time>
      </trkpt>
      <trkpt lat="47.65735" lon="6.15022">
        <ele>230.19999694824</ele>
        <time>2013-11-23T14:36:14.000Z</time>
      </trkpt>
      <trkpt lat="47.65712" lon="6.15026">
        <ele>229.39999389648</ele>
        <time>2013-11-23T14:36:21.000Z</time>
      </trkpt>
      <trkpt lat="47.6571" lon="6.1503">
        <ele>229.39999389648</ele>
        <time>2013-11-23T14:36:22.000Z</time>
      </trkpt>
      <trkpt lat="47.65709" lon="6.15041">
        <ele>229</ele>
        <time>2013-11-23T14:36:24.000Z</time>
      </trkpt>
      <trkpt lat="47.65711" lon="6.15051">
        <ele>228.80000305176</ele>
        <time>2013-11-23T14:36:26.000Z</time>
      </trkpt>
      <trkpt lat="47.65715" lon="6.1507">
        <ele>228.39999389648</ele>
        <time>2013-11-23T14:36:30.000Z</time>
      </trkpt>
      <trkpt lat="47.65718" lon="6.15084">
        <ele>228.19999694824</ele>
        <time>2013-11-23T14:36:34.000Z</time>
      </trkpt>
      <trkpt lat="47.65721" lon="6.15099">
        <ele>228</ele>
        <time>2013-11-23T14:36:39.000Z</time>
      </trkpt>
      <trkpt lat="47.65721" lon="6.15102">
        <ele>228</ele>
        <time>2013-11-23T14:36:40.000Z</time>
      </trkpt>
      <trkpt lat="47.65722" lon="6.15107">
        <ele>227.80000305176</ele>
        <time>2013-11-23T14:36:41.000Z</time>
      </trkpt>
      <trkpt lat="47.65723" lon="6.15111">
        <ele>227.80000305176</ele>
        <time>2013-11-23T14:36:42.000Z</time>
      </trkpt>
      <trkpt lat="47.65724" lon="6.15116">
        <ele>227.80000305176</ele>
        <time>2013-11-23T14:36:43.000Z</time>
      </trkpt>
      <trkpt lat="47.65727" lon="6.15131">
        <ele>227.39999389648</ele>
        <time>2013-11-23T14:36:46.000Z</time>
      </trkpt>
      <trkpt lat="47.65734" lon="6.15163">
        <ele>226.80000305176</ele>
        <time>2013-11-23T14:36:53.000Z</time>
      </trkpt>
      <trkpt lat="47.6574" lon="6.15199">
        <ele>225.80000305176</ele>
        <time>2013-11-23T14:37:00.000Z</time>
      </trkpt>
      <trkpt lat="47.65742" lon="6.1521">
        <ele>225.39999389648</ele>
        <time>2013-11-23T14:37:02.000Z</time>
      </trkpt>
      <trkpt lat="47.65743" lon="6.15216">
        <ele>225.19999694824</ele>
        <time>2013-11-23T14:37:03.000Z</time>
      </trkpt>
      <trkpt lat="47.65745" lon="6.15222">
        <ele>225</ele>
        <time>2013-11-23T14:37:04.000Z</time>
      </trkpt>
      <trkpt lat="47.65746" lon="6.15228">
        <ele>224.80000305176</ele>
        <time>2013-11-23T14:37:05.000Z</time>
      </trkpt>
      <trkpt lat="47.65749" lon="6.1524">
        <ele>224.39999389648</ele>
        <time>2013-11-23T14:37:07.000Z</time>
      </trkpt>
      <trkpt lat="47.65753" lon="6.15261">
        <ele>223.80000305176</ele>
        <time>2013-11-23T14:37:10.000Z</time>
      </trkpt>
      <trkpt lat="47.65754" lon="6.15269">
        <ele>223.39999389648</ele>
        <time>2013-11-23T14:37:11.000Z</time>
      </trkpt>
      <trkpt lat="47.65756" lon="6.15276">
        <ele>223.19999694824</ele>
        <time>2013-11-23T14:37:12.000Z</time>
      </trkpt>
      <trkpt lat="47.65758" lon="6.15284">
        <ele>223</ele>
        <time>2013-11-23T14:37:13.000Z</time>
      </trkpt>
      <trkpt lat="47.6576" lon="6.15292">
        <ele>222.80000305176</ele>
        <time>2013-11-23T14:37:14.000Z</time>
      </trkpt>
      <trkpt lat="47.65762" lon="6.153">
        <ele>222.39999389648</ele>
        <time>2013-11-23T14:37:15.000Z</time>
      </trkpt>
      <trkpt lat="47.65763" lon="6.15307">
        <ele>222.19999694824</ele>
        <time>2013-11-23T14:37:16.000Z</time>
      </trkpt>
      <trkpt lat="47.65765" lon="6.15315">
        <ele>222</ele>
        <time>2013-11-23T14:37:17.000Z</time>
      </trkpt>
      <trkpt lat="47.65766" lon="6.15322">
        <ele>221.60000610352</ele>
        <time>2013-11-23T14:37:18.000Z</time>
      </trkpt>
      <trkpt lat="47.65767" lon="6.15328">
        <ele>221.39999389648</ele>
        <time>2013-11-23T14:37:19.000Z</time>
      </trkpt>
      <trkpt lat="47.65774" lon="6.15362">
        <ele>221</ele>
        <time>2013-11-23T14:37:25.000Z</time>
      </trkpt>
      <trkpt lat="47.65775" lon="6.15368">
        <ele>221</ele>
        <time>2013-11-23T14:37:26.000Z</time>
      </trkpt>
      <trkpt lat="47.65776" lon="6.15373">
        <ele>221</ele>
        <time>2013-11-23T14:37:27.000Z</time>
      </trkpt>
      <trkpt lat="47.65777" lon="6.15379">
        <ele>221</ele>
        <time>2013-11-23T14:37:28.000Z</time>
      </trkpt>
      <trkpt lat="47.65781" lon="6.154">
        <ele>220.80000305176</ele>
        <time>2013-11-23T14:37:32.000Z</time>
      </trkpt>
      <trkpt lat="47.65787" lon="6.15425">
        <ele>221</ele>
        <time>2013-11-23T14:37:38.000Z</time>
      </trkpt>
      <trkpt lat="47.65791" lon="6.15441">
        <ele>221.39999389648</ele>
        <time>2013-11-23T14:37:44.000Z</time>
      </trkpt>
      <trkpt lat="47.65794" lon="6.1546">
        <ele>221.80000305176</ele>
        <time>2013-11-23T14:37:51.000Z</time>
      </trkpt>
      <trkpt lat="47.65797" lon="6.15479">
        <ele>222.19999694824</ele>
        <time>2013-11-23T14:37:58.000Z</time>
      </trkpt>
      <trkpt lat="47.65801" lon="6.15499">
        <ele>222.60000610352</ele>
        <time>2013-11-23T14:38:07.000Z</time>
      </trkpt>
      <trkpt lat="47.65804" lon="6.15516">
        <ele>223.19999694824</ele>
        <time>2013-11-23T14:38:16.000Z</time>
      </trkpt>
      <trkpt lat="47.65804" lon="6.15516">
        <ele>223.19999694824</ele>
        <time>2013-11-23T14:38:17.000Z</time>
      </trkpt>
      <trkpt lat="47.65806" lon="6.15524">
        <ele>223.60000610352</ele>
        <time>2013-11-23T14:38:28.000Z</time>
      </trkpt>
      <trkpt lat="47.65807" lon="6.15527">
        <ele>223.60000610352</ele>
        <time>2013-11-23T14:38:30.000Z</time>
      </trkpt>
      <trkpt lat="47.65809" lon="6.15537">
        <ele>224</ele>
        <time>2013-11-23T14:38:36.000Z</time>
      </trkpt>
      <trkpt lat="47.6581" lon="6.15541">
        <ele>224.19999694824</ele>
        <time>2013-11-23T14:38:38.000Z</time>
      </trkpt>
      <trkpt lat="47.65811" lon="6.15545">
        <ele>224.39999389648</ele>
        <time>2013-11-23T14:38:41.000Z</time>
      </trkpt>
      <trkpt lat="47.65812" lon="6.15553">
        <ele>224.60000610352</ele>
        <time>2013-11-23T14:38:46.000Z</time>
      </trkpt>
      <trkpt lat="47.65813" lon="6.15562">
        <ele>225</ele>
        <time>2013-11-23T14:38:53.000Z</time>
      </trkpt>
      <trkpt lat="47.65814" lon="6.15575">
        <ele>225.39999389648</ele>
        <time>2013-11-23T14:39:02.000Z</time>
      </trkpt>
      <trkpt lat="47.65816" lon="6.15582">
        <ele>225.80000305176</ele>
        <time>2013-11-23T14:39:07.000Z</time>
      </trkpt>
      <trkpt lat="47.65817" lon="6.15585">
        <ele>225.80000305176</ele>
        <time>2013-11-23T14:39:14.000Z</time>
      </trkpt>
      <trkpt lat="47.65819" lon="6.156">
        <ele>226.39999389648</ele>
        <time>2013-11-23T14:39:20.000Z</time>
      </trkpt>
      <trkpt lat="47.65825" lon="6.15627">
        <ele>227.39999389648</ele>
        <time>2013-11-23T14:39:29.000Z</time>
      </trkpt>
      <trkpt lat="47.65829" lon="6.15645">
        <ele>228</ele>
        <time>2013-11-23T14:39:35.000Z</time>
      </trkpt>
      <trkpt lat="47.65829" lon="6.15648">
        <ele>228.19999694824</ele>
        <time>2013-11-23T14:39:36.000Z</time>
      </trkpt>
      <trkpt lat="47.6583" lon="6.15651">
        <ele>228.39999389648</ele>
        <time>2013-11-23T14:39:37.000Z</time>
      </trkpt>
      <trkpt lat="47.65831" lon="6.15653">
        <ele>228.39999389648</ele>
        <time>2013-11-23T14:39:38.000Z</time>
      </trkpt>
      <trkpt lat="47.65831" lon="6.15656">
        <ele>228.60000610352</ele>
        <time>2013-11-23T14:39:39.000Z</time>
      </trkpt>
      <trkpt lat="47.65834" lon="6.1567">
        <ele>229</ele>
        <time>2013-11-23T14:39:44.000Z</time>
      </trkpt>
      <trkpt lat="47.65839" lon="6.15696">
        <ele>228.80000305176</ele>
        <time>2013-11-23T14:39:53.000Z</time>
      </trkpt>
      <trkpt lat="47.65844" lon="6.15724">
        <ele>228.80000305176</ele>
        <time>2013-11-23T14:40:02.000Z</time>
      </trkpt>
      <trkpt lat="47.6585" lon="6.15754">
        <ele>229</ele>
        <time>2013-11-23T14:40:12.000Z</time>
      </trkpt>
      <trkpt lat="47.65854" lon="6.15772">
        <ele>230</ele>
        <time>2013-11-23T14:40:18.000Z</time>
      </trkpt>
      <trkpt lat="47.65854" lon="6.15774">
        <ele>230</ele>
        <time>2013-11-23T14:40:19.000Z</time>
      </trkpt>
      <trkpt lat="47.65855" lon="6.15777">
        <ele>230.19999694824</ele>
        <time>2013-11-23T14:40:20.000Z</time>
      </trkpt>
      <trkpt lat="47.65855" lon="6.15781">
        <ele>230.39999389648</ele>
        <time>2013-11-23T14:40:21.000Z</time>
      </trkpt>
      <trkpt lat="47.65859" lon="6.158">
        <ele>231.19999694824</ele>
        <time>2013-11-23T14:40:27.000Z</time>
      </trkpt>
      <trkpt lat="47.65864" lon="6.15826">
        <ele>232.60000610352</ele>
        <time>2013-11-23T14:40:35.000Z</time>
      </trkpt>
      <trkpt lat="47.65873" lon="6.1585">
        <ele>233.80000305176</ele>
        <time>2013-11-23T14:40:43.000Z</time>
      </trkpt>
      <trkpt lat="47.65886" lon="6.15873">
        <ele>234.80000305176</ele>
        <time>2013-11-23T14:40:50.000Z</time>
      </trkpt>
      <trkpt lat="47.65898" lon="6.15895">
        <ele>235.60000610352</ele>
        <time>2013-11-23T14:40:57.000Z</time>
      </trkpt>
      <trkpt lat="47.65908" lon="6.15914">
        <ele>236.39999389648</ele>
        <time>2013-11-23T14:41:03.000Z</time>
      </trkpt>
      <trkpt lat="47.65917" lon="6.15933">
        <ele>236.60000610352</ele>
        <time>2013-11-23T14:41:09.000Z</time>
      </trkpt>
      <trkpt lat="47.65927" lon="6.15953">
        <ele>236.60000610352</ele>
        <time>2013-11-23T14:41:16.000Z</time>
      </trkpt>
      <trkpt lat="47.65924" lon="6.15963">
        <ele>237</ele>
        <time>2013-11-23T14:41:20.000Z</time>
      </trkpt>
      <trkpt lat="47.65922" lon="6.15968">
        <ele>237.39999389648</ele>
        <time>2013-11-23T14:41:22.000Z</time>
      </trkpt>
      <trkpt lat="47.65913" lon="6.15982">
        <ele>238.60000610352</ele>
        <time>2013-11-23T14:41:29.000Z</time>
      </trkpt>
      <trkpt lat="47.65906" lon="6.15995">
        <ele>239.39999389648</ele>
        <time>2013-11-23T14:41:35.000Z</time>
      </trkpt>
      <trkpt lat="47.65898" lon="6.16006">
        <ele>240.19999694824</ele>
        <time>2013-11-23T14:41:41.000Z</time>
      </trkpt>
      <trkpt lat="47.65882" lon="6.16027">
        <ele>241.39999389648</ele>
        <time>2013-11-23T14:41:50.000Z</time>
      </trkpt>
      <trkpt lat="47.65865" lon="6.1605">
        <ele>242.19999694824</ele>
        <time>2013-11-23T14:41:57.000Z</time>
      </trkpt>
      <trkpt lat="47.65863" lon="6.16055">
        <ele>242.19999694824</ele>
        <time>2013-11-23T14:41:58.000Z</time>
      </trkpt>
      <trkpt lat="47.6585" lon="6.16074">
        <ele>242.60000610352</ele>
        <time>2013-11-23T14:42:02.000Z</time>
      </trkpt>
      <trkpt lat="47.65834" lon="6.16096">
        <ele>243</ele>
        <time>2013-11-23T14:42:06.000Z</time>
      </trkpt>
      <trkpt lat="47.6583" lon="6.16102">
        <ele>242.80000305176</ele>
        <time>2013-11-23T14:42:07.000Z</time>
      </trkpt>
      <trkpt lat="47.65825" lon="6.16109">
        <ele>242.60000610352</ele>
        <time>2013-11-23T14:42:08.000Z</time>
      </trkpt>
      <trkpt lat="47.6582" lon="6.16115">
        <ele>242.19999694824</ele>
        <time>2013-11-23T14:42:09.000Z</time>
      </trkpt>
      <trkpt lat="47.65816" lon="6.16122">
        <ele>241.80000305176</ele>
        <time>2013-11-23T14:42:10.000Z</time>
      </trkpt>
      <trkpt lat="47.65801" lon="6.16144">
        <ele>240.60000610352</ele>
        <time>2013-11-23T14:42:13.000Z</time>
      </trkpt>
      <trkpt lat="47.65796" lon="6.16151">
        <ele>240.19999694824</ele>
        <time>2013-11-23T14:42:14.000Z</time>
      </trkpt>
      <trkpt lat="47.6579" lon="6.16159">
        <ele>239.60000610352</ele>
        <time>2013-11-23T14:42:15.000Z</time>
      </trkpt>
      <trkpt lat="47.65785" lon="6.16167">
        <ele>239</ele>
        <time>2013-11-23T14:42:16.000Z</time>
      </trkpt>
      <trkpt lat="47.65779" lon="6.16174">
        <ele>238.39999389648</ele>
        <time>2013-11-23T14:42:17.000Z</time>
      </trkpt>
      <trkpt lat="47.65774" lon="6.16182">
        <ele>238</ele>
        <time>2013-11-23T14:42:18.000Z</time>
      </trkpt>
      <trkpt lat="47.65768" lon="6.1619">
        <ele>237.39999389648</ele>
        <time>2013-11-23T14:42:19.000Z</time>
      </trkpt>
      <trkpt lat="47.65763" lon="6.16198">
        <ele>237</ele>
        <time>2013-11-23T14:42:20.000Z</time>
      </trkpt>
      <trkpt lat="47.65758" lon="6.16206">
        <ele>236.60000610352</ele>
        <time>2013-11-23T14:42:21.000Z</time>
      </trkpt>
      <trkpt lat="47.65752" lon="6.16213">
        <ele>236.19999694824</ele>
        <time>2013-11-23T14:42:22.000Z</time>
      </trkpt>
      <trkpt lat="47.65738" lon="6.16234">
        <ele>234.60000610352</ele>
        <time>2013-11-23T14:42:25.000Z</time>
      </trkpt>
      <trkpt lat="47.65734" lon="6.1624">
        <ele>234.19999694824</ele>
        <time>2013-11-23T14:42:26.000Z</time>
      </trkpt>
      <trkpt lat="47.65729" lon="6.16247">
        <ele>233.60000610352</ele>
        <time>2013-11-23T14:42:27.000Z</time>
      </trkpt>
      <trkpt lat="47.65725" lon="6.16253">
        <ele>233</ele>
        <time>2013-11-23T14:42:28.000Z</time>
      </trkpt>
      <trkpt lat="47.6572" lon="6.16259">
        <ele>232.80000305176</ele>
        <time>2013-11-23T14:42:29.000Z</time>
      </trkpt>
      <trkpt lat="47.65701" lon="6.16286">
        <ele>232.19999694824</ele>
        <time>2013-11-23T14:42:34.000Z</time>
      </trkpt>
      <trkpt lat="47.65674" lon="6.16326">
        <ele>232</ele>
        <time>2013-11-23T14:42:42.000Z</time>
      </trkpt>
      <trkpt lat="47.65654" lon="6.16356">
        <ele>232.80000305176</ele>
        <time>2013-11-23T14:42:48.000Z</time>
      </trkpt>
      <trkpt lat="47.65634" lon="6.16386">
        <ele>233.80000305176</ele>
        <time>2013-11-23T14:42:55.000Z</time>
      </trkpt>
      <trkpt lat="47.65616" lon="6.16413">
        <ele>234</ele>
        <time>2013-11-23T14:43:02.000Z</time>
      </trkpt>
      <trkpt lat="47.656" lon="6.16434">
        <ele>234.19999694824</ele>
        <time>2013-11-23T14:43:09.000Z</time>
      </trkpt>
      <trkpt lat="47.65588" lon="6.16453">
        <ele>234.80000305176</ele>
        <time>2013-11-23T14:43:15.000Z</time>
      </trkpt>
      <trkpt lat="47.65585" lon="6.16456">
        <ele>235</ele>
        <time>2013-11-23T14:43:16.000Z</time>
      </trkpt>
      <trkpt lat="47.65583" lon="6.16459">
        <ele>235</ele>
        <time>2013-11-23T14:43:17.000Z</time>
      </trkpt>
      <trkpt lat="47.65581" lon="6.16462">
        <ele>235.19999694824</ele>
        <time>2013-11-23T14:43:18.000Z</time>
      </trkpt>
      <trkpt lat="47.65579" lon="6.16465">
        <ele>235.19999694824</ele>
        <time>2013-11-23T14:43:19.000Z</time>
      </trkpt>
      <trkpt lat="47.65564" lon="6.16487">
        <ele>235.60000610352</ele>
        <time>2013-11-23T14:43:26.000Z</time>
      </trkpt>
      <trkpt lat="47.65549" lon="6.16506">
        <ele>235.19999694824</ele>
        <time>2013-11-23T14:43:33.000Z</time>
      </trkpt>
      <trkpt lat="47.65535" lon="6.16528">
        <ele>234.39999389648</ele>
        <time>2013-11-23T14:43:41.000Z</time>
      </trkpt>
      <trkpt lat="47.65533" lon="6.16531">
        <ele>234.39999389648</ele>
        <time>2013-11-23T14:43:42.000Z</time>
      </trkpt>
      <trkpt lat="47.65531" lon="6.16534">
        <ele>234.39999389648</ele>
        <time>2013-11-23T14:43:43.000Z</time>
      </trkpt>
      <trkpt lat="47.65529" lon="6.16537">
        <ele>234.19999694824</ele>
        <time>2013-11-23T14:43:44.000Z</time>
      </trkpt>
      <trkpt lat="47.65526" lon="6.1654">
        <ele>234.19999694824</ele>
        <time>2013-11-23T14:43:45.000Z</time>
      </trkpt>
      <trkpt lat="47.65524" lon="6.16542">
        <ele>234.19999694824</ele>
        <time>2013-11-23T14:43:46.000Z</time>
      </trkpt>
      <trkpt lat="47.65521" lon="6.16542">
        <ele>234</ele>
        <time>2013-11-23T14:43:47.000Z</time>
      </trkpt>
      <trkpt lat="47.65502" lon="6.16539">
        <ele>233</ele>
        <time>2013-11-23T14:43:53.000Z</time>
      </trkpt>
      <trkpt lat="47.65474" lon="6.16534">
        <ele>232</ele>
        <time>2013-11-23T14:43:59.000Z</time>
      </trkpt>
      <trkpt lat="47.65435" lon="6.16526">
        <ele>230.60000610352</ele>
        <time>2013-11-23T14:44:07.000Z</time>
      </trkpt>
      <trkpt lat="47.65395" lon="6.16519">
        <ele>229.60000610352</ele>
        <time>2013-11-23T14:44:15.000Z</time>
      </trkpt>
      <trkpt lat="47.65363" lon="6.16513">
        <ele>229.39999389648</ele>
        <time>2013-11-23T14:44:22.000Z</time>
      </trkpt>
      <trkpt lat="47.65332" lon="6.16507">
        <ele>229.39999389648</ele>
        <time>2013-11-23T14:44:29.000Z</time>
      </trkpt>
      <trkpt lat="47.65295" lon="6.16501">
        <ele>230</ele>
        <time>2013-11-23T14:44:37.000Z</time>
      </trkpt>
      <trkpt lat="47.65259" lon="6.16495">
        <ele>230.60000610352</ele>
        <time>2013-11-23T14:44:45.000Z</time>
      </trkpt>
      <trkpt lat="47.65221" lon="6.16487">
        <ele>231.19999694824</ele>
        <time>2013-11-23T14:44:54.000Z</time>
      </trkpt>
      <trkpt lat="47.65217" lon="6.16486">
        <ele>231.19999694824</ele>
        <time>2013-11-23T14:44:55.000Z</time>
      </trkpt>
      <trkpt lat="47.65195" lon="6.16483">
        <ele>231.60000610352</ele>
        <time>2013-11-23T14:45:01.000Z</time>
      </trkpt>
      <trkpt lat="47.65179" lon="6.1648">
        <ele>231.80000305176</ele>
        <time>2013-11-23T14:45:06.000Z</time>
      </trkpt>
      <trkpt lat="47.65161" lon="6.16476">
        <ele>232</ele>
        <time>2013-11-23T14:45:12.000Z</time>
      </trkpt>
      <trkpt lat="47.65153" lon="6.16474">
        <ele>232.19999694824</ele>
        <time>2013-11-23T14:45:15.000Z</time>
      </trkpt>
      <trkpt lat="47.6515" lon="6.16474">
        <ele>232.19999694824</ele>
        <time>2013-11-23T14:45:16.000Z</time>
      </trkpt>
      <trkpt lat="47.65147" lon="6.16473">
        <ele>232.19999694824</ele>
        <time>2013-11-23T14:45:17.000Z</time>
      </trkpt>
      <trkpt lat="47.65145" lon="6.16473">
        <ele>232.39999389648</ele>
        <time>2013-11-23T14:45:18.000Z</time>
      </trkpt>
      <trkpt lat="47.65142" lon="6.16472">
        <ele>232.39999389648</ele>
        <time>2013-11-23T14:45:19.000Z</time>
      </trkpt>
      <trkpt lat="47.65121" lon="6.16468">
        <ele>232.80000305176</ele>
        <time>2013-11-23T14:45:27.000Z</time>
      </trkpt>
      <trkpt lat="47.65099" lon="6.16465">
        <ele>233.19999694824</ele>
        <time>2013-11-23T14:45:33.000Z</time>
      </trkpt>
      <trkpt lat="47.65091" lon="6.16464">
        <ele>233.39999389648</ele>
        <time>2013-11-23T14:45:35.000Z</time>
      </trkpt>
      <trkpt lat="47.65088" lon="6.16463">
        <ele>233.60000610352</ele>
        <time>2013-11-23T14:45:36.000Z</time>
      </trkpt>
      <trkpt lat="47.65085" lon="6.16462">
        <ele>233.60000610352</ele>
        <time>2013-11-23T14:45:37.000Z</time>
      </trkpt>
      <trkpt lat="47.65082" lon="6.16462">
        <ele>233.60000610352</ele>
        <time>2013-11-23T14:45:38.000Z</time>
      </trkpt>
      <trkpt lat="47.65078" lon="6.16461">
        <ele>233.80000305176</ele>
        <time>2013-11-23T14:45:39.000Z</time>
      </trkpt>
      <trkpt lat="47.65061" lon="6.16457">
        <ele>234.19999694824</ele>
        <time>2013-11-23T14:45:45.000Z</time>
      </trkpt>
      <trkpt lat="47.65053" lon="6.16456">
        <ele>234.39999389648</ele>
        <time>2013-11-23T14:45:48.000Z</time>
      </trkpt>
      <trkpt lat="47.65051" lon="6.16455">
        <ele>234.39999389648</ele>
        <time>2013-11-23T14:45:49.000Z</time>
      </trkpt>
      <trkpt lat="47.65048" lon="6.16455">
        <ele>234.60000610352</ele>
        <time>2013-11-23T14:45:50.000Z</time>
      </trkpt>
      <trkpt lat="47.65045" lon="6.16454">
        <ele>234.60000610352</ele>
        <time>2013-11-23T14:45:51.000Z</time>
      </trkpt>
      <trkpt lat="47.65042" lon="6.16454">
        <ele>234.80000305176</ele>
        <time>2013-11-23T14:45:52.000Z</time>
      </trkpt>
      <trkpt lat="47.65023" lon="6.1645">
        <ele>235.39999389648</ele>
        <time>2013-11-23T14:45:59.000Z</time>
      </trkpt>
      <trkpt lat="47.64997" lon="6.16446">
        <ele>236.39999389648</ele>
        <time>2013-11-23T14:46:05.000Z</time>
      </trkpt>
      <trkpt lat="47.64955" lon="6.16439">
        <ele>237.19999694824</ele>
        <time>2013-11-23T14:46:14.000Z</time>
      </trkpt>
      <trkpt lat="47.6492" lon="6.16433">
        <ele>238</ele>
        <time>2013-11-23T14:46:22.000Z</time>
      </trkpt>
      <trkpt lat="47.64882" lon="6.16426">
        <ele>239.39999389648</ele>
        <time>2013-11-23T14:46:31.000Z</time>
      </trkpt>
      <trkpt lat="47.64844" lon="6.16419">
        <ele>240.60000610352</ele>
        <time>2013-11-23T14:46:40.000Z</time>
      </trkpt>
      <trkpt lat="47.64814" lon="6.16414">
        <ele>240.60000610352</ele>
        <time>2013-11-23T14:46:47.000Z</time>
      </trkpt>
      <trkpt lat="47.64771" lon="6.16406">
        <ele>239.60000610352</ele>
        <time>2013-11-23T14:46:56.000Z</time>
      </trkpt>
      <trkpt lat="47.64765" lon="6.16405">
        <ele>239.39999389648</ele>
        <time>2013-11-23T14:46:57.000Z</time>
      </trkpt>
      <trkpt lat="47.64737" lon="6.16399">
        <ele>238.39999389648</ele>
        <time>2013-11-23T14:47:02.000Z</time>
      </trkpt>
      <trkpt lat="47.64697" lon="6.16394">
        <ele>236.19999694824</ele>
        <time>2013-11-23T14:47:09.000Z</time>
      </trkpt>
      <trkpt lat="47.64691" lon="6.16393">
        <ele>236</ele>
        <time>2013-11-23T14:47:10.000Z</time>
      </trkpt>
      <trkpt lat="47.64685" lon="6.16391">
        <ele>235.60000610352</ele>
        <time>2013-11-23T14:47:11.000Z</time>
      </trkpt>
      <trkpt lat="47.64678" lon="6.1639">
        <ele>235.19999694824</ele>
        <time>2013-11-23T14:47:12.000Z</time>
      </trkpt>
      <trkpt lat="47.64672" lon="6.16388">
        <ele>235</ele>
        <time>2013-11-23T14:47:13.000Z</time>
      </trkpt>
      <trkpt lat="47.64651" lon="6.16384">
        <ele>234.39999389648</ele>
        <time>2013-11-23T14:47:16.000Z</time>
      </trkpt>
      <trkpt lat="47.6463" lon="6.1638">
        <ele>234.39999389648</ele>
        <time>2013-11-23T14:47:19.000Z</time>
      </trkpt>
      <trkpt lat="47.64623" lon="6.16379">
        <ele>234.19999694824</ele>
        <time>2013-11-23T14:47:20.000Z</time>
      </trkpt>
      <trkpt lat="47.64616" lon="6.16378">
        <ele>234.19999694824</ele>
        <time>2013-11-23T14:47:21.000Z</time>
      </trkpt>
      <trkpt lat="47.6461" lon="6.16377">
        <ele>234.19999694824</ele>
        <time>2013-11-23T14:47:22.000Z</time>
      </trkpt>
      <trkpt lat="47.6459" lon="6.16373">
        <ele>234</ele>
        <time>2013-11-23T14:47:25.000Z</time>
      </trkpt>
      <trkpt lat="47.6455" lon="6.16366">
        <ele>234</ele>
        <time>2013-11-23T14:47:32.000Z</time>
      </trkpt>
      <trkpt lat="47.64504" lon="6.16359">
        <ele>234.39999389648</ele>
        <time>2013-11-23T14:47:41.000Z</time>
      </trkpt>
      <trkpt lat="47.64465" lon="6.16351">
        <ele>234.39999389648</ele>
        <time>2013-11-23T14:47:49.000Z</time>
      </trkpt>
      <trkpt lat="47.64439" lon="6.16338">
        <ele>234.19999694824</ele>
        <time>2013-11-23T14:47:55.000Z</time>
      </trkpt>
      <trkpt lat="47.64429" lon="6.16317">
        <ele>233.80000305176</ele>
        <time>2013-11-23T14:47:59.000Z</time>
      </trkpt>
      <trkpt lat="47.64426" lon="6.16311">
        <ele>233.60000610352</ele>
        <time>2013-11-23T14:48:00.000Z</time>
      </trkpt>
      <trkpt lat="47.64415" lon="6.16305">
        <ele>233.39999389648</ele>
        <time>2013-11-23T14:48:03.000Z</time>
      </trkpt>
      <trkpt lat="47.64402" lon="6.16317">
        <ele>234</ele>
        <time>2013-11-23T14:48:07.000Z</time>
      </trkpt>
      <trkpt lat="47.64399" lon="6.16322">
        <ele>234.19999694824</ele>
        <time>2013-11-23T14:48:08.000Z</time>
      </trkpt>
      <trkpt lat="47.64392" lon="6.1633">
        <ele>234.60000610352</ele>
        <time>2013-11-23T14:48:10.000Z</time>
      </trkpt>
      <trkpt lat="47.64384" lon="6.16334">
        <ele>234.80000305176</ele>
        <time>2013-11-23T14:48:12.000Z</time>
      </trkpt>
      <trkpt lat="47.64365" lon="6.16345">
        <ele>235.19999694824</ele>
        <time>2013-11-23T14:48:17.000Z</time>
      </trkpt>
      <trkpt lat="47.64357" lon="6.16362">
        <ele>235.19999694824</ele>
        <time>2013-11-23T14:48:20.000Z</time>
      </trkpt>
      <trkpt lat="47.64354" lon="6.16368">
        <ele>235.19999694824</ele>
        <time>2013-11-23T14:48:21.000Z</time>
      </trkpt>
      <trkpt lat="47.64342" lon="6.16413">
        <ele>235</ele>
        <time>2013-11-23T14:48:27.000Z</time>
      </trkpt>
      <trkpt lat="47.64338" lon="6.16428">
        <ele>235</ele>
        <time>2013-11-23T14:48:29.000Z</time>
      </trkpt>
      <trkpt lat="47.64335" lon="6.16436">
        <ele>235</ele>
        <time>2013-11-23T14:48:30.000Z</time>
      </trkpt>
      <trkpt lat="47.64334" lon="6.16443">
        <ele>235</ele>
        <time>2013-11-23T14:48:31.000Z</time>
      </trkpt>
      <trkpt lat="47.64332" lon="6.16451">
        <ele>235</ele>
        <time>2013-11-23T14:48:32.000Z</time>
      </trkpt>
      <trkpt lat="47.64329" lon="6.16459">
        <ele>235.19999694824</ele>
        <time>2013-11-23T14:48:33.000Z</time>
      </trkpt>
      <trkpt lat="47.64325" lon="6.16473">
        <ele>235.39999389648</ele>
        <time>2013-11-23T14:48:35.000Z</time>
      </trkpt>
      <trkpt lat="47.64314" lon="6.16518">
        <ele>235.60000610352</ele>
        <time>2013-11-23T14:48:42.000Z</time>
      </trkpt>
      <trkpt lat="47.64302" lon="6.1657">
        <ele>236.19999694824</ele>
        <time>2013-11-23T14:48:51.000Z</time>
      </trkpt>
      <trkpt lat="47.64288" lon="6.16612">
        <ele>237</ele>
        <time>2013-11-23T14:49:00.000Z</time>
      </trkpt>
      <trkpt lat="47.64277" lon="6.16646">
        <ele>237.80000305176</ele>
        <time>2013-11-23T14:49:07.000Z</time>
      </trkpt>
      <trkpt lat="47.64269" lon="6.16678">
        <ele>238.39999389648</ele>
        <time>2013-11-23T14:49:13.000Z</time>
      </trkpt>
      <trkpt lat="47.64261" lon="6.16704">
        <ele>238.60000610352</ele>
        <time>2013-11-23T14:49:20.000Z</time>
      </trkpt>
      <trkpt lat="47.64258" lon="6.16711">
        <ele>238.60000610352</ele>
        <time>2013-11-23T14:49:22.000Z</time>
      </trkpt>
      <trkpt lat="47.64258" lon="6.16714">
        <ele>238.60000610352</ele>
        <time>2013-11-23T14:49:23.000Z</time>
      </trkpt>
      <trkpt lat="47.64257" lon="6.16719">
        <ele>238.60000610352</ele>
        <time>2013-11-23T14:49:24.000Z</time>
      </trkpt>
      <trkpt lat="47.64256" lon="6.16725">
        <ele>238.80000305176</ele>
        <time>2013-11-23T14:49:25.000Z</time>
      </trkpt>
      <trkpt lat="47.64255" lon="6.1673">
        <ele>238.80000305176</ele>
        <time>2013-11-23T14:49:26.000Z</time>
      </trkpt>
      <trkpt lat="47.64248" lon="6.16755">
        <ele>238.80000305176</ele>
        <time>2013-11-23T14:49:31.000Z</time>
      </trkpt>
      <trkpt lat="47.64239" lon="6.16787">
        <ele>238.19999694824</ele>
        <time>2013-11-23T14:49:38.000Z</time>
      </trkpt>
      <trkpt lat="47.6423" lon="6.16827">
        <ele>237.80000305176</ele>
        <time>2013-11-23T14:49:47.000Z</time>
      </trkpt>
      <trkpt lat="47.64221" lon="6.16868">
        <ele>237.19999694824</ele>
        <time>2013-11-23T14:49:56.000Z</time>
      </trkpt>
      <trkpt lat="47.64213" lon="6.16898">
        <ele>236.80000305176</ele>
        <time>2013-11-23T14:50:02.000Z</time>
      </trkpt>
      <trkpt lat="47.64203" lon="6.16936">
        <ele>236</ele>
        <time>2013-11-23T14:50:08.000Z</time>
      </trkpt>
      <trkpt lat="47.64202" lon="6.16943">
        <ele>235.80000305176</ele>
        <time>2013-11-23T14:50:09.000Z</time>
      </trkpt>
      <trkpt lat="47.64194" lon="6.16975">
        <ele>235</ele>
        <time>2013-11-23T14:50:13.000Z</time>
      </trkpt>
      <trkpt lat="47.64192" lon="6.16983">
        <ele>234.60000610352</ele>
        <time>2013-11-23T14:50:14.000Z</time>
      </trkpt>
      <trkpt lat="47.6419" lon="6.16992">
        <ele>234.39999389648</ele>
        <time>2013-11-23T14:50:15.000Z</time>
      </trkpt>
      <trkpt lat="47.64187" lon="6.17001">
        <ele>234.19999694824</ele>
        <time>2013-11-23T14:50:16.000Z</time>
      </trkpt>
      <trkpt lat="47.64185" lon="6.17009">
        <ele>233.80000305176</ele>
        <time>2013-11-23T14:50:17.000Z</time>
      </trkpt>
      <trkpt lat="47.64184" lon="6.17019">
        <ele>233.19999694824</ele>
        <time>2013-11-23T14:50:18.000Z</time>
      </trkpt>
      <trkpt lat="47.64182" lon="6.17029">
        <ele>232.60000610352</ele>
        <time>2013-11-23T14:50:19.000Z</time>
      </trkpt>
      <trkpt lat="47.6418" lon="6.1704">
        <ele>232.19999694824</ele>
        <time>2013-11-23T14:50:20.000Z</time>
      </trkpt>
      <trkpt lat="47.64177" lon="6.17051">
        <ele>231.60000610352</ele>
        <time>2013-11-23T14:50:21.000Z</time>
      </trkpt>
      <trkpt lat="47.64173" lon="6.17063">
        <ele>231</ele>
        <time>2013-11-23T14:50:22.000Z</time>
      </trkpt>
      <trkpt lat="47.6417" lon="6.17073">
        <ele>230.39999389648</ele>
        <time>2013-11-23T14:50:23.000Z</time>
      </trkpt>
      <trkpt lat="47.64167" lon="6.17084">
        <ele>230</ele>
        <time>2013-11-23T14:50:24.000Z</time>
      </trkpt>
      <trkpt lat="47.64165" lon="6.17095">
        <ele>229</ele>
        <time>2013-11-23T14:50:25.000Z</time>
      </trkpt>
      <trkpt lat="47.64162" lon="6.17106">
        <ele>228.19999694824</ele>
        <time>2013-11-23T14:50:26.000Z</time>
      </trkpt>
      <trkpt lat="47.64159" lon="6.17117">
        <ele>227.39999389648</ele>
        <time>2013-11-23T14:50:27.000Z</time>
      </trkpt>
      <trkpt lat="47.64156" lon="6.1713">
        <ele>226.39999389648</ele>
        <time>2013-11-23T14:50:28.000Z</time>
      </trkpt>
      <trkpt lat="47.64154" lon="6.17142">
        <ele>225.60000610352</ele>
        <time>2013-11-23T14:50:29.000Z</time>
      </trkpt>
      <trkpt lat="47.64151" lon="6.17154">
        <ele>224.80000305176</ele>
        <time>2013-11-23T14:50:30.000Z</time>
      </trkpt>
      <trkpt lat="47.64148" lon="6.17165">
        <ele>224</ele>
        <time>2013-11-23T14:50:31.000Z</time>
      </trkpt>
      <trkpt lat="47.64146" lon="6.17177">
        <ele>223.80000305176</ele>
        <time>2013-11-23T14:50:32.000Z</time>
      </trkpt>
      <trkpt lat="47.64144" lon="6.17187">
        <ele>223.80000305176</ele>
        <time>2013-11-23T14:50:33.000Z</time>
      </trkpt>
      <trkpt lat="47.64142" lon="6.17197">
        <ele>223.60000610352</ele>
        <time>2013-11-23T14:50:34.000Z</time>
      </trkpt>
      <trkpt lat="47.6414" lon="6.17207">
        <ele>223.39999389648</ele>
        <time>2013-11-23T14:50:35.000Z</time>
      </trkpt>
      <trkpt lat="47.64138" lon="6.17216">
        <ele>223.39999389648</ele>
        <time>2013-11-23T14:50:36.000Z</time>
      </trkpt>
      <trkpt lat="47.64134" lon="6.17232">
        <ele>223.19999694824</ele>
        <time>2013-11-23T14:50:38.000Z</time>
      </trkpt>
      <trkpt lat="47.64132" lon="6.1724">
        <ele>223</ele>
        <time>2013-11-23T14:50:39.000Z</time>
      </trkpt>
      <trkpt lat="47.64129" lon="6.17246">
        <ele>223</ele>
        <time>2013-11-23T14:50:40.000Z</time>
      </trkpt>
      <trkpt lat="47.64126" lon="6.17253">
        <ele>222.80000305176</ele>
        <time>2013-11-23T14:50:41.000Z</time>
      </trkpt>
      <trkpt lat="47.6412" lon="6.17266">
        <ele>222.39999389648</ele>
        <time>2013-11-23T14:50:43.000Z</time>
      </trkpt>
      <trkpt lat="47.64098" lon="6.17309">
        <ele>221</ele>
        <time>2013-11-23T14:50:51.000Z</time>
      </trkpt>
      <trkpt lat="47.64078" lon="6.17339">
        <ele>220</ele>
        <time>2013-11-23T14:50:57.000Z</time>
      </trkpt>
      <trkpt lat="47.64074" lon="6.17344">
        <ele>219.80000305176</ele>
        <time>2013-11-23T14:50:58.000Z</time>
      </trkpt>
      <trkpt lat="47.64071" lon="6.17348">
        <ele>219.80000305176</ele>
        <time>2013-11-23T14:50:59.000Z</time>
      </trkpt>
      <trkpt lat="47.64066" lon="6.17352">
        <ele>219.80000305176</ele>
        <time>2013-11-23T14:51:00.000Z</time>
      </trkpt>
      <trkpt lat="47.64062" lon="6.17356">
        <ele>219.60000610352</ele>
        <time>2013-11-23T14:51:01.000Z</time>
      </trkpt>
      <trkpt lat="47.64045" lon="6.17371">
        <ele>219.60000610352</ele>
        <time>2013-11-23T14:51:05.000Z</time>
      </trkpt>
      <trkpt lat="47.64012" lon="6.17392">
        <ele>219.60000610352</ele>
        <time>2013-11-23T14:51:12.000Z</time>
      </trkpt>
      <trkpt lat="47.63989" lon="6.1741">
        <ele>219</ele>
        <time>2013-11-23T14:51:18.000Z</time>
      </trkpt>
      <trkpt lat="47.63988" lon="6.17414">
        <ele>218.80000305176</ele>
        <time>2013-11-23T14:51:19.000Z</time>
      </trkpt>
      <trkpt lat="47.63988" lon="6.17422">
        <ele>218.80000305176</ele>
        <time>2013-11-23T14:51:21.000Z</time>
      </trkpt>
      <trkpt lat="47.63996" lon="6.17435">
        <ele>219</ele>
        <time>2013-11-23T14:51:24.000Z</time>
      </trkpt>
      <trkpt lat="47.63998" lon="6.17439">
        <ele>219</ele>
        <time>2013-11-23T14:51:25.000Z</time>
      </trkpt>
      <trkpt lat="47.64006" lon="6.17451">
        <ele>218.80000305176</ele>
        <time>2013-11-23T14:51:28.000Z</time>
      </trkpt>
      <trkpt lat="47.64008" lon="6.17454">
        <ele>218.80000305176</ele>
        <time>2013-11-23T14:51:29.000Z</time>
      </trkpt>
      <trkpt lat="47.64011" lon="6.17458">
        <ele>218.80000305176</ele>
        <time>2013-11-23T14:51:30.000Z</time>
      </trkpt>
      <trkpt lat="47.64013" lon="6.17461">
        <ele>218.60000610352</ele>
        <time>2013-11-23T14:51:31.000Z</time>
      </trkpt>
      <trkpt lat="47.64018" lon="6.17468">
        <ele>218.60000610352</ele>
        <time>2013-11-23T14:51:33.000Z</time>
      </trkpt>
      <trkpt lat="47.64035" lon="6.17492">
        <ele>218.19999694824</ele>
        <time>2013-11-23T14:51:39.000Z</time>
      </trkpt>
      <trkpt lat="47.64068" lon="6.17539">
        <ele>217</ele>
        <time>2013-11-23T14:51:49.000Z</time>
      </trkpt>
      <trkpt lat="47.64094" lon="6.17574">
        <ele>216.39999389648</ele>
        <time>2013-11-23T14:51:57.000Z</time>
      </trkpt>
      <trkpt lat="47.641" lon="6.17583">
        <ele>216.60000610352</ele>
        <time>2013-11-23T14:51:59.000Z</time>
      </trkpt>
      <trkpt lat="47.64112" lon="6.176">
        <ele>217</ele>
        <time>2013-11-23T14:52:03.000Z</time>
      </trkpt>
      <trkpt lat="47.6414" lon="6.17638">
        <ele>218</ele>
        <time>2013-11-23T14:52:12.000Z</time>
      </trkpt>
      <trkpt lat="47.64164" lon="6.1767">
        <ele>218.80000305176</ele>
        <time>2013-11-23T14:52:20.000Z</time>
      </trkpt>
      <trkpt lat="47.6418" lon="6.17692">
        <ele>218</ele>
        <time>2013-11-23T14:52:25.000Z</time>
      </trkpt>
      <trkpt lat="47.64189" lon="6.17704">
        <ele>217.60000610352</ele>
        <time>2013-11-23T14:52:28.000Z</time>
      </trkpt>
      <trkpt lat="47.64215" lon="6.17737">
        <ele>216.60000610352</ele>
        <time>2013-11-23T14:52:36.000Z</time>
      </trkpt>
      <trkpt lat="47.64242" lon="6.17764">
        <ele>217</ele>
        <time>2013-11-23T14:52:44.000Z</time>
      </trkpt>
      <trkpt lat="47.64265" lon="6.17781">
        <ele>218</ele>
        <time>2013-11-23T14:52:51.000Z</time>
      </trkpt>
      <trkpt lat="47.64283" lon="6.17793">
        <ele>218.39999389648</ele>
        <time>2013-11-23T14:52:55.000Z</time>
      </trkpt>
      <trkpt lat="47.64288" lon="6.17796">
        <ele>218.60000610352</ele>
        <time>2013-11-23T14:52:56.000Z</time>
      </trkpt>
      <trkpt lat="47.64293" lon="6.17799">
        <ele>218.80000305176</ele>
        <time>2013-11-23T14:52:57.000Z</time>
      </trkpt>
      <trkpt lat="47.64297" lon="6.17802">
        <ele>218.80000305176</ele>
        <time>2013-11-23T14:52:58.000Z</time>
      </trkpt>
      <trkpt lat="47.64302" lon="6.17805">
        <ele>219</ele>
        <time>2013-11-23T14:52:59.000Z</time>
      </trkpt>
      <trkpt lat="47.64307" lon="6.17808">
        <ele>219</ele>
        <time>2013-11-23T14:53:00.000Z</time>
      </trkpt>
      <trkpt lat="47.64312" lon="6.1781">
        <ele>219</ele>
        <time>2013-11-23T14:53:01.000Z</time>
      </trkpt>
      <trkpt lat="47.6433" lon="6.17822">
        <ele>219.19999694824</ele>
        <time>2013-11-23T14:53:05.000Z</time>
      </trkpt>
      <trkpt lat="47.64358" lon="6.17847">
        <ele>219.80000305176</ele>
        <time>2013-11-23T14:53:12.000Z</time>
      </trkpt>
      <trkpt lat="47.64365" lon="6.17855">
        <ele>220</ele>
        <time>2013-11-23T14:53:14.000Z</time>
      </trkpt>
      <trkpt lat="47.64368" lon="6.17859">
        <ele>220</ele>
        <time>2013-11-23T14:53:15.000Z</time>
      </trkpt>
      <trkpt lat="47.64372" lon="6.17864">
        <ele>220.19999694824</ele>
        <time>2013-11-23T14:53:16.000Z</time>
      </trkpt>
      <trkpt lat="47.64375" lon="6.17868">
        <ele>220.19999694824</ele>
        <time>2013-11-23T14:53:17.000Z</time>
      </trkpt>
      <trkpt lat="47.64378" lon="6.17872">
        <ele>220.19999694824</ele>
        <time>2013-11-23T14:53:18.000Z</time>
      </trkpt>
      <trkpt lat="47.64384" lon="6.17881">
        <ele>220.39999389648</ele>
        <time>2013-11-23T14:53:20.000Z</time>
      </trkpt>
      <trkpt lat="47.64404" lon="6.17916">
        <ele>220.80000305176</ele>
        <time>2013-11-23T14:53:27.000Z</time>
      </trkpt>
      <trkpt lat="47.64426" lon="6.17956">
        <ele>221.60000610352</ele>
        <time>2013-11-23T14:53:35.000Z</time>
      </trkpt>
      <trkpt lat="47.64443" lon="6.17988">
        <ele>222.19999694824</ele>
        <time>2013-11-23T14:53:41.000Z</time>
      </trkpt>
      <trkpt lat="47.64446" lon="6.17995">
        <ele>222.19999694824</ele>
        <time>2013-11-23T14:53:42.000Z</time>
      </trkpt>
      <trkpt lat="47.64452" lon="6.18007">
        <ele>222.39999389648</ele>
        <time>2013-11-23T14:53:44.000Z</time>
      </trkpt>
      <trkpt lat="47.64459" lon="6.18019">
        <ele>222.60000610352</ele>
        <time>2013-11-23T14:53:46.000Z</time>
      </trkpt>
      <trkpt lat="47.64466" lon="6.18029">
        <ele>222.80000305176</ele>
        <time>2013-11-23T14:53:48.000Z</time>
      </trkpt>
      <trkpt lat="47.64474" lon="6.18036">
        <ele>222.80000305176</ele>
        <time>2013-11-23T14:53:50.000Z</time>
      </trkpt>
      <trkpt lat="47.64489" lon="6.18047">
        <ele>223</ele>
        <time>2013-11-23T14:53:54.000Z</time>
      </trkpt>
      <trkpt lat="47.64505" lon="6.18065">
        <ele>224</ele>
        <time>2013-11-23T14:54:00.000Z</time>
      </trkpt>
      <trkpt lat="47.64502" lon="6.1808">
        <ele>223.39999389648</ele>
        <time>2013-11-23T14:54:03.000Z</time>
      </trkpt>
      <trkpt lat="47.64499" lon="6.18091">
        <ele>223.19999694824</ele>
        <time>2013-11-23T14:54:05.000Z</time>
      </trkpt>
      <trkpt lat="47.64494" lon="6.18118">
        <ele>223.80000305176</ele>
        <time>2013-11-23T14:54:09.000Z</time>
      </trkpt>
      <trkpt lat="47.64492" lon="6.18133">
        <ele>224</ele>
        <time>2013-11-23T14:54:11.000Z</time>
      </trkpt>
      <trkpt lat="47.64493" lon="6.18154">
        <ele>224.60000610352</ele>
        <time>2013-11-23T14:54:14.000Z</time>
      </trkpt>
      <trkpt lat="47.645" lon="6.18183">
        <ele>226.19999694824</ele>
        <time>2013-11-23T14:54:19.000Z</time>
      </trkpt>
      <trkpt lat="47.64497" lon="6.18203">
        <ele>227.39999389648</ele>
        <time>2013-11-23T14:54:23.000Z</time>
      </trkpt>
      <trkpt lat="47.64486" lon="6.1823">
        <ele>228.39999389648</ele>
        <time>2013-11-23T14:54:30.000Z</time>
      </trkpt>
      <trkpt lat="47.64471" lon="6.18262">
        <ele>229.39999389648</ele>
        <time>2013-11-23T14:54:37.000Z</time>
      </trkpt>
      <trkpt lat="47.64463" lon="6.18272">
        <ele>229.60000610352</ele>
        <time>2013-11-23T14:54:42.000Z</time>
      </trkpt>
      <trkpt lat="47.64452" lon="6.18286">
        <ele>229.80000305176</ele>
        <time>2013-11-23T14:54:49.000Z</time>
      </trkpt>
      <trkpt lat="47.64444" lon="6.18295">
        <ele>229.39999389648</ele>
        <time>2013-11-23T14:54:53.000Z</time>
      </trkpt>
      <trkpt lat="47.6444" lon="6.18302">
        <ele>229.39999389648</ele>
        <time>2013-11-23T14:54:56.000Z</time>
      </trkpt>
      <trkpt lat="47.64439" lon="6.18303">
        <ele>229.39999389648</ele>
        <time>2013-11-23T14:54:58.000Z</time>
      </trkpt>
      <trkpt lat="47.64442" lon="6.18312">
        <ele>230.80000305176</ele>
        <time>2013-11-23T14:55:47.000Z</time>
      </trkpt>
      <trkpt lat="47.64442" lon="6.18313">
        <ele>230.80000305176</ele>
        <time>2013-11-23T14:55:48.000Z</time>
      </trkpt>
      <trkpt lat="47.64442" lon="6.18313">
        <ele>230.80000305176</ele>
        <time>2013-11-23T14:55:49.000Z</time>
      </trkpt>
    </trkseg>
  </trk>
</gpx>